<?xml version="1.0" encoding="UTF-8" standalone="no" ?>
<gpx xmlns="http://www.topografix.com/GPX/1/1" xmlns:xsi="http://www.w3.org/2001/XMLSchema-instance" xsi:schemaLocation="http://www.topografix.com/GPX/1/1 http://www.topografix.com/GPX/1/1/gpx.xsd" version="1.1" creator="VisuGPX - https://www.visugpx.com">
  <metadata>
    <name>VV Tour de Gersvtt07</name>
    <desc><![CDATA[Boucle de 40 kms au départ de St Martin d\'Ardèche]]></desc>
  </metadata>
  <trk>
    <name><![CDATA[2012-11-03-09-38-36 on GPSies.com]]></name>
    <trkseg>
      <trkpt lat="44.30566" lon="4.56742">
        <ele>85.647</ele>
        <time>2012-11-03T09:38:37Z</time>
      </trkpt>
      <trkpt lat="44.30566" lon="4.56742">
        <ele>84.948</ele>
        <time>2012-11-03T09:38:38Z</time>
      </trkpt>
      <trkpt lat="44.3057" lon="4.56739">
        <ele>82.04</ele>
        <time>2012-11-03T09:42:30Z</time>
      </trkpt>
      <trkpt lat="44.30567" lon="4.56727">
        <ele>87.388</ele>
        <time>2012-11-03T09:42:59Z</time>
      </trkpt>
      <trkpt lat="44.30561" lon="4.56723">
        <ele>87.577</ele>
        <time>2012-11-03T09:43:03Z</time>
      </trkpt>
      <trkpt lat="44.30545" lon="4.5672">
        <ele>87.305</ele>
        <time>2012-11-03T09:43:08Z</time>
      </trkpt>
      <trkpt lat="44.30516" lon="4.56714">
        <ele>85.735</ele>
        <time>2012-11-03T09:43:13Z</time>
      </trkpt>
      <trkpt lat="44.30475" lon="4.56712">
        <ele>83.404</ele>
        <time>2012-11-03T09:43:19Z</time>
      </trkpt>
      <trkpt lat="44.30427" lon="4.56718">
        <ele>76.841</ele>
        <time>2012-11-03T09:43:26Z</time>
      </trkpt>
      <trkpt lat="44.30419" lon="4.56719">
        <ele>75.61</ele>
        <time>2012-11-03T09:43:27Z</time>
      </trkpt>
      <trkpt lat="44.3039" lon="4.56713">
        <ele>71.071</ele>
        <time>2012-11-03T09:43:31Z</time>
      </trkpt>
      <trkpt lat="44.3037" lon="4.56708">
        <ele>67.783</ele>
        <time>2012-11-03T09:43:35Z</time>
      </trkpt>
      <trkpt lat="44.30366" lon="4.56714">
        <ele>66.903</ele>
        <time>2012-11-03T09:43:36Z</time>
      </trkpt>
      <trkpt lat="44.30356" lon="4.56726">
        <ele>65.332</ele>
        <time>2012-11-03T09:43:38Z</time>
      </trkpt>
      <trkpt lat="44.30332" lon="4.56742">
        <ele>62.381</ele>
        <time>2012-11-03T09:43:42Z</time>
      </trkpt>
      <trkpt lat="44.30296" lon="4.56751">
        <ele>61.223</ele>
        <time>2012-11-03T09:43:47Z</time>
      </trkpt>
      <trkpt lat="44.30277" lon="4.56736">
        <ele>60.795</ele>
        <time>2012-11-03T09:43:51Z</time>
      </trkpt>
      <trkpt lat="44.30269" lon="4.56724">
        <ele>59.515</ele>
        <time>2012-11-03T09:43:53Z</time>
      </trkpt>
      <trkpt lat="44.30249" lon="4.56717">
        <ele>60.907</ele>
        <time>2012-11-03T09:43:57Z</time>
      </trkpt>
      <trkpt lat="44.30233" lon="4.56725">
        <ele>62.688</ele>
        <time>2012-11-03T09:44:00Z</time>
      </trkpt>
      <trkpt lat="44.30213" lon="4.5675">
        <ele>63.767</ele>
        <time>2012-11-03T09:44:06Z</time>
      </trkpt>
      <trkpt lat="44.30207" lon="4.56757">
        <ele>64.298</ele>
        <time>2012-11-03T09:44:08Z</time>
      </trkpt>
      <trkpt lat="44.30176" lon="4.56797">
        <ele>63.945</ele>
        <time>2012-11-03T09:44:16Z</time>
      </trkpt>
      <trkpt lat="44.30151" lon="4.56845">
        <ele>63.045</ele>
        <time>2012-11-03T09:44:23Z</time>
      </trkpt>
      <trkpt lat="44.3012" lon="4.56896">
        <ele>63.645</ele>
        <time>2012-11-03T09:44:31Z</time>
      </trkpt>
      <trkpt lat="44.30083" lon="4.56947">
        <ele>64.236</ele>
        <time>2012-11-03T09:44:39Z</time>
      </trkpt>
      <trkpt lat="44.30074" lon="4.56958">
        <ele>64.376</ele>
        <time>2012-11-03T09:44:41Z</time>
      </trkpt>
      <trkpt lat="44.30055" lon="4.56968">
        <ele>64.896</ele>
        <time>2012-11-03T09:44:45Z</time>
      </trkpt>
      <trkpt lat="44.30047" lon="4.5696">
        <ele>64.426</ele>
        <time>2012-11-03T09:44:48Z</time>
      </trkpt>
      <trkpt lat="44.30046" lon="4.56949">
        <ele>63.706</ele>
        <time>2012-11-03T09:44:50Z</time>
      </trkpt>
      <trkpt lat="44.30047" lon="4.56936">
        <ele>62.025</ele>
        <time>2012-11-03T09:44:52Z</time>
      </trkpt>
      <trkpt lat="44.30057" lon="4.56896">
        <ele>59.816</ele>
        <time>2012-11-03T09:44:58Z</time>
      </trkpt>
      <trkpt lat="44.30072" lon="4.56838">
        <ele>59.056</ele>
        <time>2012-11-03T09:45:07Z</time>
      </trkpt>
      <trkpt lat="44.30089" lon="4.56782">
        <ele>58.766</ele>
        <time>2012-11-03T09:45:16Z</time>
      </trkpt>
      <trkpt lat="44.30098" lon="4.56758">
        <ele>59.487</ele>
        <time>2012-11-03T09:45:21Z</time>
      </trkpt>
      <trkpt lat="44.30099" lon="4.56746">
        <ele>60.577</ele>
        <time>2012-11-03T09:45:25Z</time>
      </trkpt>
      <trkpt lat="44.30096" lon="4.56741">
        <ele>61.266</ele>
        <time>2012-11-03T09:45:29Z</time>
      </trkpt>
      <trkpt lat="44.30084" lon="4.56732">
        <ele>62.546</ele>
        <time>2012-11-03T09:45:35Z</time>
      </trkpt>
      <trkpt lat="44.30068" lon="4.56725">
        <ele>63.096</ele>
        <time>2012-11-03T09:45:40Z</time>
      </trkpt>
      <trkpt lat="44.30047" lon="4.56715">
        <ele>64.136</ele>
        <time>2012-11-03T09:45:48Z</time>
      </trkpt>
      <trkpt lat="44.30045" lon="4.56715">
        <ele>64.583</ele>
        <time>2012-11-03T09:45:51Z</time>
      </trkpt>
      <trkpt lat="44.30042" lon="4.56716">
        <ele>64.676</ele>
        <time>2012-11-03T09:46:04Z</time>
      </trkpt>
      <trkpt lat="44.30021" lon="4.56706">
        <ele>65.156</ele>
        <time>2012-11-03T09:46:10Z</time>
      </trkpt>
      <trkpt lat="44.2999" lon="4.5669">
        <ele>65.065</ele>
        <time>2012-11-03T09:46:18Z</time>
      </trkpt>
      <trkpt lat="44.29956" lon="4.56673">
        <ele>65.505</ele>
        <time>2012-11-03T09:46:27Z</time>
      </trkpt>
      <trkpt lat="44.29931" lon="4.5666">
        <ele>65.095</ele>
        <time>2012-11-03T09:46:32Z</time>
      </trkpt>
      <trkpt lat="44.29901" lon="4.56645">
        <ele>64.005</ele>
        <time>2012-11-03T09:46:38Z</time>
      </trkpt>
      <trkpt lat="44.29886" lon="4.56648">
        <ele>62.654</ele>
        <time>2012-11-03T09:46:42Z</time>
      </trkpt>
      <trkpt lat="44.29871" lon="4.5665">
        <ele>61.584</ele>
        <time>2012-11-03T09:46:45Z</time>
      </trkpt>
      <trkpt lat="44.29848" lon="4.56641">
        <ele>60.384</ele>
        <time>2012-11-03T09:46:49Z</time>
      </trkpt>
      <trkpt lat="44.29843" lon="4.56636">
        <ele>60.164</ele>
        <time>2012-11-03T09:46:50Z</time>
      </trkpt>
      <trkpt lat="44.29816" lon="4.56614">
        <ele>59.485</ele>
        <time>2012-11-03T09:46:56Z</time>
      </trkpt>
      <trkpt lat="44.29804" lon="4.56615">
        <ele>59.275</ele>
        <time>2012-11-03T09:46:58Z</time>
      </trkpt>
      <trkpt lat="44.29781" lon="4.56626">
        <ele>59.605</ele>
        <time>2012-11-03T09:47:02Z</time>
      </trkpt>
      <trkpt lat="44.29752" lon="4.56637">
        <ele>59.024</ele>
        <time>2012-11-03T09:47:07Z</time>
      </trkpt>
      <trkpt lat="44.29742" lon="4.56638">
        <ele>58.234</ele>
        <time>2012-11-03T09:47:09Z</time>
      </trkpt>
      <trkpt lat="44.29721" lon="4.56635">
        <ele>58.614</ele>
        <time>2012-11-03T09:47:14Z</time>
      </trkpt>
      <trkpt lat="44.29718" lon="4.56635">
        <ele>59.095</ele>
        <time>2012-11-03T09:47:15Z</time>
      </trkpt>
      <trkpt lat="44.2971" lon="4.56645">
        <ele>60.345</ele>
        <time>2012-11-03T09:47:20Z</time>
      </trkpt>
      <trkpt lat="44.29703" lon="4.56646">
        <ele>60.695</ele>
        <time>2012-11-03T09:47:23Z</time>
      </trkpt>
      <trkpt lat="44.29685" lon="4.56646">
        <ele>61.335</ele>
        <time>2012-11-03T09:47:29Z</time>
      </trkpt>
      <trkpt lat="44.29659" lon="4.56645">
        <ele>61.175</ele>
        <time>2012-11-03T09:47:36Z</time>
      </trkpt>
      <trkpt lat="44.29631" lon="4.56651">
        <ele>61.395</ele>
        <time>2012-11-03T09:47:43Z</time>
      </trkpt>
      <trkpt lat="44.29592" lon="4.56658">
        <ele>62.905</ele>
        <time>2012-11-03T09:47:53Z</time>
      </trkpt>
      <trkpt lat="44.29552" lon="4.56658">
        <ele>63.075</ele>
        <time>2012-11-03T09:48:03Z</time>
      </trkpt>
      <trkpt lat="44.29528" lon="4.56665">
        <ele>64.055</ele>
        <time>2012-11-03T09:48:10Z</time>
      </trkpt>
      <trkpt lat="44.29506" lon="4.56679">
        <ele>66.516</ele>
        <time>2012-11-03T09:48:18Z</time>
      </trkpt>
      <trkpt lat="44.29492" lon="4.56684">
        <ele>69.336</ele>
        <time>2012-11-03T09:48:24Z</time>
      </trkpt>
      <trkpt lat="44.29481" lon="4.5668">
        <ele>71.346</ele>
        <time>2012-11-03T09:48:30Z</time>
      </trkpt>
      <trkpt lat="44.2947" lon="4.56669">
        <ele>71.586</ele>
        <time>2012-11-03T09:48:37Z</time>
      </trkpt>
      <trkpt lat="44.29457" lon="4.56662">
        <ele>73.115</ele>
        <time>2012-11-03T09:48:45Z</time>
      </trkpt>
      <trkpt lat="44.29438" lon="4.56653">
        <ele>74.636</ele>
        <time>2012-11-03T09:48:55Z</time>
      </trkpt>
      <trkpt lat="44.29422" lon="4.56645">
        <ele>76.205</ele>
        <time>2012-11-03T09:49:03Z</time>
      </trkpt>
      <trkpt lat="44.29403" lon="4.56641">
        <ele>77.915</ele>
        <time>2012-11-03T09:49:13Z</time>
      </trkpt>
      <trkpt lat="44.29392" lon="4.5664">
        <ele>78.504</ele>
        <time>2012-11-03T09:49:20Z</time>
      </trkpt>
      <trkpt lat="44.29384" lon="4.56644">
        <ele>78.587</ele>
        <time>2012-11-03T09:49:24Z</time>
      </trkpt>
      <trkpt lat="44.29371" lon="4.56665">
        <ele>78.134</ele>
        <time>2012-11-03T09:49:31Z</time>
      </trkpt>
      <trkpt lat="44.29353" lon="4.56695">
        <ele>76.793</ele>
        <time>2012-11-03T09:49:41Z</time>
      </trkpt>
      <trkpt lat="44.29341" lon="4.56715">
        <ele>76.333</ele>
        <time>2012-11-03T09:49:48Z</time>
      </trkpt>
      <trkpt lat="44.2933" lon="4.56741">
        <ele>77.284</ele>
        <time>2012-11-03T09:49:56Z</time>
      </trkpt>
      <trkpt lat="44.29314" lon="4.56772">
        <ele>77.573</ele>
        <time>2012-11-03T09:50:04Z</time>
      </trkpt>
      <trkpt lat="44.29294" lon="4.56813">
        <ele>77.013</ele>
        <time>2012-11-03T09:50:13Z</time>
      </trkpt>
      <trkpt lat="44.29284" lon="4.56833">
        <ele>76.643</ele>
        <time>2012-11-03T09:50:17Z</time>
      </trkpt>
      <trkpt lat="44.29262" lon="4.56852">
        <ele>76.544</ele>
        <time>2012-11-03T09:50:23Z</time>
      </trkpt>
      <trkpt lat="44.29227" lon="4.56873">
        <ele>77.684</ele>
        <time>2012-11-03T09:50:32Z</time>
      </trkpt>
      <trkpt lat="44.29191" lon="4.56899">
        <ele>78.974</ele>
        <time>2012-11-03T09:50:42Z</time>
      </trkpt>
      <trkpt lat="44.29157" lon="4.56921">
        <ele>80.225</ele>
        <time>2012-11-03T09:50:51Z</time>
      </trkpt>
      <trkpt lat="44.29128" lon="4.56933">
        <ele>80.704</ele>
        <time>2012-11-03T09:50:58Z</time>
      </trkpt>
      <trkpt lat="44.29087" lon="4.56944">
        <ele>79.363</ele>
        <time>2012-11-03T09:51:07Z</time>
      </trkpt>
      <trkpt lat="44.29042" lon="4.56959">
        <ele>79.263</ele>
        <time>2012-11-03T09:51:16Z</time>
      </trkpt>
      <trkpt lat="44.28994" lon="4.56974">
        <ele>79.143</ele>
        <time>2012-11-03T09:51:25Z</time>
      </trkpt>
      <trkpt lat="44.28946" lon="4.56992">
        <ele>78.993</ele>
        <time>2012-11-03T09:51:34Z</time>
      </trkpt>
      <trkpt lat="44.28906" lon="4.57014">
        <ele>78.884</ele>
        <time>2012-11-03T09:51:42Z</time>
      </trkpt>
      <trkpt lat="44.28859" lon="4.57041">
        <ele>78.763</ele>
        <time>2012-11-03T09:51:51Z</time>
      </trkpt>
      <trkpt lat="44.28802" lon="4.57074">
        <ele>78.724</ele>
        <time>2012-11-03T09:52:02Z</time>
      </trkpt>
      <trkpt lat="44.28771" lon="4.57095">
        <ele>79.143</ele>
        <time>2012-11-03T09:52:09Z</time>
      </trkpt>
      <trkpt lat="44.28732" lon="4.57123">
        <ele>78.842</ele>
        <time>2012-11-03T09:52:18Z</time>
      </trkpt>
      <trkpt lat="44.28691" lon="4.57151">
        <ele>79.663</ele>
        <time>2012-11-03T09:52:27Z</time>
      </trkpt>
      <trkpt lat="44.28652" lon="4.57174">
        <ele>79.613</ele>
        <time>2012-11-03T09:52:35Z</time>
      </trkpt>
      <trkpt lat="44.28609" lon="4.57189">
        <ele>79.733</ele>
        <time>2012-11-03T09:52:43Z</time>
      </trkpt>
      <trkpt lat="44.28559" lon="4.57199">
        <ele>80.263</ele>
        <time>2012-11-03T09:52:52Z</time>
      </trkpt>
      <trkpt lat="44.28516" lon="4.57193">
        <ele>80.913</ele>
        <time>2012-11-03T09:53:00Z</time>
      </trkpt>
      <trkpt lat="44.28459" lon="4.57186">
        <ele>81.913</ele>
        <time>2012-11-03T09:53:11Z</time>
      </trkpt>
      <trkpt lat="44.28411" lon="4.57188">
        <ele>82.343</ele>
        <time>2012-11-03T09:53:20Z</time>
      </trkpt>
      <trkpt lat="44.28351" lon="4.5718">
        <ele>82.952</ele>
        <time>2012-11-03T09:53:31Z</time>
      </trkpt>
      <trkpt lat="44.28282" lon="4.57165">
        <ele>84.453</ele>
        <time>2012-11-03T09:53:44Z</time>
      </trkpt>
      <trkpt lat="44.28249" lon="4.57159">
        <ele>85.182</ele>
        <time>2012-11-03T09:53:51Z</time>
      </trkpt>
      <trkpt lat="44.28209" lon="4.57158">
        <ele>84.521</ele>
        <time>2012-11-03T09:53:59Z</time>
      </trkpt>
      <trkpt lat="44.2816" lon="4.57159">
        <ele>83.171</ele>
        <time>2012-11-03T09:54:07Z</time>
      </trkpt>
      <trkpt lat="44.28091" lon="4.57162">
        <ele>79.26</ele>
        <time>2012-11-03T09:54:17Z</time>
      </trkpt>
      <trkpt lat="44.28073" lon="4.57169">
        <ele>78.621</ele>
        <time>2012-11-03T09:54:20Z</time>
      </trkpt>
      <trkpt lat="44.2805" lon="4.57191">
        <ele>78.101</ele>
        <time>2012-11-03T09:54:25Z</time>
      </trkpt>
      <trkpt lat="44.28041" lon="4.57223">
        <ele>76.59</ele>
        <time>2012-11-03T09:54:29Z</time>
      </trkpt>
      <trkpt lat="44.28036" lon="4.57294">
        <ele>76.291</ele>
        <time>2012-11-03T09:54:37Z</time>
      </trkpt>
      <trkpt lat="44.28032" lon="4.57327">
        <ele>76.941</ele>
        <time>2012-11-03T09:54:42Z</time>
      </trkpt>
      <trkpt lat="44.28017" lon="4.57377">
        <ele>76.76</ele>
        <time>2012-11-03T09:54:49Z</time>
      </trkpt>
      <trkpt lat="44.28006" lon="4.57408">
        <ele>75.96</ele>
        <time>2012-11-03T09:54:53Z</time>
      </trkpt>
      <trkpt lat="44.2799" lon="4.57434">
        <ele>76.011</ele>
        <time>2012-11-03T09:54:57Z</time>
      </trkpt>
      <trkpt lat="44.27975" lon="4.57448">
        <ele>75.341</ele>
        <time>2012-11-03T09:55:00Z</time>
      </trkpt>
      <trkpt lat="44.27946" lon="4.57492">
        <ele>74.681</ele>
        <time>2012-11-03T09:55:07Z</time>
      </trkpt>
      <trkpt lat="44.27919" lon="4.5755">
        <ele>74.671</ele>
        <time>2012-11-03T09:55:15Z</time>
      </trkpt>
      <trkpt lat="44.27884" lon="4.5763">
        <ele>74.531</ele>
        <time>2012-11-03T09:55:26Z</time>
      </trkpt>
      <trkpt lat="44.27859" lon="4.57698">
        <ele>75.002</ele>
        <time>2012-11-03T09:55:35Z</time>
      </trkpt>
      <trkpt lat="44.27838" lon="4.57755">
        <ele>74.971</ele>
        <time>2012-11-03T09:55:43Z</time>
      </trkpt>
      <trkpt lat="44.27811" lon="4.57806">
        <ele>75.402</ele>
        <time>2012-11-03T09:55:51Z</time>
      </trkpt>
      <trkpt lat="44.27806" lon="4.57818">
        <ele>75.552</ele>
        <time>2012-11-03T09:55:53Z</time>
      </trkpt>
      <trkpt lat="44.27792" lon="4.57873">
        <ele>77.423</ele>
        <time>2012-11-03T09:56:01Z</time>
      </trkpt>
      <trkpt lat="44.27789" lon="4.57899">
        <ele>80.064</ele>
        <time>2012-11-03T09:56:06Z</time>
      </trkpt>
      <trkpt lat="44.27789" lon="4.57934">
        <ele>82.013</ele>
        <time>2012-11-03T09:56:14Z</time>
      </trkpt>
      <trkpt lat="44.2778" lon="4.57954">
        <ele>82.893</ele>
        <time>2012-11-03T09:56:20Z</time>
      </trkpt>
      <trkpt lat="44.27761" lon="4.57953">
        <ele>83.488</ele>
        <time>2012-11-03T09:56:26Z</time>
      </trkpt>
      <trkpt lat="44.27724" lon="4.57951">
        <ele>84.202</ele>
        <time>2012-11-03T09:56:36Z</time>
      </trkpt>
      <trkpt lat="44.27684" lon="4.57949">
        <ele>85.822</ele>
        <time>2012-11-03T09:56:47Z</time>
      </trkpt>
      <trkpt lat="44.2765" lon="4.57947">
        <ele>86.522</ele>
        <time>2012-11-03T09:56:56Z</time>
      </trkpt>
      <trkpt lat="44.27623" lon="4.57948">
        <ele>87.222</ele>
        <time>2012-11-03T09:57:03Z</time>
      </trkpt>
      <trkpt lat="44.27608" lon="4.57966">
        <ele>87.772</ele>
        <time>2012-11-03T09:57:08Z</time>
      </trkpt>
      <trkpt lat="44.2759" lon="4.57992">
        <ele>87.852</ele>
        <time>2012-11-03T09:57:15Z</time>
      </trkpt>
      <trkpt lat="44.27576" lon="4.58015">
        <ele>87.371</ele>
        <time>2012-11-03T09:57:21Z</time>
      </trkpt>
      <trkpt lat="44.27561" lon="4.58009">
        <ele>87.699</ele>
        <time>2012-11-03T09:57:26Z</time>
      </trkpt>
      <trkpt lat="44.27529" lon="4.57985">
        <ele>88.672</ele>
        <time>2012-11-03T09:57:36Z</time>
      </trkpt>
      <trkpt lat="44.27493" lon="4.57958">
        <ele>89.402</ele>
        <time>2012-11-03T09:57:47Z</time>
      </trkpt>
      <trkpt lat="44.27457" lon="4.57932">
        <ele>89.802</ele>
        <time>2012-11-03T09:57:58Z</time>
      </trkpt>
      <trkpt lat="44.27425" lon="4.57909">
        <ele>89.781</ele>
        <time>2012-11-03T09:58:07Z</time>
      </trkpt>
      <trkpt lat="44.27413" lon="4.57901">
        <ele>89.811</ele>
        <time>2012-11-03T09:58:10Z</time>
      </trkpt>
      <trkpt lat="44.27391" lon="4.57898">
        <ele>89.481</ele>
        <time>2012-11-03T09:58:15Z</time>
      </trkpt>
      <trkpt lat="44.27368" lon="4.57912">
        <ele>89.16</ele>
        <time>2012-11-03T09:58:21Z</time>
      </trkpt>
      <trkpt lat="44.27343" lon="4.57946">
        <ele>89.46</ele>
        <time>2012-11-03T09:58:29Z</time>
      </trkpt>
      <trkpt lat="44.27322" lon="4.5795">
        <ele>89.081</ele>
        <time>2012-11-03T09:58:34Z</time>
      </trkpt>
      <trkpt lat="44.27299" lon="4.57944">
        <ele>89.871</ele>
        <time>2012-11-03T09:58:39Z</time>
      </trkpt>
      <trkpt lat="44.27264" lon="4.57922">
        <ele>92.262</ele>
        <time>2012-11-03T09:58:48Z</time>
      </trkpt>
      <trkpt lat="44.27241" lon="4.5791">
        <ele>94.184</ele>
        <time>2012-11-03T09:58:55Z</time>
      </trkpt>
      <trkpt lat="44.27211" lon="4.57904">
        <ele>97.311</ele>
        <time>2012-11-03T09:59:05Z</time>
      </trkpt>
      <trkpt lat="44.27181" lon="4.5789">
        <ele>99.381</ele>
        <time>2012-11-03T09:59:15Z</time>
      </trkpt>
      <trkpt lat="44.2715" lon="4.57878">
        <ele>101.911</ele>
        <time>2012-11-03T09:59:26Z</time>
      </trkpt>
      <trkpt lat="44.2713" lon="4.57877">
        <ele>103.952</ele>
        <time>2012-11-03T09:59:33Z</time>
      </trkpt>
      <trkpt lat="44.27101" lon="4.57877">
        <ele>105.831</ele>
        <time>2012-11-03T09:59:43Z</time>
      </trkpt>
      <trkpt lat="44.27071" lon="4.57872">
        <ele>106.88</ele>
        <time>2012-11-03T09:59:53Z</time>
      </trkpt>
      <trkpt lat="44.27043" lon="4.57873">
        <ele>106.44</ele>
        <time>2012-11-03T10:00:01Z</time>
      </trkpt>
      <trkpt lat="44.27012" lon="4.57881">
        <ele>105.73</ele>
        <time>2012-11-03T10:00:09Z</time>
      </trkpt>
      <trkpt lat="44.26988" lon="4.57887">
        <ele>105.64</ele>
        <time>2012-11-03T10:00:15Z</time>
      </trkpt>
      <trkpt lat="44.26968" lon="4.57903">
        <ele>105.82</ele>
        <time>2012-11-03T10:00:21Z</time>
      </trkpt>
      <trkpt lat="44.26953" lon="4.57935">
        <ele>105.09</ele>
        <time>2012-11-03T10:00:28Z</time>
      </trkpt>
      <trkpt lat="44.26933" lon="4.57973">
        <ele>105.4</ele>
        <time>2012-11-03T10:00:37Z</time>
      </trkpt>
      <trkpt lat="44.26914" lon="4.58009">
        <ele>106.13</ele>
        <time>2012-11-03T10:00:46Z</time>
      </trkpt>
      <trkpt lat="44.26898" lon="4.58048">
        <ele>107.501</ele>
        <time>2012-11-03T10:00:55Z</time>
      </trkpt>
      <trkpt lat="44.26885" lon="4.58093">
        <ele>106.937</ele>
        <time>2012-11-03T10:01:03Z</time>
      </trkpt>
      <trkpt lat="44.26871" lon="4.58138">
        <ele>105.397</ele>
        <time>2012-11-03T10:01:09Z</time>
      </trkpt>
      <trkpt lat="44.26867" lon="4.58146">
        <ele>105.268</ele>
        <time>2012-11-03T10:01:10Z</time>
      </trkpt>
      <trkpt lat="44.26849" lon="4.58168">
        <ele>104.417</ele>
        <time>2012-11-03T10:01:14Z</time>
      </trkpt>
      <trkpt lat="44.26807" lon="4.58179">
        <ele>100.216</ele>
        <time>2012-11-03T10:01:21Z</time>
      </trkpt>
      <trkpt lat="44.2679" lon="4.58183">
        <ele>98.236</ele>
        <time>2012-11-03T10:01:24Z</time>
      </trkpt>
      <trkpt lat="44.26773" lon="4.58171">
        <ele>96.987</ele>
        <time>2012-11-03T10:01:28Z</time>
      </trkpt>
      <trkpt lat="44.26761" lon="4.58152">
        <ele>96.809</ele>
        <time>2012-11-03T10:01:32Z</time>
      </trkpt>
      <trkpt lat="44.26752" lon="4.58139">
        <ele>96.669</ele>
        <time>2012-11-03T10:01:35Z</time>
      </trkpt>
      <trkpt lat="44.26735" lon="4.58092">
        <ele>96.23</ele>
        <time>2012-11-03T10:01:43Z</time>
      </trkpt>
      <trkpt lat="44.2672" lon="4.5804">
        <ele>95.139</ele>
        <time>2012-11-03T10:01:51Z</time>
      </trkpt>
      <trkpt lat="44.26701" lon="4.5799">
        <ele>95.91</ele>
        <time>2012-11-03T10:01:59Z</time>
      </trkpt>
      <trkpt lat="44.26698" lon="4.57976">
        <ele>96.33</ele>
        <time>2012-11-03T10:02:01Z</time>
      </trkpt>
      <trkpt lat="44.2669" lon="4.57932">
        <ele>99.361</ele>
        <time>2012-11-03T10:02:08Z</time>
      </trkpt>
      <trkpt lat="44.26675" lon="4.57898">
        <ele>101.241</ele>
        <time>2012-11-03T10:02:14Z</time>
      </trkpt>
      <trkpt lat="44.26637" lon="4.5786">
        <ele>101.389</ele>
        <time>2012-11-03T10:02:24Z</time>
      </trkpt>
      <trkpt lat="44.2661" lon="4.57833">
        <ele>101.909</ele>
        <time>2012-11-03T10:02:32Z</time>
      </trkpt>
      <trkpt lat="44.26603" lon="4.57824">
        <ele>102.069</ele>
        <time>2012-11-03T10:02:35Z</time>
      </trkpt>
      <trkpt lat="44.26604" lon="4.57806">
        <ele>102.859</ele>
        <time>2012-11-03T10:02:39Z</time>
      </trkpt>
      <trkpt lat="44.2662" lon="4.57746">
        <ele>104.129</ele>
        <time>2012-11-03T10:02:50Z</time>
      </trkpt>
      <trkpt lat="44.26634" lon="4.57695">
        <ele>104.759</ele>
        <time>2012-11-03T10:02:59Z</time>
      </trkpt>
      <trkpt lat="44.26648" lon="4.57643">
        <ele>105.278</ele>
        <time>2012-11-03T10:03:08Z</time>
      </trkpt>
      <trkpt lat="44.26662" lon="4.57585">
        <ele>105.749</ele>
        <time>2012-11-03T10:03:18Z</time>
      </trkpt>
      <trkpt lat="44.26662" lon="4.57579">
        <ele>105.849</ele>
        <time>2012-11-03T10:03:19Z</time>
      </trkpt>
      <trkpt lat="44.26658" lon="4.5755">
        <ele>106.879</ele>
        <time>2012-11-03T10:03:24Z</time>
      </trkpt>
      <trkpt lat="44.26644" lon="4.57538">
        <ele>107.509</ele>
        <time>2012-11-03T10:03:28Z</time>
      </trkpt>
      <trkpt lat="44.26613" lon="4.57519">
        <ele>109.069</ele>
        <time>2012-11-03T10:03:37Z</time>
      </trkpt>
      <trkpt lat="44.26583" lon="4.57501">
        <ele>110.438</ele>
        <time>2012-11-03T10:03:47Z</time>
      </trkpt>
      <trkpt lat="44.26553" lon="4.57482">
        <ele>111.478</ele>
        <time>2012-11-03T10:03:57Z</time>
      </trkpt>
      <trkpt lat="44.26522" lon="4.57463">
        <ele>112.618</ele>
        <time>2012-11-03T10:04:07Z</time>
      </trkpt>
      <trkpt lat="44.26493" lon="4.57446">
        <ele>114.188</ele>
        <time>2012-11-03T10:04:17Z</time>
      </trkpt>
      <trkpt lat="44.26464" lon="4.57427">
        <ele>115.838</ele>
        <time>2012-11-03T10:04:27Z</time>
      </trkpt>
      <trkpt lat="44.26436" lon="4.57404">
        <ele>117.398</ele>
        <time>2012-11-03T10:04:37Z</time>
      </trkpt>
      <trkpt lat="44.26421" lon="4.57385">
        <ele>118.808</ele>
        <time>2012-11-03T10:04:44Z</time>
      </trkpt>
      <trkpt lat="44.26405" lon="4.57362">
        <ele>121.859</ele>
        <time>2012-11-03T10:04:52Z</time>
      </trkpt>
      <trkpt lat="44.26389" lon="4.57337">
        <ele>123.348</ele>
        <time>2012-11-03T10:05:01Z</time>
      </trkpt>
      <trkpt lat="44.26369" lon="4.57306">
        <ele>124.768</ele>
        <time>2012-11-03T10:05:12Z</time>
      </trkpt>
      <trkpt lat="44.2635" lon="4.57276">
        <ele>125.478</ele>
        <time>2012-11-03T10:05:24Z</time>
      </trkpt>
      <trkpt lat="44.26335" lon="4.57252">
        <ele>126.348</ele>
        <time>2012-11-03T10:05:34Z</time>
      </trkpt>
      <trkpt lat="44.26324" lon="4.57233">
        <ele>127.738</ele>
        <time>2012-11-03T10:05:43Z</time>
      </trkpt>
      <trkpt lat="44.26318" lon="4.57221">
        <ele>128.157</ele>
        <time>2012-11-03T10:05:50Z</time>
      </trkpt>
      <trkpt lat="44.26318" lon="4.5722">
        <ele>127.873</ele>
        <time>2012-11-03T10:05:53Z</time>
      </trkpt>
      <trkpt lat="44.26316" lon="4.57217">
        <ele>127.987</ele>
        <time>2012-11-03T10:05:57Z</time>
      </trkpt>
      <trkpt lat="44.26314" lon="4.57216">
        <ele>127.271</ele>
        <time>2012-11-03T10:06:02Z</time>
      </trkpt>
      <trkpt lat="44.26315" lon="4.57216">
        <ele>121.606</ele>
        <time>2012-11-03T10:08:45Z</time>
      </trkpt>
      <trkpt lat="44.26315" lon="4.57216">
        <ele>121.612</ele>
        <time>2012-11-03T10:08:46Z</time>
      </trkpt>
      <trkpt lat="44.26309" lon="4.5721">
        <ele>121.478</ele>
        <time>2012-11-03T10:08:55Z</time>
      </trkpt>
      <trkpt lat="44.26298" lon="4.57196">
        <ele>124.078</ele>
        <time>2012-11-03T10:09:02Z</time>
      </trkpt>
      <trkpt lat="44.26287" lon="4.5718">
        <ele>126.978</ele>
        <time>2012-11-03T10:09:09Z</time>
      </trkpt>
      <trkpt lat="44.26274" lon="4.57163">
        <ele>129.498</ele>
        <time>2012-11-03T10:09:17Z</time>
      </trkpt>
      <trkpt lat="44.26259" lon="4.5714">
        <ele>131.938</ele>
        <time>2012-11-03T10:09:27Z</time>
      </trkpt>
      <trkpt lat="44.26248" lon="4.57132">
        <ele>133.277</ele>
        <time>2012-11-03T10:09:33Z</time>
      </trkpt>
      <trkpt lat="44.26239" lon="4.57145">
        <ele>132.356</ele>
        <time>2012-11-03T10:09:38Z</time>
      </trkpt>
      <trkpt lat="44.26223" lon="4.57172">
        <ele>129.895</ele>
        <time>2012-11-03T10:09:46Z</time>
      </trkpt>
      <trkpt lat="44.26218" lon="4.57178">
        <ele>129.096</ele>
        <time>2012-11-03T10:09:49Z</time>
      </trkpt>
      <trkpt lat="44.26217" lon="4.57184">
        <ele>128.941</ele>
        <time>2012-11-03T10:09:54Z</time>
      </trkpt>
      <trkpt lat="44.26217" lon="4.57186">
        <ele>129.116</ele>
        <time>2012-11-03T10:09:58Z</time>
      </trkpt>
      <trkpt lat="44.26217" lon="4.5719">
        <ele>127.836</ele>
        <time>2012-11-03T10:10:03Z</time>
      </trkpt>
      <trkpt lat="44.26217" lon="4.57193">
        <ele>127.595</ele>
        <time>2012-11-03T10:10:06Z</time>
      </trkpt>
      <trkpt lat="44.26211" lon="4.57207">
        <ele>126.175</ele>
        <time>2012-11-03T10:10:12Z</time>
      </trkpt>
      <trkpt lat="44.26201" lon="4.57235">
        <ele>125.515</ele>
        <time>2012-11-03T10:10:19Z</time>
      </trkpt>
      <trkpt lat="44.26191" lon="4.5726">
        <ele>125.825</ele>
        <time>2012-11-03T10:10:26Z</time>
      </trkpt>
      <trkpt lat="44.26181" lon="4.57287">
        <ele>126.245</ele>
        <time>2012-11-03T10:10:34Z</time>
      </trkpt>
      <trkpt lat="44.26173" lon="4.57307">
        <ele>125.565</ele>
        <time>2012-11-03T10:10:39Z</time>
      </trkpt>
      <trkpt lat="44.26158" lon="4.57336">
        <ele>124.545</ele>
        <time>2012-11-03T10:10:46Z</time>
      </trkpt>
      <trkpt lat="44.2614" lon="4.57364">
        <ele>123.955</ele>
        <time>2012-11-03T10:10:54Z</time>
      </trkpt>
      <trkpt lat="44.2612" lon="4.57384">
        <ele>121.825</ele>
        <time>2012-11-03T10:11:01Z</time>
      </trkpt>
      <trkpt lat="44.26099" lon="4.57403">
        <ele>120.636</ele>
        <time>2012-11-03T10:11:08Z</time>
      </trkpt>
      <trkpt lat="44.26089" lon="4.57417">
        <ele>119.975</ele>
        <time>2012-11-03T10:11:13Z</time>
      </trkpt>
      <trkpt lat="44.26088" lon="4.57419">
        <ele>119.965</ele>
        <time>2012-11-03T10:11:14Z</time>
      </trkpt>
      <trkpt lat="44.26086" lon="4.5742">
        <ele>119.961</ele>
        <time>2012-11-03T10:11:17Z</time>
      </trkpt>
      <trkpt lat="44.26082" lon="4.57421">
        <ele>120.376</ele>
        <time>2012-11-03T10:11:26Z</time>
      </trkpt>
      <trkpt lat="44.26079" lon="4.57419">
        <ele>120.777</ele>
        <time>2012-11-03T10:11:28Z</time>
      </trkpt>
      <trkpt lat="44.26074" lon="4.57405">
        <ele>122.438</ele>
        <time>2012-11-03T10:11:34Z</time>
      </trkpt>
      <trkpt lat="44.26059" lon="4.57382">
        <ele>125.837</ele>
        <time>2012-11-03T10:11:44Z</time>
      </trkpt>
      <trkpt lat="44.26045" lon="4.57369">
        <ele>127.607</ele>
        <time>2012-11-03T10:11:52Z</time>
      </trkpt>
      <trkpt lat="44.26032" lon="4.57363">
        <ele>129.547</ele>
        <time>2012-11-03T10:11:59Z</time>
      </trkpt>
      <trkpt lat="44.26025" lon="4.57359">
        <ele>130.537</ele>
        <time>2012-11-03T10:12:03Z</time>
      </trkpt>
      <trkpt lat="44.26026" lon="4.57353">
        <ele>131.166</ele>
        <time>2012-11-03T10:12:08Z</time>
      </trkpt>
      <trkpt lat="44.26035" lon="4.57347">
        <ele>131.336</ele>
        <time>2012-11-03T10:12:16Z</time>
      </trkpt>
      <trkpt lat="44.26037" lon="4.57344">
        <ele>131.206</ele>
        <time>2012-11-03T10:12:18Z</time>
      </trkpt>
      <trkpt lat="44.26034" lon="4.57334">
        <ele>133.378</ele>
        <time>2012-11-03T10:12:23Z</time>
      </trkpt>
      <trkpt lat="44.26032" lon="4.57329">
        <ele>134.451</ele>
        <time>2012-11-03T10:12:28Z</time>
      </trkpt>
      <trkpt lat="44.26031" lon="4.57326">
        <ele>136.427</ele>
        <time>2012-11-03T10:12:32Z</time>
      </trkpt>
      <trkpt lat="44.2603" lon="4.57324">
        <ele>136.829</ele>
        <time>2012-11-03T10:12:35Z</time>
      </trkpt>
      <trkpt lat="44.26028" lon="4.5732">
        <ele>137.846</ele>
        <time>2012-11-03T10:12:41Z</time>
      </trkpt>
      <trkpt lat="44.26028" lon="4.57319">
        <ele>138.095</ele>
        <time>2012-11-03T10:12:43Z</time>
      </trkpt>
      <trkpt lat="44.26027" lon="4.57315">
        <ele>138.986</ele>
        <time>2012-11-03T10:12:48Z</time>
      </trkpt>
      <trkpt lat="44.26025" lon="4.57311">
        <ele>139.683</ele>
        <time>2012-11-03T10:12:52Z</time>
      </trkpt>
      <trkpt lat="44.26029" lon="4.57315">
        <ele>154.426</ele>
        <time>2012-11-03T10:13:06Z</time>
      </trkpt>
      <trkpt lat="44.26021" lon="4.57307">
        <ele>142.306</ele>
        <time>2012-11-03T10:13:27Z</time>
      </trkpt>
      <trkpt lat="44.26016" lon="4.57298">
        <ele>142.376</ele>
        <time>2012-11-03T10:13:35Z</time>
      </trkpt>
      <trkpt lat="44.26016" lon="4.57297">
        <ele>142.113</ele>
        <time>2012-11-03T10:13:37Z</time>
      </trkpt>
      <trkpt lat="44.26013" lon="4.57291">
        <ele>142.466</ele>
        <time>2012-11-03T10:13:43Z</time>
      </trkpt>
      <trkpt lat="44.26011" lon="4.57286">
        <ele>140.515</ele>
        <time>2012-11-03T10:13:48Z</time>
      </trkpt>
      <trkpt lat="44.26004" lon="4.57279">
        <ele>141.697</ele>
        <time>2012-11-03T10:13:54Z</time>
      </trkpt>
      <trkpt lat="44.26003" lon="4.57277">
        <ele>142.3</ele>
        <time>2012-11-03T10:13:57Z</time>
      </trkpt>
      <trkpt lat="44.26001" lon="4.57275">
        <ele>142.866</ele>
        <time>2012-11-03T10:14:03Z</time>
      </trkpt>
      <trkpt lat="44.25999" lon="4.57273">
        <ele>143.726</ele>
        <time>2012-11-03T10:14:08Z</time>
      </trkpt>
      <trkpt lat="44.25999" lon="4.57273">
        <ele>143.829</ele>
        <time>2012-11-03T10:14:09Z</time>
      </trkpt>
      <trkpt lat="44.25997" lon="4.57271">
        <ele>146.832</ele>
        <time>2012-11-03T10:14:24Z</time>
      </trkpt>
      <trkpt lat="44.25996" lon="4.57267">
        <ele>146.446</ele>
        <time>2012-11-03T10:14:31Z</time>
      </trkpt>
      <trkpt lat="44.25991" lon="4.57262">
        <ele>148.147</ele>
        <time>2012-11-03T10:14:39Z</time>
      </trkpt>
      <trkpt lat="44.25987" lon="4.57256">
        <ele>149.707</ele>
        <time>2012-11-03T10:14:47Z</time>
      </trkpt>
      <trkpt lat="44.25985" lon="4.57254">
        <ele>149.716</ele>
        <time>2012-11-03T10:14:50Z</time>
      </trkpt>
      <trkpt lat="44.2598" lon="4.5725">
        <ele>151.327</ele>
        <time>2012-11-03T10:14:59Z</time>
      </trkpt>
      <trkpt lat="44.25978" lon="4.57247">
        <ele>152.387</ele>
        <time>2012-11-03T10:15:04Z</time>
      </trkpt>
      <trkpt lat="44.25976" lon="4.57243">
        <ele>152.746</ele>
        <time>2012-11-03T10:15:09Z</time>
      </trkpt>
      <trkpt lat="44.25974" lon="4.57241">
        <ele>153.171</ele>
        <time>2012-11-03T10:15:14Z</time>
      </trkpt>
      <trkpt lat="44.2597" lon="4.57237">
        <ele>154.507</ele>
        <time>2012-11-03T10:15:34Z</time>
      </trkpt>
      <trkpt lat="44.2597" lon="4.57237">
        <ele>154.589</ele>
        <time>2012-11-03T10:15:35Z</time>
      </trkpt>
      <trkpt lat="44.25964" lon="4.57232">
        <ele>155.087</ele>
        <time>2012-11-03T10:15:42Z</time>
      </trkpt>
      <trkpt lat="44.25956" lon="4.57222">
        <ele>156.857</ele>
        <time>2012-11-03T10:15:47Z</time>
      </trkpt>
      <trkpt lat="44.25947" lon="4.57211">
        <ele>158.307</ele>
        <time>2012-11-03T10:15:53Z</time>
      </trkpt>
      <trkpt lat="44.25942" lon="4.57195">
        <ele>161.278</ele>
        <time>2012-11-03T10:16:00Z</time>
      </trkpt>
      <trkpt lat="44.25939" lon="4.57183">
        <ele>163.008</ele>
        <time>2012-11-03T10:16:06Z</time>
      </trkpt>
      <trkpt lat="44.25933" lon="4.57173">
        <ele>165.468</ele>
        <time>2012-11-03T10:16:13Z</time>
      </trkpt>
      <trkpt lat="44.25932" lon="4.57171">
        <ele>165.894</ele>
        <time>2012-11-03T10:16:16Z</time>
      </trkpt>
      <trkpt lat="44.25931" lon="4.57168">
        <ele>165.436</ele>
        <time>2012-11-03T10:16:26Z</time>
      </trkpt>
      <trkpt lat="44.2593" lon="4.57164">
        <ele>166.216</ele>
        <time>2012-11-03T10:16:32Z</time>
      </trkpt>
      <trkpt lat="44.25928" lon="4.57155">
        <ele>167.496</ele>
        <time>2012-11-03T10:16:41Z</time>
      </trkpt>
      <trkpt lat="44.25928" lon="4.57154">
        <ele>167.74</ele>
        <time>2012-11-03T10:16:43Z</time>
      </trkpt>
      <trkpt lat="44.25927" lon="4.57152">
        <ele>167.616</ele>
        <time>2012-11-03T10:16:46Z</time>
      </trkpt>
      <trkpt lat="44.25923" lon="4.57145">
        <ele>169.427</ele>
        <time>2012-11-03T10:16:52Z</time>
      </trkpt>
      <trkpt lat="44.2592" lon="4.57141">
        <ele>170.387</ele>
        <time>2012-11-03T10:16:58Z</time>
      </trkpt>
      <trkpt lat="44.25918" lon="4.57138">
        <ele>170.696</ele>
        <time>2012-11-03T10:17:01Z</time>
      </trkpt>
      <trkpt lat="44.25912" lon="4.57126">
        <ele>172.787</ele>
        <time>2012-11-03T10:17:07Z</time>
      </trkpt>
      <trkpt lat="44.25906" lon="4.5711">
        <ele>174.797</ele>
        <time>2012-11-03T10:17:14Z</time>
      </trkpt>
      <trkpt lat="44.25901" lon="4.57099">
        <ele>175.737</ele>
        <time>2012-11-03T10:17:20Z</time>
      </trkpt>
      <trkpt lat="44.25895" lon="4.57088">
        <ele>177.718</ele>
        <time>2012-11-03T10:17:26Z</time>
      </trkpt>
      <trkpt lat="44.25888" lon="4.57075">
        <ele>179.727</ele>
        <time>2012-11-03T10:17:34Z</time>
      </trkpt>
      <trkpt lat="44.25882" lon="4.57061">
        <ele>179.977</ele>
        <time>2012-11-03T10:17:42Z</time>
      </trkpt>
      <trkpt lat="44.25879" lon="4.57051">
        <ele>180.236</ele>
        <time>2012-11-03T10:17:47Z</time>
      </trkpt>
      <trkpt lat="44.25872" lon="4.5704">
        <ele>180.065</ele>
        <time>2012-11-03T10:17:54Z</time>
      </trkpt>
      <trkpt lat="44.25866" lon="4.57033">
        <ele>181.187</ele>
        <time>2012-11-03T10:17:59Z</time>
      </trkpt>
      <trkpt lat="44.2586" lon="4.57022">
        <ele>182.816</ele>
        <time>2012-11-03T10:18:06Z</time>
      </trkpt>
      <trkpt lat="44.25855" lon="4.57012">
        <ele>183.147</ele>
        <time>2012-11-03T10:18:13Z</time>
      </trkpt>
      <trkpt lat="44.25849" lon="4.57002">
        <ele>185.567</ele>
        <time>2012-11-03T10:18:20Z</time>
      </trkpt>
      <trkpt lat="44.25847" lon="4.56994">
        <ele>186.447</ele>
        <time>2012-11-03T10:18:25Z</time>
      </trkpt>
      <trkpt lat="44.2584" lon="4.56983">
        <ele>188.737</ele>
        <time>2012-11-03T10:18:33Z</time>
      </trkpt>
      <trkpt lat="44.25833" lon="4.56968">
        <ele>189.666</ele>
        <time>2012-11-03T10:18:42Z</time>
      </trkpt>
      <trkpt lat="44.25827" lon="4.56956">
        <ele>191.116</ele>
        <time>2012-11-03T10:18:50Z</time>
      </trkpt>
      <trkpt lat="44.25821" lon="4.56946">
        <ele>193.107</ele>
        <time>2012-11-03T10:18:57Z</time>
      </trkpt>
      <trkpt lat="44.25814" lon="4.56935">
        <ele>194.486</ele>
        <time>2012-11-03T10:19:05Z</time>
      </trkpt>
      <trkpt lat="44.25811" lon="4.5692">
        <ele>196.647</ele>
        <time>2012-11-03T10:19:13Z</time>
      </trkpt>
      <trkpt lat="44.25807" lon="4.56908">
        <ele>198.207</ele>
        <time>2012-11-03T10:19:20Z</time>
      </trkpt>
      <trkpt lat="44.25807" lon="4.56892">
        <ele>197.056</ele>
        <time>2012-11-03T10:19:28Z</time>
      </trkpt>
      <trkpt lat="44.25808" lon="4.56873">
        <ele>196.295</ele>
        <time>2012-11-03T10:19:36Z</time>
      </trkpt>
      <trkpt lat="44.2581" lon="4.5686">
        <ele>195.495</ele>
        <time>2012-11-03T10:19:43Z</time>
      </trkpt>
      <trkpt lat="44.25812" lon="4.56854">
        <ele>195.475</ele>
        <time>2012-11-03T10:19:47Z</time>
      </trkpt>
      <trkpt lat="44.25808" lon="4.56836">
        <ele>197.367</ele>
        <time>2012-11-03T10:19:55Z</time>
      </trkpt>
      <trkpt lat="44.25807" lon="4.56818">
        <ele>196.154</ele>
        <time>2012-11-03T10:20:03Z</time>
      </trkpt>
      <trkpt lat="44.25803" lon="4.56805">
        <ele>198.296</ele>
        <time>2012-11-03T10:20:10Z</time>
      </trkpt>
      <trkpt lat="44.25795" lon="4.56793">
        <ele>201.326</ele>
        <time>2012-11-03T10:20:17Z</time>
      </trkpt>
      <trkpt lat="44.25787" lon="4.56783">
        <ele>204.266</ele>
        <time>2012-11-03T10:20:24Z</time>
      </trkpt>
      <trkpt lat="44.2578" lon="4.56774">
        <ele>205.757</ele>
        <time>2012-11-03T10:20:30Z</time>
      </trkpt>
      <trkpt lat="44.25777" lon="4.56768">
        <ele>207.297</ele>
        <time>2012-11-03T10:20:34Z</time>
      </trkpt>
      <trkpt lat="44.25772" lon="4.56751">
        <ele>211.797</ele>
        <time>2012-11-03T10:20:43Z</time>
      </trkpt>
      <trkpt lat="44.2577" lon="4.56741">
        <ele>214.927</ele>
        <time>2012-11-03T10:20:49Z</time>
      </trkpt>
      <trkpt lat="44.25769" lon="4.5674">
        <ele>215.097</ele>
        <time>2012-11-03T10:20:50Z</time>
      </trkpt>
      <trkpt lat="44.25759" lon="4.56732">
        <ele>216.716</ele>
        <time>2012-11-03T10:20:58Z</time>
      </trkpt>
      <trkpt lat="44.25747" lon="4.56725">
        <ele>216.306</ele>
        <time>2012-11-03T10:21:06Z</time>
      </trkpt>
      <trkpt lat="44.25739" lon="4.56715">
        <ele>215.785</ele>
        <time>2012-11-03T10:21:13Z</time>
      </trkpt>
      <trkpt lat="44.25729" lon="4.56702">
        <ele>217.996</ele>
        <time>2012-11-03T10:21:22Z</time>
      </trkpt>
      <trkpt lat="44.25722" lon="4.56691">
        <ele>220.036</ele>
        <time>2012-11-03T10:21:29Z</time>
      </trkpt>
      <trkpt lat="44.25715" lon="4.5668">
        <ele>221.215</ele>
        <time>2012-11-03T10:21:36Z</time>
      </trkpt>
      <trkpt lat="44.25709" lon="4.56668">
        <ele>220.866</ele>
        <time>2012-11-03T10:21:43Z</time>
      </trkpt>
      <trkpt lat="44.25704" lon="4.5666">
        <ele>222.266</ele>
        <time>2012-11-03T10:21:49Z</time>
      </trkpt>
      <trkpt lat="44.25699" lon="4.56652">
        <ele>223.248</ele>
        <time>2012-11-03T10:21:55Z</time>
      </trkpt>
      <trkpt lat="44.25699" lon="4.56652">
        <ele>223.094</ele>
        <time>2012-11-03T10:21:56Z</time>
      </trkpt>
      <trkpt lat="44.25698" lon="4.56644">
        <ele>222.872</ele>
        <time>2012-11-03T10:22:05Z</time>
      </trkpt>
      <trkpt lat="44.25691" lon="4.56637">
        <ele>222.887</ele>
        <time>2012-11-03T10:22:12Z</time>
      </trkpt>
      <trkpt lat="44.25689" lon="4.56635">
        <ele>222.523</ele>
        <time>2012-11-03T10:22:16Z</time>
      </trkpt>
      <trkpt lat="44.25678" lon="4.56628">
        <ele>224.063</ele>
        <time>2012-11-03T10:22:23Z</time>
      </trkpt>
      <trkpt lat="44.25668" lon="4.56618">
        <ele>226.057</ele>
        <time>2012-11-03T10:22:30Z</time>
      </trkpt>
      <trkpt lat="44.25659" lon="4.56608">
        <ele>227.478</ele>
        <time>2012-11-03T10:22:37Z</time>
      </trkpt>
      <trkpt lat="44.25651" lon="4.566">
        <ele>227.441</ele>
        <time>2012-11-03T10:22:43Z</time>
      </trkpt>
      <trkpt lat="44.25641" lon="4.56591">
        <ele>228.665</ele>
        <time>2012-11-03T10:22:50Z</time>
      </trkpt>
      <trkpt lat="44.25632" lon="4.56583">
        <ele>228.628</ele>
        <time>2012-11-03T10:22:56Z</time>
      </trkpt>
      <trkpt lat="44.25623" lon="4.56576">
        <ele>229.994</ele>
        <time>2012-11-03T10:23:02Z</time>
      </trkpt>
      <trkpt lat="44.25614" lon="4.56569">
        <ele>228.915</ele>
        <time>2012-11-03T10:23:08Z</time>
      </trkpt>
      <trkpt lat="44.25605" lon="4.56561">
        <ele>227.335</ele>
        <time>2012-11-03T10:23:14Z</time>
      </trkpt>
      <trkpt lat="44.25598" lon="4.56552">
        <ele>226.344</ele>
        <time>2012-11-03T10:23:20Z</time>
      </trkpt>
      <trkpt lat="44.25588" lon="4.56538">
        <ele>224.514</ele>
        <time>2012-11-03T10:23:27Z</time>
      </trkpt>
      <trkpt lat="44.25574" lon="4.56517">
        <ele>224.985</ele>
        <time>2012-11-03T10:23:37Z</time>
      </trkpt>
      <trkpt lat="44.25562" lon="4.56499">
        <ele>227.204</ele>
        <time>2012-11-03T10:23:45Z</time>
      </trkpt>
      <trkpt lat="44.25551" lon="4.56483">
        <ele>229.275</ele>
        <time>2012-11-03T10:23:53Z</time>
      </trkpt>
      <trkpt lat="44.25543" lon="4.56471">
        <ele>230.614</ele>
        <time>2012-11-03T10:23:59Z</time>
      </trkpt>
      <trkpt lat="44.25532" lon="4.56462">
        <ele>233.295</ele>
        <time>2012-11-03T10:24:05Z</time>
      </trkpt>
      <trkpt lat="44.25523" lon="4.56454">
        <ele>233.114</ele>
        <time>2012-11-03T10:24:11Z</time>
      </trkpt>
      <trkpt lat="44.25509" lon="4.56449">
        <ele>233.834</ele>
        <time>2012-11-03T10:24:18Z</time>
      </trkpt>
      <trkpt lat="44.25502" lon="4.56441">
        <ele>234.285</ele>
        <time>2012-11-03T10:24:24Z</time>
      </trkpt>
      <trkpt lat="44.25499" lon="4.56434">
        <ele>234.004</ele>
        <time>2012-11-03T10:24:29Z</time>
      </trkpt>
      <trkpt lat="44.25498" lon="4.56431">
        <ele>234.234</ele>
        <time>2012-11-03T10:24:33Z</time>
      </trkpt>
      <trkpt lat="44.25497" lon="4.56427">
        <ele>234.353</ele>
        <time>2012-11-03T10:24:39Z</time>
      </trkpt>
      <trkpt lat="44.25494" lon="4.56421">
        <ele>234.304</ele>
        <time>2012-11-03T10:24:46Z</time>
      </trkpt>
      <trkpt lat="44.25494" lon="4.56418">
        <ele>234.224</ele>
        <time>2012-11-03T10:24:48Z</time>
      </trkpt>
      <trkpt lat="44.25492" lon="4.56412">
        <ele>235.63</ele>
        <time>2012-11-03T10:24:55Z</time>
      </trkpt>
      <trkpt lat="44.25489" lon="4.56407">
        <ele>236.894</ele>
        <time>2012-11-03T10:25:00Z</time>
      </trkpt>
      <trkpt lat="44.25488" lon="4.56402">
        <ele>238.155</ele>
        <time>2012-11-03T10:25:02Z</time>
      </trkpt>
      <trkpt lat="44.25483" lon="4.56392">
        <ele>240.274</ele>
        <time>2012-11-03T10:25:07Z</time>
      </trkpt>
      <trkpt lat="44.25476" lon="4.56382">
        <ele>242.554</ele>
        <time>2012-11-03T10:25:13Z</time>
      </trkpt>
      <trkpt lat="44.25474" lon="4.56378">
        <ele>243.603</ele>
        <time>2012-11-03T10:25:17Z</time>
      </trkpt>
      <trkpt lat="44.25463" lon="4.56364">
        <ele>238.333</ele>
        <time>2012-11-03T10:25:52Z</time>
      </trkpt>
      <trkpt lat="44.2546" lon="4.56363">
        <ele>238.667</ele>
        <time>2012-11-03T10:25:57Z</time>
      </trkpt>
      <trkpt lat="44.25458" lon="4.56358">
        <ele>232.389</ele>
        <time>2012-11-03T10:26:27Z</time>
      </trkpt>
      <trkpt lat="44.25458" lon="4.56357">
        <ele>226.302</ele>
        <time>2012-11-03T10:27:05Z</time>
      </trkpt>
      <trkpt lat="44.25457" lon="4.56349">
        <ele>227.493</ele>
        <time>2012-11-03T10:27:12Z</time>
      </trkpt>
      <trkpt lat="44.25455" lon="4.56346">
        <ele>228.459</ele>
        <time>2012-11-03T10:27:16Z</time>
      </trkpt>
      <trkpt lat="44.25451" lon="4.56341">
        <ele>229.532</ele>
        <time>2012-11-03T10:27:26Z</time>
      </trkpt>
      <trkpt lat="44.25447" lon="4.56335">
        <ele>230.824</ele>
        <time>2012-11-03T10:27:31Z</time>
      </trkpt>
      <trkpt lat="44.25437" lon="4.5632">
        <ele>234.214</ele>
        <time>2012-11-03T10:27:39Z</time>
      </trkpt>
      <trkpt lat="44.25428" lon="4.56308">
        <ele>237.294</ele>
        <time>2012-11-03T10:27:46Z</time>
      </trkpt>
      <trkpt lat="44.25417" lon="4.56291">
        <ele>242.365</ele>
        <time>2012-11-03T10:27:55Z</time>
      </trkpt>
      <trkpt lat="44.25409" lon="4.56276">
        <ele>244.904</ele>
        <time>2012-11-03T10:28:02Z</time>
      </trkpt>
      <trkpt lat="44.25408" lon="4.5627">
        <ele>245.174</ele>
        <time>2012-11-03T10:28:04Z</time>
      </trkpt>
      <trkpt lat="44.25407" lon="4.56259">
        <ele>245.883</ele>
        <time>2012-11-03T10:28:08Z</time>
      </trkpt>
      <trkpt lat="44.25402" lon="4.56242">
        <ele>248.093</ele>
        <time>2012-11-03T10:28:15Z</time>
      </trkpt>
      <trkpt lat="44.25391" lon="4.56226">
        <ele>247.173</ele>
        <time>2012-11-03T10:28:23Z</time>
      </trkpt>
      <trkpt lat="44.25379" lon="4.56217">
        <ele>246.772</ele>
        <time>2012-11-03T10:28:31Z</time>
      </trkpt>
      <trkpt lat="44.25368" lon="4.56214">
        <ele>246.612</ele>
        <time>2012-11-03T10:28:38Z</time>
      </trkpt>
      <trkpt lat="44.25366" lon="4.56211">
        <ele>246.461</ele>
        <time>2012-11-03T10:28:40Z</time>
      </trkpt>
      <trkpt lat="44.25367" lon="4.56205">
        <ele>246.191</ele>
        <time>2012-11-03T10:28:44Z</time>
      </trkpt>
      <trkpt lat="44.25372" lon="4.56188">
        <ele>243.62</ele>
        <time>2012-11-03T10:28:51Z</time>
      </trkpt>
      <trkpt lat="44.25374" lon="4.5618">
        <ele>243.021</ele>
        <time>2012-11-03T10:28:54Z</time>
      </trkpt>
      <trkpt lat="44.25382" lon="4.56167">
        <ele>241.832</ele>
        <time>2012-11-03T10:29:00Z</time>
      </trkpt>
      <trkpt lat="44.25386" lon="4.56152">
        <ele>242.782</ele>
        <time>2012-11-03T10:29:07Z</time>
      </trkpt>
      <trkpt lat="44.25385" lon="4.56147">
        <ele>241.161</ele>
        <time>2012-11-03T10:29:10Z</time>
      </trkpt>
      <trkpt lat="44.25387" lon="4.56146">
        <ele>240.139</ele>
        <time>2012-11-03T10:29:13Z</time>
      </trkpt>
      <trkpt lat="44.25388" lon="4.56142">
        <ele>239.175</ele>
        <time>2012-11-03T10:29:21Z</time>
      </trkpt>
      <trkpt lat="44.25391" lon="4.5614">
        <ele>238.691</ele>
        <time>2012-11-03T10:29:28Z</time>
      </trkpt>
      <trkpt lat="44.25393" lon="4.56124">
        <ele>233.902</ele>
        <time>2012-11-03T10:30:00Z</time>
      </trkpt>
      <trkpt lat="44.25396" lon="4.56122">
        <ele>234.751</ele>
        <time>2012-11-03T10:30:08Z</time>
      </trkpt>
      <trkpt lat="44.25396" lon="4.56115">
        <ele>231.066</ele>
        <time>2012-11-03T10:30:18Z</time>
      </trkpt>
      <trkpt lat="44.25398" lon="4.5611">
        <ele>229.88</ele>
        <time>2012-11-03T10:30:23Z</time>
      </trkpt>
      <trkpt lat="44.25398" lon="4.56105">
        <ele>226.709</ele>
        <time>2012-11-03T10:30:28Z</time>
      </trkpt>
      <trkpt lat="44.25402" lon="4.561">
        <ele>224.684</ele>
        <time>2012-11-03T10:30:36Z</time>
      </trkpt>
      <trkpt lat="44.25404" lon="4.56087">
        <ele>222.48</ele>
        <time>2012-11-03T10:30:47Z</time>
      </trkpt>
      <trkpt lat="44.25407" lon="4.56079">
        <ele>219.36</ele>
        <time>2012-11-03T10:30:53Z</time>
      </trkpt>
      <trkpt lat="44.25408" lon="4.56076">
        <ele>218.908</ele>
        <time>2012-11-03T10:30:55Z</time>
      </trkpt>
      <trkpt lat="44.25411" lon="4.56069">
        <ele>216.74</ele>
        <time>2012-11-03T10:30:59Z</time>
      </trkpt>
      <trkpt lat="44.25417" lon="4.56057">
        <ele>214.249</ele>
        <time>2012-11-03T10:31:05Z</time>
      </trkpt>
      <trkpt lat="44.25419" lon="4.56054">
        <ele>214.366</ele>
        <time>2012-11-03T10:31:08Z</time>
      </trkpt>
      <trkpt lat="44.25421" lon="4.56047">
        <ele>211.73</ele>
        <time>2012-11-03T10:31:17Z</time>
      </trkpt>
      <trkpt lat="44.25421" lon="4.56046">
        <ele>212.016</ele>
        <time>2012-11-03T10:31:19Z</time>
      </trkpt>
      <trkpt lat="44.25424" lon="4.56032">
        <ele>214.242</ele>
        <time>2012-11-03T10:31:31Z</time>
      </trkpt>
      <trkpt lat="44.25425" lon="4.56029">
        <ele>217.165</ele>
        <time>2012-11-03T10:31:33Z</time>
      </trkpt>
      <trkpt lat="44.25431" lon="4.56018">
        <ele>213.081</ele>
        <time>2012-11-03T10:31:49Z</time>
      </trkpt>
      <trkpt lat="44.25432" lon="4.56014">
        <ele>211.301</ele>
        <time>2012-11-03T10:31:54Z</time>
      </trkpt>
      <trkpt lat="44.25434" lon="4.56005">
        <ele>211.311</ele>
        <time>2012-11-03T10:31:59Z</time>
      </trkpt>
      <trkpt lat="44.2544" lon="4.55995">
        <ele>211.642</ele>
        <time>2012-11-03T10:32:04Z</time>
      </trkpt>
      <trkpt lat="44.25444" lon="4.55979">
        <ele>209.061</ele>
        <time>2012-11-03T10:32:08Z</time>
      </trkpt>
      <trkpt lat="44.25445" lon="4.55972">
        <ele>208.691</ele>
        <time>2012-11-03T10:32:12Z</time>
      </trkpt>
      <trkpt lat="44.25445" lon="4.5596">
        <ele>208.076</ele>
        <time>2012-11-03T10:34:37Z</time>
      </trkpt>
      <trkpt lat="44.25441" lon="4.55947">
        <ele>207.622</ele>
        <time>2012-11-03T10:34:45Z</time>
      </trkpt>
      <trkpt lat="44.25432" lon="4.55936">
        <ele>207.472</ele>
        <time>2012-11-03T10:34:51Z</time>
      </trkpt>
      <trkpt lat="44.25425" lon="4.55923">
        <ele>208.622</ele>
        <time>2012-11-03T10:34:56Z</time>
      </trkpt>
      <trkpt lat="44.2542" lon="4.55917">
        <ele>208.823</ele>
        <time>2012-11-03T10:34:59Z</time>
      </trkpt>
      <trkpt lat="44.25412" lon="4.55904">
        <ele>206.873</ele>
        <time>2012-11-03T10:35:05Z</time>
      </trkpt>
      <trkpt lat="44.25411" lon="4.55902">
        <ele>207.933</ele>
        <time>2012-11-03T10:35:06Z</time>
      </trkpt>
      <trkpt lat="44.25407" lon="4.55894">
        <ele>210.484</ele>
        <time>2012-11-03T10:35:10Z</time>
      </trkpt>
      <trkpt lat="44.25406" lon="4.55886">
        <ele>211.493</ele>
        <time>2012-11-03T10:35:16Z</time>
      </trkpt>
      <trkpt lat="44.25405" lon="4.55881">
        <ele>215.513</ele>
        <time>2012-11-03T10:35:27Z</time>
      </trkpt>
      <trkpt lat="44.254" lon="4.5587">
        <ele>213.052</ele>
        <time>2012-11-03T10:35:40Z</time>
      </trkpt>
      <trkpt lat="44.25398" lon="4.55866">
        <ele>213.152</ele>
        <time>2012-11-03T10:35:46Z</time>
      </trkpt>
      <trkpt lat="44.25399" lon="4.55856">
        <ele>216.253</ele>
        <time>2012-11-03T10:35:51Z</time>
      </trkpt>
      <trkpt lat="44.25396" lon="4.55843">
        <ele>220.824</ele>
        <time>2012-11-03T10:35:57Z</time>
      </trkpt>
      <trkpt lat="44.25395" lon="4.55829">
        <ele>223.704</ele>
        <time>2012-11-03T10:36:03Z</time>
      </trkpt>
      <trkpt lat="44.25395" lon="4.5582">
        <ele>222.502</ele>
        <time>2012-11-03T10:36:08Z</time>
      </trkpt>
      <trkpt lat="44.25394" lon="4.55811">
        <ele>223.166</ele>
        <time>2012-11-03T10:36:22Z</time>
      </trkpt>
      <trkpt lat="44.25386" lon="4.55802">
        <ele>217.903</ele>
        <time>2012-11-03T10:37:43Z</time>
      </trkpt>
      <trkpt lat="44.25382" lon="4.5579">
        <ele>217.022</ele>
        <time>2012-11-03T10:37:52Z</time>
      </trkpt>
      <trkpt lat="44.25377" lon="4.55778">
        <ele>217.822</ele>
        <time>2012-11-03T10:37:59Z</time>
      </trkpt>
      <trkpt lat="44.25373" lon="4.55769">
        <ele>219.423</ele>
        <time>2012-11-03T10:38:04Z</time>
      </trkpt>
      <trkpt lat="44.25372" lon="4.55768">
        <ele>219.963</ele>
        <time>2012-11-03T10:38:05Z</time>
      </trkpt>
      <trkpt lat="44.25367" lon="4.55754">
        <ele>220.602</ele>
        <time>2012-11-03T10:38:12Z</time>
      </trkpt>
      <trkpt lat="44.25361" lon="4.55744">
        <ele>222.443</ele>
        <time>2012-11-03T10:38:17Z</time>
      </trkpt>
      <trkpt lat="44.25355" lon="4.55729">
        <ele>226.234</ele>
        <time>2012-11-03T10:38:25Z</time>
      </trkpt>
      <trkpt lat="44.25353" lon="4.55717">
        <ele>227.223</ele>
        <time>2012-11-03T10:38:31Z</time>
      </trkpt>
      <trkpt lat="44.25347" lon="4.557">
        <ele>231.615</ele>
        <time>2012-11-03T10:38:39Z</time>
      </trkpt>
      <trkpt lat="44.25345" lon="4.55686">
        <ele>232.314</ele>
        <time>2012-11-03T10:38:45Z</time>
      </trkpt>
      <trkpt lat="44.25345" lon="4.55676">
        <ele>230.503</ele>
        <time>2012-11-03T10:38:49Z</time>
      </trkpt>
      <trkpt lat="44.25343" lon="4.55668">
        <ele>229.522</ele>
        <time>2012-11-03T10:38:53Z</time>
      </trkpt>
      <trkpt lat="44.25343" lon="4.55664">
        <ele>229.153</ele>
        <time>2012-11-03T10:38:56Z</time>
      </trkpt>
      <trkpt lat="44.25334" lon="4.55652">
        <ele>227.29</ele>
        <time>2012-11-03T10:39:04Z</time>
      </trkpt>
      <trkpt lat="44.25323" lon="4.5564">
        <ele>231.602</ele>
        <time>2012-11-03T10:39:10Z</time>
      </trkpt>
      <trkpt lat="44.25316" lon="4.55632">
        <ele>233.003</ele>
        <time>2012-11-03T10:39:16Z</time>
      </trkpt>
      <trkpt lat="44.25314" lon="4.55629">
        <ele>232.312</ele>
        <time>2012-11-03T10:39:18Z</time>
      </trkpt>
      <trkpt lat="44.25305" lon="4.55621">
        <ele>233.732</ele>
        <time>2012-11-03T10:39:25Z</time>
      </trkpt>
      <trkpt lat="44.25297" lon="4.55612">
        <ele>236.133</ele>
        <time>2012-11-03T10:39:32Z</time>
      </trkpt>
      <trkpt lat="44.25288" lon="4.556">
        <ele>239.063</ele>
        <time>2012-11-03T10:39:40Z</time>
      </trkpt>
      <trkpt lat="44.25286" lon="4.55598">
        <ele>239.454</ele>
        <time>2012-11-03T10:39:41Z</time>
      </trkpt>
      <trkpt lat="44.2528" lon="4.5559">
        <ele>241.352</ele>
        <time>2012-11-03T10:39:47Z</time>
      </trkpt>
      <trkpt lat="44.25271" lon="4.55581">
        <ele>244.042</ele>
        <time>2012-11-03T10:39:54Z</time>
      </trkpt>
      <trkpt lat="44.25263" lon="4.55572">
        <ele>248.132</ele>
        <time>2012-11-03T10:40:00Z</time>
      </trkpt>
      <trkpt lat="44.25259" lon="4.55568">
        <ele>249.173</ele>
        <time>2012-11-03T10:40:02Z</time>
      </trkpt>
      <trkpt lat="44.2525" lon="4.55561">
        <ele>249.102</ele>
        <time>2012-11-03T10:40:08Z</time>
      </trkpt>
      <trkpt lat="44.25246" lon="4.55559">
        <ele>248.521</ele>
        <time>2012-11-03T10:40:11Z</time>
      </trkpt>
      <trkpt lat="44.25244" lon="4.55557">
        <ele>248.491</ele>
        <time>2012-11-03T10:40:13Z</time>
      </trkpt>
      <trkpt lat="44.25238" lon="4.55551">
        <ele>247.661</ele>
        <time>2012-11-03T10:40:17Z</time>
      </trkpt>
      <trkpt lat="44.25235" lon="4.55542">
        <ele>248.031</ele>
        <time>2012-11-03T10:40:22Z</time>
      </trkpt>
      <trkpt lat="44.25224" lon="4.55537">
        <ele>250.432</ele>
        <time>2012-11-03T10:40:28Z</time>
      </trkpt>
      <trkpt lat="44.2521" lon="4.55532">
        <ele>252.222</ele>
        <time>2012-11-03T10:40:37Z</time>
      </trkpt>
      <trkpt lat="44.25202" lon="4.55531">
        <ele>252.632</ele>
        <time>2012-11-03T10:40:42Z</time>
      </trkpt>
      <trkpt lat="44.25191" lon="4.5553">
        <ele>250.63</ele>
        <time>2012-11-03T10:40:49Z</time>
      </trkpt>
      <trkpt lat="44.25182" lon="4.55528">
        <ele>251.87</ele>
        <time>2012-11-03T10:40:56Z</time>
      </trkpt>
      <trkpt lat="44.25173" lon="4.55524">
        <ele>251.64</ele>
        <time>2012-11-03T10:41:02Z</time>
      </trkpt>
      <trkpt lat="44.25164" lon="4.5552">
        <ele>251</ele>
        <time>2012-11-03T10:41:09Z</time>
      </trkpt>
      <trkpt lat="44.25155" lon="4.55519">
        <ele>253.711</ele>
        <time>2012-11-03T10:41:15Z</time>
      </trkpt>
      <trkpt lat="44.25149" lon="4.55518">
        <ele>255.431</ele>
        <time>2012-11-03T10:41:20Z</time>
      </trkpt>
      <trkpt lat="44.2514" lon="4.55516">
        <ele>257.211</ele>
        <time>2012-11-03T10:41:26Z</time>
      </trkpt>
      <trkpt lat="44.2513" lon="4.55514">
        <ele>257.751</ele>
        <time>2012-11-03T10:41:34Z</time>
      </trkpt>
      <trkpt lat="44.25119" lon="4.55512">
        <ele>257.1</ele>
        <time>2012-11-03T10:41:41Z</time>
      </trkpt>
      <trkpt lat="44.25108" lon="4.55509">
        <ele>255.149</ele>
        <time>2012-11-03T10:41:48Z</time>
      </trkpt>
      <trkpt lat="44.25099" lon="4.55507">
        <ele>254.689</ele>
        <time>2012-11-03T10:41:53Z</time>
      </trkpt>
      <trkpt lat="44.25091" lon="4.55506">
        <ele>256.25</ele>
        <time>2012-11-03T10:41:59Z</time>
      </trkpt>
      <trkpt lat="44.2509" lon="4.55506">
        <ele>256.631</ele>
        <time>2012-11-03T10:42:00Z</time>
      </trkpt>
      <trkpt lat="44.2508" lon="4.55511">
        <ele>298.339</ele>
        <time>2012-11-03T10:45:23Z</time>
      </trkpt>
      <trkpt lat="44.25073" lon="4.5551">
        <ele>285.757</ele>
        <time>2012-11-03T10:45:30Z</time>
      </trkpt>
      <trkpt lat="44.25065" lon="4.55507">
        <ele>278.867</ele>
        <time>2012-11-03T10:45:36Z</time>
      </trkpt>
      <trkpt lat="44.25053" lon="4.55504">
        <ele>274.748</ele>
        <time>2012-11-03T10:45:43Z</time>
      </trkpt>
      <trkpt lat="44.25045" lon="4.55502">
        <ele>273.348</ele>
        <time>2012-11-03T10:45:49Z</time>
      </trkpt>
      <trkpt lat="44.2503" lon="4.55497">
        <ele>268.668</ele>
        <time>2012-11-03T10:45:57Z</time>
      </trkpt>
      <trkpt lat="44.25017" lon="4.55494">
        <ele>269.139</ele>
        <time>2012-11-03T10:46:04Z</time>
      </trkpt>
      <trkpt lat="44.25008" lon="4.55491">
        <ele>268.439</ele>
        <time>2012-11-03T10:46:10Z</time>
      </trkpt>
      <trkpt lat="44.24996" lon="4.55487">
        <ele>267.599</ele>
        <time>2012-11-03T10:46:18Z</time>
      </trkpt>
      <trkpt lat="44.24985" lon="4.55484">
        <ele>267.699</ele>
        <time>2012-11-03T10:46:25Z</time>
      </trkpt>
      <trkpt lat="44.24976" lon="4.55479">
        <ele>266.769</ele>
        <time>2012-11-03T10:46:32Z</time>
      </trkpt>
      <trkpt lat="44.24967" lon="4.55475">
        <ele>268.799</ele>
        <time>2012-11-03T10:46:39Z</time>
      </trkpt>
      <trkpt lat="44.24959" lon="4.5547">
        <ele>270.461</ele>
        <time>2012-11-03T10:46:45Z</time>
      </trkpt>
      <trkpt lat="44.24954" lon="4.55467">
        <ele>272.071</ele>
        <time>2012-11-03T10:46:50Z</time>
      </trkpt>
      <trkpt lat="44.2495" lon="4.55464">
        <ele>273.451</ele>
        <time>2012-11-03T10:46:53Z</time>
      </trkpt>
      <trkpt lat="44.24941" lon="4.5546">
        <ele>275.141</ele>
        <time>2012-11-03T10:46:59Z</time>
      </trkpt>
      <trkpt lat="44.24931" lon="4.55457">
        <ele>275.45</ele>
        <time>2012-11-03T10:47:06Z</time>
      </trkpt>
      <trkpt lat="44.24923" lon="4.55451">
        <ele>276.57</ele>
        <time>2012-11-03T10:47:12Z</time>
      </trkpt>
      <trkpt lat="44.24914" lon="4.55447">
        <ele>278.01</ele>
        <time>2012-11-03T10:47:19Z</time>
      </trkpt>
      <trkpt lat="44.24905" lon="4.55444">
        <ele>278.86</ele>
        <time>2012-11-03T10:47:25Z</time>
      </trkpt>
      <trkpt lat="44.24894" lon="4.55439">
        <ele>283.211</ele>
        <time>2012-11-03T10:47:32Z</time>
      </trkpt>
      <trkpt lat="44.24882" lon="4.55436">
        <ele>282.43</ele>
        <time>2012-11-03T10:47:40Z</time>
      </trkpt>
      <trkpt lat="44.2487" lon="4.55433">
        <ele>279.949</ele>
        <time>2012-11-03T10:47:48Z</time>
      </trkpt>
      <trkpt lat="44.24862" lon="4.55433">
        <ele>279.738</ele>
        <time>2012-11-03T10:47:54Z</time>
      </trkpt>
      <trkpt lat="44.24851" lon="4.55428">
        <ele>280.869</ele>
        <time>2012-11-03T10:48:02Z</time>
      </trkpt>
      <trkpt lat="44.24841" lon="4.55424">
        <ele>283.619</ele>
        <time>2012-11-03T10:48:09Z</time>
      </trkpt>
      <trkpt lat="44.24828" lon="4.5542">
        <ele>284.369</ele>
        <time>2012-11-03T10:48:18Z</time>
      </trkpt>
      <trkpt lat="44.24818" lon="4.55416">
        <ele>285.029</ele>
        <time>2012-11-03T10:48:25Z</time>
      </trkpt>
      <trkpt lat="44.24807" lon="4.55412">
        <ele>285.249</ele>
        <time>2012-11-03T10:48:33Z</time>
      </trkpt>
      <trkpt lat="44.24796" lon="4.55409">
        <ele>285.269</ele>
        <time>2012-11-03T10:48:40Z</time>
      </trkpt>
      <trkpt lat="44.24786" lon="4.55406">
        <ele>286.539</ele>
        <time>2012-11-03T10:48:47Z</time>
      </trkpt>
      <trkpt lat="44.24772" lon="4.55407">
        <ele>283.538</ele>
        <time>2012-11-03T10:48:55Z</time>
      </trkpt>
      <trkpt lat="44.24759" lon="4.55399">
        <ele>283.538</ele>
        <time>2012-11-03T10:49:00Z</time>
      </trkpt>
      <trkpt lat="44.24737" lon="4.55385">
        <ele>283.739</ele>
        <time>2012-11-03T10:49:07Z</time>
      </trkpt>
      <trkpt lat="44.24715" lon="4.55373">
        <ele>282.568</ele>
        <time>2012-11-03T10:49:13Z</time>
      </trkpt>
      <trkpt lat="44.24691" lon="4.55349">
        <ele>282.849</ele>
        <time>2012-11-03T10:49:20Z</time>
      </trkpt>
      <trkpt lat="44.24672" lon="4.55323">
        <ele>285.901</ele>
        <time>2012-11-03T10:49:27Z</time>
      </trkpt>
      <trkpt lat="44.24658" lon="4.55295">
        <ele>289.982</ele>
        <time>2012-11-03T10:49:34Z</time>
      </trkpt>
      <trkpt lat="44.2465" lon="4.55258">
        <ele>290.341</ele>
        <time>2012-11-03T10:49:42Z</time>
      </trkpt>
      <trkpt lat="44.24652" lon="4.55235">
        <ele>286.569</ele>
        <time>2012-11-03T10:49:47Z</time>
      </trkpt>
      <trkpt lat="44.24652" lon="4.55207">
        <ele>286.631</ele>
        <time>2012-11-03T10:49:53Z</time>
      </trkpt>
      <trkpt lat="44.2465" lon="4.55184">
        <ele>285.41</ele>
        <time>2012-11-03T10:49:58Z</time>
      </trkpt>
      <trkpt lat="44.24652" lon="4.55151">
        <ele>279.008</ele>
        <time>2012-11-03T10:50:05Z</time>
      </trkpt>
      <trkpt lat="44.24654" lon="4.55127">
        <ele>276.578</ele>
        <time>2012-11-03T10:50:11Z</time>
      </trkpt>
      <trkpt lat="44.24655" lon="4.55109">
        <ele>275.298</ele>
        <time>2012-11-03T10:50:16Z</time>
      </trkpt>
      <trkpt lat="44.24655" lon="4.55106">
        <ele>275.258</ele>
        <time>2012-11-03T10:50:17Z</time>
      </trkpt>
      <trkpt lat="44.24656" lon="4.55091">
        <ele>277.419</ele>
        <time>2012-11-03T10:50:22Z</time>
      </trkpt>
      <trkpt lat="44.24661" lon="4.55069">
        <ele>278.499</ele>
        <time>2012-11-03T10:50:29Z</time>
      </trkpt>
      <trkpt lat="44.24668" lon="4.55043">
        <ele>280.729</ele>
        <time>2012-11-03T10:50:37Z</time>
      </trkpt>
      <trkpt lat="44.24677" lon="4.55033">
        <ele>281.069</ele>
        <time>2012-11-03T10:50:42Z</time>
      </trkpt>
      <trkpt lat="44.24692" lon="4.55034">
        <ele>281.228</ele>
        <time>2012-11-03T10:50:48Z</time>
      </trkpt>
      <trkpt lat="44.24702" lon="4.55032">
        <ele>280.828</ele>
        <time>2012-11-03T10:50:52Z</time>
      </trkpt>
      <trkpt lat="44.24702" lon="4.55017">
        <ele>281.918</ele>
        <time>2012-11-03T10:50:57Z</time>
      </trkpt>
      <trkpt lat="44.247" lon="4.55015">
        <ele>281.678</ele>
        <time>2012-11-03T10:50:58Z</time>
      </trkpt>
      <trkpt lat="44.24682" lon="4.54996">
        <ele>283.138</ele>
        <time>2012-11-03T10:51:06Z</time>
      </trkpt>
      <trkpt lat="44.24675" lon="4.54983">
        <ele>283.838</ele>
        <time>2012-11-03T10:51:11Z</time>
      </trkpt>
      <trkpt lat="44.24662" lon="4.54976">
        <ele>285.129</ele>
        <time>2012-11-03T10:51:17Z</time>
      </trkpt>
      <trkpt lat="44.24659" lon="4.54962">
        <ele>286.359</ele>
        <time>2012-11-03T10:51:22Z</time>
      </trkpt>
      <trkpt lat="44.24652" lon="4.54953">
        <ele>286.989</ele>
        <time>2012-11-03T10:51:25Z</time>
      </trkpt>
      <trkpt lat="44.2464" lon="4.54926">
        <ele>289.149</ele>
        <time>2012-11-03T10:51:33Z</time>
      </trkpt>
      <trkpt lat="44.24628" lon="4.54899">
        <ele>293.039</ele>
        <time>2012-11-03T10:51:42Z</time>
      </trkpt>
      <trkpt lat="44.24619" lon="4.54875">
        <ele>295.86</ele>
        <time>2012-11-03T10:51:50Z</time>
      </trkpt>
      <trkpt lat="44.24611" lon="4.5486">
        <ele>296.899</ele>
        <time>2012-11-03T10:51:58Z</time>
      </trkpt>
      <trkpt lat="44.24606" lon="4.54842">
        <ele>299.88</ele>
        <time>2012-11-03T10:52:06Z</time>
      </trkpt>
      <trkpt lat="44.24603" lon="4.54831">
        <ele>301.659</ele>
        <time>2012-11-03T10:52:11Z</time>
      </trkpt>
      <trkpt lat="44.24599" lon="4.54814">
        <ele>304.24</ele>
        <time>2012-11-03T10:52:20Z</time>
      </trkpt>
      <trkpt lat="44.24595" lon="4.54798">
        <ele>304.659</ele>
        <time>2012-11-03T10:52:29Z</time>
      </trkpt>
      <trkpt lat="44.24589" lon="4.54786">
        <ele>304.779</ele>
        <time>2012-11-03T10:52:36Z</time>
      </trkpt>
      <trkpt lat="44.24583" lon="4.54776">
        <ele>306.559</ele>
        <time>2012-11-03T10:52:44Z</time>
      </trkpt>
      <trkpt lat="44.24581" lon="4.54774">
        <ele>305.929</ele>
        <time>2012-11-03T10:52:46Z</time>
      </trkpt>
      <trkpt lat="44.2458" lon="4.54771">
        <ele>305.55</ele>
        <time>2012-11-03T10:52:49Z</time>
      </trkpt>
      <trkpt lat="44.24578" lon="4.54767">
        <ele>299.476</ele>
        <time>2012-11-03T10:53:22Z</time>
      </trkpt>
      <trkpt lat="44.24578" lon="4.54767">
        <ele>299.223</ele>
        <time>2012-11-03T10:53:23Z</time>
      </trkpt>
      <trkpt lat="44.24572" lon="4.54764">
        <ele>300.878</ele>
        <time>2012-11-03T10:53:30Z</time>
      </trkpt>
      <trkpt lat="44.24566" lon="4.54758">
        <ele>302.518</ele>
        <time>2012-11-03T10:53:36Z</time>
      </trkpt>
      <trkpt lat="44.24555" lon="4.54756">
        <ele>304.368</ele>
        <time>2012-11-03T10:53:44Z</time>
      </trkpt>
      <trkpt lat="44.24542" lon="4.54759">
        <ele>305.628</ele>
        <time>2012-11-03T10:53:52Z</time>
      </trkpt>
      <trkpt lat="44.24532" lon="4.5476">
        <ele>306.217</ele>
        <time>2012-11-03T10:53:59Z</time>
      </trkpt>
      <trkpt lat="44.24519" lon="4.5477">
        <ele>302.695</ele>
        <time>2012-11-03T10:54:08Z</time>
      </trkpt>
      <trkpt lat="44.24503" lon="4.54775">
        <ele>301.276</ele>
        <time>2012-11-03T10:54:17Z</time>
      </trkpt>
      <trkpt lat="44.2449" lon="4.54774">
        <ele>303.357</ele>
        <time>2012-11-03T10:54:24Z</time>
      </trkpt>
      <trkpt lat="44.24478" lon="4.54767">
        <ele>305.938</ele>
        <time>2012-11-03T10:54:32Z</time>
      </trkpt>
      <trkpt lat="44.24466" lon="4.54765">
        <ele>307.067</ele>
        <time>2012-11-03T10:54:39Z</time>
      </trkpt>
      <trkpt lat="44.2445" lon="4.54761">
        <ele>306.416</ele>
        <time>2012-11-03T10:54:48Z</time>
      </trkpt>
      <trkpt lat="44.24432" lon="4.54761">
        <ele>306.576</ele>
        <time>2012-11-03T10:54:58Z</time>
      </trkpt>
      <trkpt lat="44.24418" lon="4.5476">
        <ele>306.015</ele>
        <time>2012-11-03T10:55:06Z</time>
      </trkpt>
      <trkpt lat="44.24404" lon="4.54761">
        <ele>305.165</ele>
        <time>2012-11-03T10:55:14Z</time>
      </trkpt>
      <trkpt lat="44.24393" lon="4.54762">
        <ele>303.835</ele>
        <time>2012-11-03T10:55:21Z</time>
      </trkpt>
      <trkpt lat="44.24376" lon="4.54767">
        <ele>302.425</ele>
        <time>2012-11-03T10:55:31Z</time>
      </trkpt>
      <trkpt lat="44.24361" lon="4.5477">
        <ele>303.885</ele>
        <time>2012-11-03T10:55:40Z</time>
      </trkpt>
      <trkpt lat="44.24349" lon="4.54774">
        <ele>308.206</ele>
        <time>2012-11-03T10:55:48Z</time>
      </trkpt>
      <trkpt lat="44.24331" lon="4.54779">
        <ele>310.546</ele>
        <time>2012-11-03T10:55:59Z</time>
      </trkpt>
      <trkpt lat="44.2432" lon="4.54782">
        <ele>312.576</ele>
        <time>2012-11-03T10:56:06Z</time>
      </trkpt>
      <trkpt lat="44.2431" lon="4.54782">
        <ele>316.837</ele>
        <time>2012-11-03T10:56:13Z</time>
      </trkpt>
      <trkpt lat="44.24299" lon="4.54779">
        <ele>319.207</ele>
        <time>2012-11-03T10:56:20Z</time>
      </trkpt>
      <trkpt lat="44.24286" lon="4.54775">
        <ele>323.527</ele>
        <time>2012-11-03T10:56:28Z</time>
      </trkpt>
      <trkpt lat="44.24279" lon="4.54767">
        <ele>327.327</ele>
        <time>2012-11-03T10:56:35Z</time>
      </trkpt>
      <trkpt lat="44.24267" lon="4.54759">
        <ele>330.387</ele>
        <time>2012-11-03T10:56:44Z</time>
      </trkpt>
      <trkpt lat="44.24254" lon="4.54752">
        <ele>334.607</ele>
        <time>2012-11-03T10:56:53Z</time>
      </trkpt>
      <trkpt lat="44.24242" lon="4.54745">
        <ele>336.596</ele>
        <time>2012-11-03T10:57:03Z</time>
      </trkpt>
      <trkpt lat="44.24231" lon="4.54738">
        <ele>339.797</ele>
        <time>2012-11-03T10:57:12Z</time>
      </trkpt>
      <trkpt lat="44.24221" lon="4.54735">
        <ele>338.956</ele>
        <time>2012-11-03T10:57:20Z</time>
      </trkpt>
      <trkpt lat="44.24213" lon="4.54734">
        <ele>338.795</ele>
        <time>2012-11-03T10:57:27Z</time>
      </trkpt>
      <trkpt lat="44.24206" lon="4.54733">
        <ele>339.305</ele>
        <time>2012-11-03T10:57:33Z</time>
      </trkpt>
      <trkpt lat="44.24195" lon="4.54732">
        <ele>340.595</ele>
        <time>2012-11-03T10:57:42Z</time>
      </trkpt>
      <trkpt lat="44.24183" lon="4.5473">
        <ele>340.005</ele>
        <time>2012-11-03T10:57:51Z</time>
      </trkpt>
      <trkpt lat="44.24173" lon="4.54727">
        <ele>340.206</ele>
        <time>2012-11-03T10:57:59Z</time>
      </trkpt>
      <trkpt lat="44.24163" lon="4.54723">
        <ele>345.618</ele>
        <time>2012-11-03T10:58:08Z</time>
      </trkpt>
      <trkpt lat="44.24154" lon="4.54718">
        <ele>348.277</ele>
        <time>2012-11-03T10:58:15Z</time>
      </trkpt>
      <trkpt lat="44.24146" lon="4.54711">
        <ele>352.048</ele>
        <time>2012-11-03T10:58:23Z</time>
      </trkpt>
      <trkpt lat="44.24145" lon="4.5471">
        <ele>352.348</ele>
        <time>2012-11-03T10:58:24Z</time>
      </trkpt>
      <trkpt lat="44.24136" lon="4.547">
        <ele>356.218</ele>
        <time>2012-11-03T10:58:34Z</time>
      </trkpt>
      <trkpt lat="44.2413" lon="4.5469">
        <ele>359.078</ele>
        <time>2012-11-03T10:58:41Z</time>
      </trkpt>
      <trkpt lat="44.24129" lon="4.5468">
        <ele>361.308</ele>
        <time>2012-11-03T10:58:47Z</time>
      </trkpt>
      <trkpt lat="44.24126" lon="4.5467">
        <ele>366.809</ele>
        <time>2012-11-03T10:58:54Z</time>
      </trkpt>
      <trkpt lat="44.24122" lon="4.54657">
        <ele>370.308</ele>
        <time>2012-11-03T10:59:03Z</time>
      </trkpt>
      <trkpt lat="44.24118" lon="4.54654">
        <ele>371.578</ele>
        <time>2012-11-03T10:59:07Z</time>
      </trkpt>
      <trkpt lat="44.24118" lon="4.54648">
        <ele>371.747</ele>
        <time>2012-11-03T10:59:12Z</time>
      </trkpt>
      <trkpt lat="44.24116" lon="4.54643">
        <ele>372.217</ele>
        <time>2012-11-03T10:59:16Z</time>
      </trkpt>
      <trkpt lat="44.24112" lon="4.54642">
        <ele>372.226</ele>
        <time>2012-11-03T10:59:19Z</time>
      </trkpt>
      <trkpt lat="44.24106" lon="4.54641">
        <ele>367.995</ele>
        <time>2012-11-03T10:59:26Z</time>
      </trkpt>
      <trkpt lat="44.24106" lon="4.5464">
        <ele>366.904</ele>
        <time>2012-11-03T10:59:27Z</time>
      </trkpt>
      <trkpt lat="44.24103" lon="4.54636">
        <ele>362.245</ele>
        <time>2012-11-03T10:59:44Z</time>
      </trkpt>
      <trkpt lat="44.24101" lon="4.54638">
        <ele>361.295</ele>
        <time>2012-11-03T10:59:50Z</time>
      </trkpt>
      <trkpt lat="44.24098" lon="4.54637">
        <ele>362.386</ele>
        <time>2012-11-03T11:02:31Z</time>
      </trkpt>
      <trkpt lat="44.24098" lon="4.54635">
        <ele>363.955</ele>
        <time>2012-11-03T11:02:35Z</time>
      </trkpt>
      <trkpt lat="44.24082" lon="4.54616">
        <ele>364.604</ele>
        <time>2012-11-03T11:02:45Z</time>
      </trkpt>
      <trkpt lat="44.24068" lon="4.54591">
        <ele>365.095</ele>
        <time>2012-11-03T11:02:51Z</time>
      </trkpt>
      <trkpt lat="44.24048" lon="4.54553">
        <ele>364.584</ele>
        <time>2012-11-03T11:02:58Z</time>
      </trkpt>
      <trkpt lat="44.24031" lon="4.54535">
        <ele>364.524</ele>
        <time>2012-11-03T11:03:02Z</time>
      </trkpt>
      <trkpt lat="44.24006" lon="4.54513">
        <ele>365.575</ele>
        <time>2012-11-03T11:03:09Z</time>
      </trkpt>
      <trkpt lat="44.24003" lon="4.54509">
        <ele>365.895</ele>
        <time>2012-11-03T11:03:10Z</time>
      </trkpt>
      <trkpt lat="44.23994" lon="4.54476">
        <ele>368.725</ele>
        <time>2012-11-03T11:03:16Z</time>
      </trkpt>
      <trkpt lat="44.2399" lon="4.54417">
        <ele>361.964</ele>
        <time>2012-11-03T11:03:24Z</time>
      </trkpt>
      <trkpt lat="44.23988" lon="4.54368">
        <ele>365.496</ele>
        <time>2012-11-03T11:03:32Z</time>
      </trkpt>
      <trkpt lat="44.23988" lon="4.54332">
        <ele>369.257</ele>
        <time>2012-11-03T11:03:40Z</time>
      </trkpt>
      <trkpt lat="44.23989" lon="4.54297">
        <ele>369.696</ele>
        <time>2012-11-03T11:03:48Z</time>
      </trkpt>
      <trkpt lat="44.23987" lon="4.5426">
        <ele>373.378</ele>
        <time>2012-11-03T11:03:57Z</time>
      </trkpt>
      <trkpt lat="44.23983" lon="4.54242">
        <ele>376.406</ele>
        <time>2012-11-03T11:04:04Z</time>
      </trkpt>
      <trkpt lat="44.23974" lon="4.54243">
        <ele>374.174</ele>
        <time>2012-11-03T11:04:09Z</time>
      </trkpt>
      <trkpt lat="44.23972" lon="4.54244">
        <ele>373.474</ele>
        <time>2012-11-03T11:04:10Z</time>
      </trkpt>
      <trkpt lat="44.23961" lon="4.54245">
        <ele>368.352</ele>
        <time>2012-11-03T11:04:17Z</time>
      </trkpt>
      <trkpt lat="44.2396" lon="4.54244">
        <ele>367.474</ele>
        <time>2012-11-03T11:04:20Z</time>
      </trkpt>
      <trkpt lat="44.23958" lon="4.54244">
        <ele>364.763</ele>
        <time>2012-11-03T11:04:31Z</time>
      </trkpt>
      <trkpt lat="44.23957" lon="4.54243">
        <ele>364.529</ele>
        <time>2012-11-03T11:04:35Z</time>
      </trkpt>
      <trkpt lat="44.23953" lon="4.54244">
        <ele>355.932</ele>
        <time>2012-11-03T11:04:53Z</time>
      </trkpt>
      <trkpt lat="44.23949" lon="4.54243">
        <ele>352.593</ele>
        <time>2012-11-03T11:04:59Z</time>
      </trkpt>
      <trkpt lat="44.23948" lon="4.54242">
        <ele>351.592</ele>
        <time>2012-11-03T11:05:02Z</time>
      </trkpt>
      <trkpt lat="44.23946" lon="4.54239">
        <ele>350.403</ele>
        <time>2012-11-03T11:05:08Z</time>
      </trkpt>
      <trkpt lat="44.23942" lon="4.54237">
        <ele>349.463</ele>
        <time>2012-11-03T11:05:12Z</time>
      </trkpt>
      <trkpt lat="44.23933" lon="4.54237">
        <ele>346.182</ele>
        <time>2012-11-03T11:05:18Z</time>
      </trkpt>
      <trkpt lat="44.23932" lon="4.54236">
        <ele>345.742</ele>
        <time>2012-11-03T11:05:19Z</time>
      </trkpt>
      <trkpt lat="44.23922" lon="4.54231">
        <ele>341.741</ele>
        <time>2012-11-03T11:05:26Z</time>
      </trkpt>
      <trkpt lat="44.2392" lon="4.54231">
        <ele>341.291</ele>
        <time>2012-11-03T11:05:27Z</time>
      </trkpt>
      <trkpt lat="44.239" lon="4.54227">
        <ele>337.281</ele>
        <time>2012-11-03T11:05:34Z</time>
      </trkpt>
      <trkpt lat="44.23885" lon="4.54226">
        <ele>336.152</ele>
        <time>2012-11-03T11:05:38Z</time>
      </trkpt>
      <trkpt lat="44.23873" lon="4.54226">
        <ele>335.482</ele>
        <time>2012-11-03T11:05:42Z</time>
      </trkpt>
      <trkpt lat="44.23872" lon="4.54226">
        <ele>336.609</ele>
        <time>2012-11-03T11:05:44Z</time>
      </trkpt>
      <trkpt lat="44.23865" lon="4.54225">
        <ele>340.864</ele>
        <time>2012-11-03T11:06:27Z</time>
      </trkpt>
      <trkpt lat="44.2385" lon="4.54222">
        <ele>338.793</ele>
        <time>2012-11-03T11:06:32Z</time>
      </trkpt>
      <trkpt lat="44.23824" lon="4.54216">
        <ele>335.242</ele>
        <time>2012-11-03T11:06:39Z</time>
      </trkpt>
      <trkpt lat="44.23813" lon="4.54211">
        <ele>333.832</ele>
        <time>2012-11-03T11:06:43Z</time>
      </trkpt>
      <trkpt lat="44.23804" lon="4.54208">
        <ele>331.301</ele>
        <time>2012-11-03T11:06:48Z</time>
      </trkpt>
      <trkpt lat="44.23787" lon="4.54203">
        <ele>328.341</ele>
        <time>2012-11-03T11:06:53Z</time>
      </trkpt>
      <trkpt lat="44.23766" lon="4.5419">
        <ele>325.21</ele>
        <time>2012-11-03T11:06:58Z</time>
      </trkpt>
      <trkpt lat="44.2374" lon="4.54157">
        <ele>324.532</ele>
        <time>2012-11-03T11:07:05Z</time>
      </trkpt>
      <trkpt lat="44.2373" lon="4.54142">
        <ele>324.222</ele>
        <time>2012-11-03T11:07:08Z</time>
      </trkpt>
      <trkpt lat="44.23718" lon="4.54126">
        <ele>323.672</ele>
        <time>2012-11-03T11:07:13Z</time>
      </trkpt>
      <trkpt lat="44.23712" lon="4.54121">
        <ele>323.772</ele>
        <time>2012-11-03T11:07:15Z</time>
      </trkpt>
      <trkpt lat="44.237" lon="4.54102">
        <ele>323.792</ele>
        <time>2012-11-03T11:07:20Z</time>
      </trkpt>
      <trkpt lat="44.23697" lon="4.54083">
        <ele>321.103</ele>
        <time>2012-11-03T11:07:26Z</time>
      </trkpt>
      <trkpt lat="44.237" lon="4.54069">
        <ele>316.323</ele>
        <time>2012-11-03T11:07:30Z</time>
      </trkpt>
      <trkpt lat="44.23703" lon="4.54062">
        <ele>314.502</ele>
        <time>2012-11-03T11:07:32Z</time>
      </trkpt>
      <trkpt lat="44.23702" lon="4.54054">
        <ele>313.272</ele>
        <time>2012-11-03T11:07:36Z</time>
      </trkpt>
      <trkpt lat="44.23693" lon="4.5404">
        <ele>313.563</ele>
        <time>2012-11-03T11:07:59Z</time>
      </trkpt>
      <trkpt lat="44.23691" lon="4.54038">
        <ele>312.702</ele>
        <time>2012-11-03T11:08:02Z</time>
      </trkpt>
      <trkpt lat="44.23684" lon="4.54027">
        <ele>312.002</ele>
        <time>2012-11-03T11:08:08Z</time>
      </trkpt>
      <trkpt lat="44.23683" lon="4.54026">
        <ele>312.002</ele>
        <time>2012-11-03T11:08:09Z</time>
      </trkpt>
      <trkpt lat="44.23679" lon="4.54023">
        <ele>310.955</ele>
        <time>2012-11-03T11:08:14Z</time>
      </trkpt>
      <trkpt lat="44.2367" lon="4.54014">
        <ele>302.142</ele>
        <time>2012-11-03T11:08:42Z</time>
      </trkpt>
      <trkpt lat="44.23666" lon="4.54008">
        <ele>300.662</ele>
        <time>2012-11-03T11:08:51Z</time>
      </trkpt>
      <trkpt lat="44.23663" lon="4.54002">
        <ele>300.214</ele>
        <time>2012-11-03T11:08:57Z</time>
      </trkpt>
      <trkpt lat="44.23663" lon="4.53999">
        <ele>299.032</ele>
        <time>2012-11-03T11:09:01Z</time>
      </trkpt>
      <trkpt lat="44.23662" lon="4.53999">
        <ele>298.253</ele>
        <time>2012-11-03T11:09:05Z</time>
      </trkpt>
      <trkpt lat="44.23658" lon="4.53997">
        <ele>296.981</ele>
        <time>2012-11-03T11:09:09Z</time>
      </trkpt>
      <trkpt lat="44.23655" lon="4.53995">
        <ele>296.831</ele>
        <time>2012-11-03T11:09:11Z</time>
      </trkpt>
      <trkpt lat="44.2365" lon="4.53987">
        <ele>296.992</ele>
        <time>2012-11-03T11:09:17Z</time>
      </trkpt>
      <trkpt lat="44.23645" lon="4.53978">
        <ele>296.522</ele>
        <time>2012-11-03T11:09:21Z</time>
      </trkpt>
      <trkpt lat="44.23636" lon="4.5397">
        <ele>293.59</ele>
        <time>2012-11-03T11:09:27Z</time>
      </trkpt>
      <trkpt lat="44.23631" lon="4.53959">
        <ele>291.991</ele>
        <time>2012-11-03T11:09:31Z</time>
      </trkpt>
      <trkpt lat="44.23626" lon="4.53955">
        <ele>290.151</ele>
        <time>2012-11-03T11:09:35Z</time>
      </trkpt>
      <trkpt lat="44.23624" lon="4.53955">
        <ele>289.591</ele>
        <time>2012-11-03T11:09:36Z</time>
      </trkpt>
      <trkpt lat="44.23614" lon="4.53963">
        <ele>285.8</ele>
        <time>2012-11-03T11:09:42Z</time>
      </trkpt>
      <trkpt lat="44.23601" lon="4.53971">
        <ele>280.908</ele>
        <time>2012-11-03T11:09:46Z</time>
      </trkpt>
      <trkpt lat="44.2359" lon="4.53976">
        <ele>277.678</ele>
        <time>2012-11-03T11:09:50Z</time>
      </trkpt>
      <trkpt lat="44.23588" lon="4.53976">
        <ele>276.398</ele>
        <time>2012-11-03T11:09:51Z</time>
      </trkpt>
      <trkpt lat="44.23579" lon="4.53983">
        <ele>272.238</ele>
        <time>2012-11-03T11:09:56Z</time>
      </trkpt>
      <trkpt lat="44.23559" lon="4.53996">
        <ele>268.928</ele>
        <time>2012-11-03T11:10:02Z</time>
      </trkpt>
      <trkpt lat="44.23547" lon="4.54005">
        <ele>272.37</ele>
        <time>2012-11-03T11:10:06Z</time>
      </trkpt>
      <trkpt lat="44.23527" lon="4.54018">
        <ele>269.73</ele>
        <time>2012-11-03T11:10:11Z</time>
      </trkpt>
      <trkpt lat="44.23505" lon="4.54033">
        <ele>274.692</ele>
        <time>2012-11-03T11:10:17Z</time>
      </trkpt>
      <trkpt lat="44.2349" lon="4.54045">
        <ele>273.841</ele>
        <time>2012-11-03T11:10:22Z</time>
      </trkpt>
      <trkpt lat="44.23467" lon="4.5406">
        <ele>273.211</ele>
        <time>2012-11-03T11:10:28Z</time>
      </trkpt>
      <trkpt lat="44.23451" lon="4.5407">
        <ele>276.003</ele>
        <time>2012-11-03T11:10:33Z</time>
      </trkpt>
      <trkpt lat="44.23441" lon="4.54078">
        <ele>276.903</ele>
        <time>2012-11-03T11:10:38Z</time>
      </trkpt>
      <trkpt lat="44.23429" lon="4.54087">
        <ele>275.352</ele>
        <time>2012-11-03T11:10:42Z</time>
      </trkpt>
      <trkpt lat="44.23426" lon="4.54088">
        <ele>274.741</ele>
        <time>2012-11-03T11:10:43Z</time>
      </trkpt>
      <trkpt lat="44.23419" lon="4.54086">
        <ele>273.521</ele>
        <time>2012-11-03T11:10:49Z</time>
      </trkpt>
      <trkpt lat="44.23419" lon="4.54086">
        <ele>275.294</ele>
        <time>2012-11-03T11:10:51Z</time>
      </trkpt>
      <trkpt lat="44.23418" lon="4.54084">
        <ele>277.293</ele>
        <time>2012-11-03T11:11:02Z</time>
      </trkpt>
      <trkpt lat="44.23413" lon="4.54075">
        <ele>273.192</ele>
        <time>2012-11-03T11:11:32Z</time>
      </trkpt>
      <trkpt lat="44.23413" lon="4.54075">
        <ele>272.908</ele>
        <time>2012-11-03T11:11:33Z</time>
      </trkpt>
      <trkpt lat="44.23411" lon="4.54071">
        <ele>272.459</ele>
        <time>2012-11-03T11:11:40Z</time>
      </trkpt>
      <trkpt lat="44.23409" lon="4.54067">
        <ele>268.611</ele>
        <time>2012-11-03T11:11:46Z</time>
      </trkpt>
      <trkpt lat="44.23409" lon="4.54066">
        <ele>267.985</ele>
        <time>2012-11-03T11:11:47Z</time>
      </trkpt>
      <trkpt lat="44.23401" lon="4.54053">
        <ele>264.98</ele>
        <time>2012-11-03T11:12:06Z</time>
      </trkpt>
      <trkpt lat="44.23388" lon="4.54037">
        <ele>263.48</ele>
        <time>2012-11-03T11:12:12Z</time>
      </trkpt>
      <trkpt lat="44.23382" lon="4.54023">
        <ele>260.751</ele>
        <time>2012-11-03T11:12:16Z</time>
      </trkpt>
      <trkpt lat="44.23376" lon="4.54013">
        <ele>260.501</ele>
        <time>2012-11-03T11:12:21Z</time>
      </trkpt>
      <trkpt lat="44.23363" lon="4.53995">
        <ele>261.332</ele>
        <time>2012-11-03T11:12:27Z</time>
      </trkpt>
      <trkpt lat="44.23348" lon="4.53971">
        <ele>261.612</ele>
        <time>2012-11-03T11:12:33Z</time>
      </trkpt>
      <trkpt lat="44.23329" lon="4.5394">
        <ele>263.583</ele>
        <time>2012-11-03T11:12:40Z</time>
      </trkpt>
      <trkpt lat="44.23316" lon="4.53918">
        <ele>261.713</ele>
        <time>2012-11-03T11:12:45Z</time>
      </trkpt>
      <trkpt lat="44.23304" lon="4.539">
        <ele>262.863</ele>
        <time>2012-11-03T11:12:49Z</time>
      </trkpt>
      <trkpt lat="44.23289" lon="4.53875">
        <ele>262.472</ele>
        <time>2012-11-03T11:12:54Z</time>
      </trkpt>
      <trkpt lat="44.23284" lon="4.53865">
        <ele>262.062</ele>
        <time>2012-11-03T11:12:56Z</time>
      </trkpt>
      <trkpt lat="44.23272" lon="4.53846">
        <ele>257.191</ele>
        <time>2012-11-03T11:13:01Z</time>
      </trkpt>
      <trkpt lat="44.2326" lon="4.53827">
        <ele>256.511</ele>
        <time>2012-11-03T11:13:05Z</time>
      </trkpt>
      <trkpt lat="44.23247" lon="4.53806">
        <ele>255.66</ele>
        <time>2012-11-03T11:13:10Z</time>
      </trkpt>
      <trkpt lat="44.23245" lon="4.53803">
        <ele>255.2</ele>
        <time>2012-11-03T11:13:11Z</time>
      </trkpt>
      <trkpt lat="44.23232" lon="4.5379">
        <ele>252.43</ele>
        <time>2012-11-03T11:13:16Z</time>
      </trkpt>
      <trkpt lat="44.23227" lon="4.53786">
        <ele>249.77</ele>
        <time>2012-11-03T11:13:21Z</time>
      </trkpt>
      <trkpt lat="44.23222" lon="4.53781">
        <ele>239.538</ele>
        <time>2012-11-03T11:13:38Z</time>
      </trkpt>
      <trkpt lat="44.23219" lon="4.5378">
        <ele>238.982</ele>
        <time>2012-11-03T11:13:42Z</time>
      </trkpt>
      <trkpt lat="44.23216" lon="4.53779">
        <ele>238.92</ele>
        <time>2012-11-03T11:13:45Z</time>
      </trkpt>
      <trkpt lat="44.23203" lon="4.53775">
        <ele>236.959</ele>
        <time>2012-11-03T11:13:51Z</time>
      </trkpt>
      <trkpt lat="44.23188" lon="4.53771">
        <ele>233.108</ele>
        <time>2012-11-03T11:13:56Z</time>
      </trkpt>
      <trkpt lat="44.23185" lon="4.5377">
        <ele>231.817</ele>
        <time>2012-11-03T11:13:57Z</time>
      </trkpt>
      <trkpt lat="44.23175" lon="4.53776">
        <ele>227.636</ele>
        <time>2012-11-03T11:14:01Z</time>
      </trkpt>
      <trkpt lat="44.23159" lon="4.53794">
        <ele>226.69</ele>
        <time>2012-11-03T11:14:08Z</time>
      </trkpt>
      <trkpt lat="44.23149" lon="4.53812">
        <ele>228.971</ele>
        <time>2012-11-03T11:14:14Z</time>
      </trkpt>
      <trkpt lat="44.23143" lon="4.53835">
        <ele>233.622</ele>
        <time>2012-11-03T11:14:20Z</time>
      </trkpt>
      <trkpt lat="44.23147" lon="4.53858">
        <ele>234.171</ele>
        <time>2012-11-03T11:14:26Z</time>
      </trkpt>
      <trkpt lat="44.23157" lon="4.53884">
        <ele>233.95</ele>
        <time>2012-11-03T11:14:33Z</time>
      </trkpt>
      <trkpt lat="44.23168" lon="4.53908">
        <ele>234.01</ele>
        <time>2012-11-03T11:14:39Z</time>
      </trkpt>
      <trkpt lat="44.23177" lon="4.53937">
        <ele>233.68</ele>
        <time>2012-11-03T11:14:45Z</time>
      </trkpt>
      <trkpt lat="44.23174" lon="4.53965">
        <ele>232.519</ele>
        <time>2012-11-03T11:14:50Z</time>
      </trkpt>
      <trkpt lat="44.23172" lon="4.53978">
        <ele>232.069</ele>
        <time>2012-11-03T11:14:52Z</time>
      </trkpt>
      <trkpt lat="44.23171" lon="4.54015">
        <ele>230.269</ele>
        <time>2012-11-03T11:14:57Z</time>
      </trkpt>
      <trkpt lat="44.23172" lon="4.54062">
        <ele>228.338</ele>
        <time>2012-11-03T11:15:04Z</time>
      </trkpt>
      <trkpt lat="44.23172" lon="4.54083">
        <ele>228.199</ele>
        <time>2012-11-03T11:15:07Z</time>
      </trkpt>
      <trkpt lat="44.23163" lon="4.54112">
        <ele>227.649</ele>
        <time>2012-11-03T11:15:12Z</time>
      </trkpt>
      <trkpt lat="44.23155" lon="4.54134">
        <ele>227.829</ele>
        <time>2012-11-03T11:15:16Z</time>
      </trkpt>
      <trkpt lat="44.2316" lon="4.54153">
        <ele>229.39</ele>
        <time>2012-11-03T11:15:19Z</time>
      </trkpt>
      <trkpt lat="44.23168" lon="4.54193">
        <ele>227.599</ele>
        <time>2012-11-03T11:15:24Z</time>
      </trkpt>
      <trkpt lat="44.23159" lon="4.54209">
        <ele>224.967</ele>
        <time>2012-11-03T11:15:26Z</time>
      </trkpt>
      <trkpt lat="44.23145" lon="4.54232">
        <ele>223.338</ele>
        <time>2012-11-03T11:15:29Z</time>
      </trkpt>
      <trkpt lat="44.23122" lon="4.54244">
        <ele>220.217</ele>
        <time>2012-11-03T11:15:33Z</time>
      </trkpt>
      <trkpt lat="44.23105" lon="4.54237">
        <ele>217.597</ele>
        <time>2012-11-03T11:15:36Z</time>
      </trkpt>
      <trkpt lat="44.23103" lon="4.54215">
        <ele>215.018</ele>
        <time>2012-11-03T11:15:39Z</time>
      </trkpt>
      <trkpt lat="44.23116" lon="4.54196">
        <ele>209.757</ele>
        <time>2012-11-03T11:15:42Z</time>
      </trkpt>
      <trkpt lat="44.23122" lon="4.5418">
        <ele>208.438</ele>
        <time>2012-11-03T11:15:45Z</time>
      </trkpt>
      <trkpt lat="44.2311" lon="4.54172">
        <ele>206.218</ele>
        <time>2012-11-03T11:15:48Z</time>
      </trkpt>
      <trkpt lat="44.23095" lon="4.54183">
        <ele>204.497</ele>
        <time>2012-11-03T11:15:50Z</time>
      </trkpt>
      <trkpt lat="44.23072" lon="4.54209">
        <ele>201.287</ele>
        <time>2012-11-03T11:15:54Z</time>
      </trkpt>
      <trkpt lat="44.23045" lon="4.54244">
        <ele>197.207</ele>
        <time>2012-11-03T11:15:59Z</time>
      </trkpt>
      <trkpt lat="44.2302" lon="4.54263">
        <ele>193.136</ele>
        <time>2012-11-03T11:16:03Z</time>
      </trkpt>
      <trkpt lat="44.23015" lon="4.54283">
        <ele>191.856</ele>
        <time>2012-11-03T11:16:07Z</time>
      </trkpt>
      <trkpt lat="44.23028" lon="4.54291">
        <ele>191.847</ele>
        <time>2012-11-03T11:16:09Z</time>
      </trkpt>
      <trkpt lat="44.2306" lon="4.54294">
        <ele>195.36</ele>
        <time>2012-11-03T11:16:14Z</time>
      </trkpt>
      <trkpt lat="44.23093" lon="4.54299">
        <ele>194.72</ele>
        <time>2012-11-03T11:16:19Z</time>
      </trkpt>
      <trkpt lat="44.2312" lon="4.54307">
        <ele>191.38</ele>
        <time>2012-11-03T11:16:23Z</time>
      </trkpt>
      <trkpt lat="44.23142" lon="4.54324">
        <ele>189.81</ele>
        <time>2012-11-03T11:16:27Z</time>
      </trkpt>
      <trkpt lat="44.23137" lon="4.54338">
        <ele>186.348</ele>
        <time>2012-11-03T11:16:30Z</time>
      </trkpt>
      <trkpt lat="44.2312" lon="4.54335">
        <ele>183.377</ele>
        <time>2012-11-03T11:16:33Z</time>
      </trkpt>
      <trkpt lat="44.23089" lon="4.54327">
        <ele>184.759</ele>
        <time>2012-11-03T11:16:39Z</time>
      </trkpt>
      <trkpt lat="44.23075" lon="4.54328">
        <ele>185.79</ele>
        <time>2012-11-03T11:16:44Z</time>
      </trkpt>
      <trkpt lat="44.23064" lon="4.54332">
        <ele>186.62</ele>
        <time>2012-11-03T11:16:47Z</time>
      </trkpt>
      <trkpt lat="44.23036" lon="4.54344">
        <ele>186.88</ele>
        <time>2012-11-03T11:16:53Z</time>
      </trkpt>
      <trkpt lat="44.23018" lon="4.54352">
        <ele>186.671</ele>
        <time>2012-11-03T11:16:57Z</time>
      </trkpt>
      <trkpt lat="44.22989" lon="4.54361">
        <ele>188.151</ele>
        <time>2012-11-03T11:17:04Z</time>
      </trkpt>
      <trkpt lat="44.22969" lon="4.54371">
        <ele>188.69</ele>
        <time>2012-11-03T11:17:10Z</time>
      </trkpt>
      <trkpt lat="44.22959" lon="4.5438">
        <ele>186.489</ele>
        <time>2012-11-03T11:17:15Z</time>
      </trkpt>
      <trkpt lat="44.22949" lon="4.54394">
        <ele>186.761</ele>
        <time>2012-11-03T11:17:21Z</time>
      </trkpt>
      <trkpt lat="44.22939" lon="4.54411">
        <ele>190.071</ele>
        <time>2012-11-03T11:17:28Z</time>
      </trkpt>
      <trkpt lat="44.2293" lon="4.54423">
        <ele>191.361</ele>
        <time>2012-11-03T11:17:34Z</time>
      </trkpt>
      <trkpt lat="44.22917" lon="4.54431">
        <ele>192.321</ele>
        <time>2012-11-03T11:17:40Z</time>
      </trkpt>
      <trkpt lat="44.22899" lon="4.54436">
        <ele>194.171</ele>
        <time>2012-11-03T11:17:46Z</time>
      </trkpt>
      <trkpt lat="44.22878" lon="4.54437">
        <ele>194.24</ele>
        <time>2012-11-03T11:17:52Z</time>
      </trkpt>
      <trkpt lat="44.22869" lon="4.54439">
        <ele>194.691</ele>
        <time>2012-11-03T11:17:54Z</time>
      </trkpt>
      <trkpt lat="44.22847" lon="4.54447">
        <ele>195.472</ele>
        <time>2012-11-03T11:18:00Z</time>
      </trkpt>
      <trkpt lat="44.22829" lon="4.54446">
        <ele>198.732</ele>
        <time>2012-11-03T11:18:06Z</time>
      </trkpt>
      <trkpt lat="44.22812" lon="4.54446">
        <ele>199.511</ele>
        <time>2012-11-03T11:18:12Z</time>
      </trkpt>
      <trkpt lat="44.22789" lon="4.54444">
        <ele>200.691</ele>
        <time>2012-11-03T11:18:20Z</time>
      </trkpt>
      <trkpt lat="44.22771" lon="4.54442">
        <ele>201.121</ele>
        <time>2012-11-03T11:18:27Z</time>
      </trkpt>
      <trkpt lat="44.22761" lon="4.54449">
        <ele>200.11</ele>
        <time>2012-11-03T11:18:32Z</time>
      </trkpt>
      <trkpt lat="44.22762" lon="4.54467">
        <ele>200.721</ele>
        <time>2012-11-03T11:18:37Z</time>
      </trkpt>
      <trkpt lat="44.22773" lon="4.54493">
        <ele>203.382</ele>
        <time>2012-11-03T11:18:45Z</time>
      </trkpt>
      <trkpt lat="44.22782" lon="4.5452">
        <ele>205.271</ele>
        <time>2012-11-03T11:18:53Z</time>
      </trkpt>
      <trkpt lat="44.2279" lon="4.54544">
        <ele>205.881</ele>
        <time>2012-11-03T11:19:00Z</time>
      </trkpt>
      <trkpt lat="44.22796" lon="4.54561">
        <ele>207.111</ele>
        <time>2012-11-03T11:19:05Z</time>
      </trkpt>
      <trkpt lat="44.22806" lon="4.54581">
        <ele>209.742</ele>
        <time>2012-11-03T11:19:12Z</time>
      </trkpt>
      <trkpt lat="44.22817" lon="4.54603">
        <ele>209.201</ele>
        <time>2012-11-03T11:19:20Z</time>
      </trkpt>
      <trkpt lat="44.22824" lon="4.54621">
        <ele>211.851</ele>
        <time>2012-11-03T11:19:26Z</time>
      </trkpt>
      <trkpt lat="44.22831" lon="4.54642">
        <ele>212.471</ele>
        <time>2012-11-03T11:19:32Z</time>
      </trkpt>
      <trkpt lat="44.22835" lon="4.54665">
        <ele>214.101</ele>
        <time>2012-11-03T11:19:39Z</time>
      </trkpt>
      <trkpt lat="44.22833" lon="4.54682">
        <ele>212.79</ele>
        <time>2012-11-03T11:19:44Z</time>
      </trkpt>
      <trkpt lat="44.2282" lon="4.5469">
        <ele>213.551</ele>
        <time>2012-11-03T11:19:50Z</time>
      </trkpt>
      <trkpt lat="44.22818" lon="4.54688">
        <ele>214.082</ele>
        <time>2012-11-03T11:19:51Z</time>
      </trkpt>
      <trkpt lat="44.22801" lon="4.54668">
        <ele>218.702</ele>
        <time>2012-11-03T11:20:01Z</time>
      </trkpt>
      <trkpt lat="44.2279" lon="4.54657">
        <ele>218.552</ele>
        <time>2012-11-03T11:20:06Z</time>
      </trkpt>
      <trkpt lat="44.22773" lon="4.54648">
        <ele>219.061</ele>
        <time>2012-11-03T11:20:13Z</time>
      </trkpt>
      <trkpt lat="44.22759" lon="4.54641">
        <ele>218.18</ele>
        <time>2012-11-03T11:20:19Z</time>
      </trkpt>
      <trkpt lat="44.22744" lon="4.54629">
        <ele>217.34</ele>
        <time>2012-11-03T11:20:26Z</time>
      </trkpt>
      <trkpt lat="44.2273" lon="4.54613">
        <ele>220.763</ele>
        <time>2012-11-03T11:20:33Z</time>
      </trkpt>
      <trkpt lat="44.22715" lon="4.54603">
        <ele>220.982</ele>
        <time>2012-11-03T11:20:39Z</time>
      </trkpt>
      <trkpt lat="44.227" lon="4.54609">
        <ele>217.98</ele>
        <time>2012-11-03T11:20:45Z</time>
      </trkpt>
      <trkpt lat="44.22687" lon="4.54626">
        <ele>219.232</ele>
        <time>2012-11-03T11:20:52Z</time>
      </trkpt>
      <trkpt lat="44.22676" lon="4.54641">
        <ele>220.482</ele>
        <time>2012-11-03T11:20:58Z</time>
      </trkpt>
      <trkpt lat="44.22663" lon="4.54648">
        <ele>219.74</ele>
        <time>2012-11-03T11:21:04Z</time>
      </trkpt>
      <trkpt lat="44.22643" lon="4.54654">
        <ele>218.259</ele>
        <time>2012-11-03T11:21:12Z</time>
      </trkpt>
      <trkpt lat="44.22619" lon="4.54658">
        <ele>217.09</ele>
        <time>2012-11-03T11:21:21Z</time>
      </trkpt>
      <trkpt lat="44.22608" lon="4.54673">
        <ele>218.151</ele>
        <time>2012-11-03T11:21:27Z</time>
      </trkpt>
      <trkpt lat="44.22599" lon="4.54688">
        <ele>218.938</ele>
        <time>2012-11-03T11:21:33Z</time>
      </trkpt>
      <trkpt lat="44.22589" lon="4.54689">
        <ele>220.201</ele>
        <time>2012-11-03T11:21:38Z</time>
      </trkpt>
      <trkpt lat="44.22573" lon="4.5468">
        <ele>224.152</ele>
        <time>2012-11-03T11:21:45Z</time>
      </trkpt>
      <trkpt lat="44.22549" lon="4.54671">
        <ele>225.661</ele>
        <time>2012-11-03T11:21:54Z</time>
      </trkpt>
      <trkpt lat="44.2253" lon="4.54667">
        <ele>224.92</ele>
        <time>2012-11-03T11:22:01Z</time>
      </trkpt>
      <trkpt lat="44.22511" lon="4.54665">
        <ele>227.25</ele>
        <time>2012-11-03T11:22:08Z</time>
      </trkpt>
      <trkpt lat="44.22496" lon="4.54667">
        <ele>227.63</ele>
        <time>2012-11-03T11:22:14Z</time>
      </trkpt>
      <trkpt lat="44.22475" lon="4.54675">
        <ele>226.85</ele>
        <time>2012-11-03T11:22:22Z</time>
      </trkpt>
      <trkpt lat="44.22461" lon="4.54689">
        <ele>227.7</ele>
        <time>2012-11-03T11:22:29Z</time>
      </trkpt>
      <trkpt lat="44.22452" lon="4.54707">
        <ele>229.071</ele>
        <time>2012-11-03T11:22:35Z</time>
      </trkpt>
      <trkpt lat="44.22446" lon="4.54727">
        <ele>231.322</ele>
        <time>2012-11-03T11:22:41Z</time>
      </trkpt>
      <trkpt lat="44.22448" lon="4.54752">
        <ele>232.971</ele>
        <time>2012-11-03T11:22:47Z</time>
      </trkpt>
      <trkpt lat="44.2245" lon="4.54777">
        <ele>233.291</ele>
        <time>2012-11-03T11:22:54Z</time>
      </trkpt>
      <trkpt lat="44.22441" lon="4.54788">
        <ele>233.931</ele>
        <time>2012-11-03T11:22:59Z</time>
      </trkpt>
      <trkpt lat="44.22425" lon="4.54798">
        <ele>233.181</ele>
        <time>2012-11-03T11:23:06Z</time>
      </trkpt>
      <trkpt lat="44.22406" lon="4.54814">
        <ele>232.79</ele>
        <time>2012-11-03T11:23:14Z</time>
      </trkpt>
      <trkpt lat="44.22389" lon="4.54829">
        <ele>232.61</ele>
        <time>2012-11-03T11:23:22Z</time>
      </trkpt>
      <trkpt lat="44.22368" lon="4.54833">
        <ele>232.43</ele>
        <time>2012-11-03T11:23:30Z</time>
      </trkpt>
      <trkpt lat="44.2235" lon="4.54825">
        <ele>233.47</ele>
        <time>2012-11-03T11:23:37Z</time>
      </trkpt>
      <trkpt lat="44.22332" lon="4.54823">
        <ele>234.82</ele>
        <time>2012-11-03T11:23:44Z</time>
      </trkpt>
      <trkpt lat="44.22316" lon="4.54825">
        <ele>234.05</ele>
        <time>2012-11-03T11:23:50Z</time>
      </trkpt>
      <trkpt lat="44.22302" lon="4.54829">
        <ele>233.43</ele>
        <time>2012-11-03T11:23:56Z</time>
      </trkpt>
      <trkpt lat="44.22287" lon="4.54831">
        <ele>231.989</ele>
        <time>2012-11-03T11:24:02Z</time>
      </trkpt>
      <trkpt lat="44.22276" lon="4.5483">
        <ele>232.69</ele>
        <time>2012-11-03T11:24:07Z</time>
      </trkpt>
      <trkpt lat="44.22263" lon="4.54825">
        <ele>232.01</ele>
        <time>2012-11-03T11:24:13Z</time>
      </trkpt>
      <trkpt lat="44.22251" lon="4.54818">
        <ele>235.86</ele>
        <time>2012-11-03T11:24:19Z</time>
      </trkpt>
      <trkpt lat="44.22242" lon="4.54818">
        <ele>237.73</ele>
        <time>2012-11-03T11:24:24Z</time>
      </trkpt>
      <trkpt lat="44.22244" lon="4.54828">
        <ele>241.802</ele>
        <time>2012-11-03T11:24:30Z</time>
      </trkpt>
      <trkpt lat="44.22248" lon="4.54831">
        <ele>242.742</ele>
        <time>2012-11-03T11:24:32Z</time>
      </trkpt>
      <trkpt lat="44.22261" lon="4.54842">
        <ele>246.512</ele>
        <time>2012-11-03T11:24:39Z</time>
      </trkpt>
      <trkpt lat="44.22279" lon="4.54851">
        <ele>249.602</ele>
        <time>2012-11-03T11:24:48Z</time>
      </trkpt>
      <trkpt lat="44.22299" lon="4.54854">
        <ele>253.062</ele>
        <time>2012-11-03T11:24:56Z</time>
      </trkpt>
      <trkpt lat="44.22322" lon="4.54854">
        <ele>256.742</ele>
        <time>2012-11-03T11:25:05Z</time>
      </trkpt>
      <trkpt lat="44.22334" lon="4.54862">
        <ele>255.391</ele>
        <time>2012-11-03T11:25:11Z</time>
      </trkpt>
      <trkpt lat="44.22347" lon="4.54874">
        <ele>254.801</ele>
        <time>2012-11-03T11:25:18Z</time>
      </trkpt>
      <trkpt lat="44.22363" lon="4.54885">
        <ele>255.441</ele>
        <time>2012-11-03T11:25:26Z</time>
      </trkpt>
      <trkpt lat="44.22379" lon="4.54893">
        <ele>255.671</ele>
        <time>2012-11-03T11:25:33Z</time>
      </trkpt>
      <trkpt lat="44.22396" lon="4.54894">
        <ele>257.182</ele>
        <time>2012-11-03T11:25:40Z</time>
      </trkpt>
      <trkpt lat="44.22413" lon="4.54886">
        <ele>259.922</ele>
        <time>2012-11-03T11:25:47Z</time>
      </trkpt>
      <trkpt lat="44.22428" lon="4.54881">
        <ele>261.242</ele>
        <time>2012-11-03T11:25:53Z</time>
      </trkpt>
      <trkpt lat="44.22449" lon="4.54877">
        <ele>263.102</ele>
        <time>2012-11-03T11:26:01Z</time>
      </trkpt>
      <trkpt lat="44.22471" lon="4.54876">
        <ele>265.992</ele>
        <time>2012-11-03T11:26:10Z</time>
      </trkpt>
      <trkpt lat="44.22491" lon="4.54872">
        <ele>268.815</ele>
        <time>2012-11-03T11:26:18Z</time>
      </trkpt>
      <trkpt lat="44.22505" lon="4.54865">
        <ele>269.213</ele>
        <time>2012-11-03T11:26:24Z</time>
      </trkpt>
      <trkpt lat="44.22517" lon="4.54846">
        <ele>264.82</ele>
        <time>2012-11-03T11:26:31Z</time>
      </trkpt>
      <trkpt lat="44.22529" lon="4.54832">
        <ele>264.602</ele>
        <time>2012-11-03T11:26:38Z</time>
      </trkpt>
      <trkpt lat="44.22539" lon="4.54836">
        <ele>264.932</ele>
        <time>2012-11-03T11:26:43Z</time>
      </trkpt>
      <trkpt lat="44.22541" lon="4.54838">
        <ele>264.982</ele>
        <time>2012-11-03T11:26:44Z</time>
      </trkpt>
      <trkpt lat="44.22539" lon="4.54847">
        <ele>264.151</ele>
        <time>2012-11-03T11:26:48Z</time>
      </trkpt>
      <trkpt lat="44.22521" lon="4.54864">
        <ele>260.41</ele>
        <time>2012-11-03T11:26:58Z</time>
      </trkpt>
      <trkpt lat="44.22511" lon="4.54878">
        <ele>260.47</ele>
        <time>2012-11-03T11:27:04Z</time>
      </trkpt>
      <trkpt lat="44.22499" lon="4.54889">
        <ele>259.621</ele>
        <time>2012-11-03T11:27:10Z</time>
      </trkpt>
      <trkpt lat="44.22486" lon="4.54901">
        <ele>259.171</ele>
        <time>2012-11-03T11:27:17Z</time>
      </trkpt>
      <trkpt lat="44.22473" lon="4.54908">
        <ele>257.46</ele>
        <time>2012-11-03T11:27:23Z</time>
      </trkpt>
      <trkpt lat="44.2245" lon="4.54915">
        <ele>256.04</ele>
        <time>2012-11-03T11:27:33Z</time>
      </trkpt>
      <trkpt lat="44.2243" lon="4.54926">
        <ele>254.21</ele>
        <time>2012-11-03T11:27:42Z</time>
      </trkpt>
      <trkpt lat="44.22414" lon="4.54943">
        <ele>255.401</ele>
        <time>2012-11-03T11:27:50Z</time>
      </trkpt>
      <trkpt lat="44.22398" lon="4.5495">
        <ele>255.441</ele>
        <time>2012-11-03T11:27:57Z</time>
      </trkpt>
      <trkpt lat="44.22381" lon="4.5495">
        <ele>257.6</ele>
        <time>2012-11-03T11:28:04Z</time>
      </trkpt>
      <trkpt lat="44.22361" lon="4.54948">
        <ele>260.83</ele>
        <time>2012-11-03T11:28:12Z</time>
      </trkpt>
      <trkpt lat="44.22344" lon="4.54946">
        <ele>262.42</ele>
        <time>2012-11-03T11:28:19Z</time>
      </trkpt>
      <trkpt lat="44.22327" lon="4.54944">
        <ele>264.06</ele>
        <time>2012-11-03T11:28:26Z</time>
      </trkpt>
      <trkpt lat="44.22313" lon="4.54943">
        <ele>264.97</ele>
        <time>2012-11-03T11:28:32Z</time>
      </trkpt>
      <trkpt lat="44.22293" lon="4.54951">
        <ele>264.71</ele>
        <time>2012-11-03T11:28:40Z</time>
      </trkpt>
      <trkpt lat="44.22276" lon="4.54968">
        <ele>266.371</ele>
        <time>2012-11-03T11:28:49Z</time>
      </trkpt>
      <trkpt lat="44.22262" lon="4.54981">
        <ele>268.03</ele>
        <time>2012-11-03T11:28:56Z</time>
      </trkpt>
      <trkpt lat="44.22259" lon="4.54985">
        <ele>268.541</ele>
        <time>2012-11-03T11:28:58Z</time>
      </trkpt>
      <trkpt lat="44.2226" lon="4.54995">
        <ele>269.971</ele>
        <time>2012-11-03T11:29:02Z</time>
      </trkpt>
      <trkpt lat="44.22264" lon="4.54997">
        <ele>271.142</ele>
        <time>2012-11-03T11:29:04Z</time>
      </trkpt>
      <trkpt lat="44.22287" lon="4.54999">
        <ele>275.974</ele>
        <time>2012-11-03T11:29:14Z</time>
      </trkpt>
      <trkpt lat="44.22305" lon="4.55">
        <ele>279.473</ele>
        <time>2012-11-03T11:29:22Z</time>
      </trkpt>
      <trkpt lat="44.22322" lon="4.55008">
        <ele>281.032</ele>
        <time>2012-11-03T11:29:30Z</time>
      </trkpt>
      <trkpt lat="44.22334" lon="4.55015">
        <ele>283.613</ele>
        <time>2012-11-03T11:29:36Z</time>
      </trkpt>
      <trkpt lat="44.22348" lon="4.55026">
        <ele>284.673</ele>
        <time>2012-11-03T11:29:43Z</time>
      </trkpt>
      <trkpt lat="44.2236" lon="4.55036">
        <ele>285.563</ele>
        <time>2012-11-03T11:29:49Z</time>
      </trkpt>
      <trkpt lat="44.2238" lon="4.55054">
        <ele>286.922</ele>
        <time>2012-11-03T11:30:00Z</time>
      </trkpt>
      <trkpt lat="44.22395" lon="4.5506">
        <ele>288.953</ele>
        <time>2012-11-03T11:30:08Z</time>
      </trkpt>
      <trkpt lat="44.2241" lon="4.55063">
        <ele>291.972</ele>
        <time>2012-11-03T11:30:16Z</time>
      </trkpt>
      <trkpt lat="44.22426" lon="4.55066">
        <ele>292.893</ele>
        <time>2012-11-03T11:30:24Z</time>
      </trkpt>
      <trkpt lat="44.22439" lon="4.5507">
        <ele>293.112</ele>
        <time>2012-11-03T11:30:31Z</time>
      </trkpt>
      <trkpt lat="44.22453" lon="4.5508">
        <ele>291.962</ele>
        <time>2012-11-03T11:30:39Z</time>
      </trkpt>
      <trkpt lat="44.22463" lon="4.55093">
        <ele>289.501</ele>
        <time>2012-11-03T11:30:45Z</time>
      </trkpt>
      <trkpt lat="44.22477" lon="4.55102">
        <ele>287.872</ele>
        <time>2012-11-03T11:30:52Z</time>
      </trkpt>
      <trkpt lat="44.22492" lon="4.55109">
        <ele>287.522</ele>
        <time>2012-11-03T11:30:59Z</time>
      </trkpt>
      <trkpt lat="44.22508" lon="4.55118">
        <ele>287.152</ele>
        <time>2012-11-03T11:31:06Z</time>
      </trkpt>
      <trkpt lat="44.22524" lon="4.55127">
        <ele>287.921</ele>
        <time>2012-11-03T11:31:14Z</time>
      </trkpt>
      <trkpt lat="44.2254" lon="4.55134">
        <ele>287.452</ele>
        <time>2012-11-03T11:31:21Z</time>
      </trkpt>
      <trkpt lat="44.22559" lon="4.55145">
        <ele>286.612</ele>
        <time>2012-11-03T11:31:29Z</time>
      </trkpt>
      <trkpt lat="44.22578" lon="4.55155">
        <ele>287.713</ele>
        <time>2012-11-03T11:31:38Z</time>
      </trkpt>
      <trkpt lat="44.22595" lon="4.55163">
        <ele>288.303</ele>
        <time>2012-11-03T11:31:46Z</time>
      </trkpt>
      <trkpt lat="44.22615" lon="4.5517">
        <ele>290.113</ele>
        <time>2012-11-03T11:31:56Z</time>
      </trkpt>
      <trkpt lat="44.22628" lon="4.55176">
        <ele>291.784</ele>
        <time>2012-11-03T11:32:02Z</time>
      </trkpt>
      <trkpt lat="44.22641" lon="4.55182">
        <ele>292.663</ele>
        <time>2012-11-03T11:32:09Z</time>
      </trkpt>
      <trkpt lat="44.22658" lon="4.55192">
        <ele>294.463</ele>
        <time>2012-11-03T11:32:18Z</time>
      </trkpt>
      <trkpt lat="44.22674" lon="4.55201">
        <ele>297.274</ele>
        <time>2012-11-03T11:32:27Z</time>
      </trkpt>
      <trkpt lat="44.22689" lon="4.55208">
        <ele>301.425</ele>
        <time>2012-11-03T11:32:35Z</time>
      </trkpt>
      <trkpt lat="44.22704" lon="4.55214">
        <ele>305.745</ele>
        <time>2012-11-03T11:32:43Z</time>
      </trkpt>
      <trkpt lat="44.22721" lon="4.55222">
        <ele>306.454</ele>
        <time>2012-11-03T11:32:52Z</time>
      </trkpt>
      <trkpt lat="44.22736" lon="4.55228">
        <ele>306.623</ele>
        <time>2012-11-03T11:33:00Z</time>
      </trkpt>
      <trkpt lat="44.22754" lon="4.55236">
        <ele>307.344</ele>
        <time>2012-11-03T11:33:09Z</time>
      </trkpt>
      <trkpt lat="44.22767" lon="4.55242">
        <ele>309.614</ele>
        <time>2012-11-03T11:33:16Z</time>
      </trkpt>
      <trkpt lat="44.22784" lon="4.5525">
        <ele>309.954</ele>
        <time>2012-11-03T11:33:25Z</time>
      </trkpt>
      <trkpt lat="44.228" lon="4.55263">
        <ele>308.433</ele>
        <time>2012-11-03T11:33:34Z</time>
      </trkpt>
      <trkpt lat="44.22813" lon="4.55275">
        <ele>306.313</ele>
        <time>2012-11-03T11:33:42Z</time>
      </trkpt>
      <trkpt lat="44.22825" lon="4.55283">
        <ele>305.893</ele>
        <time>2012-11-03T11:33:50Z</time>
      </trkpt>
      <trkpt lat="44.22837" lon="4.55285">
        <ele>309.084</ele>
        <time>2012-11-03T11:33:56Z</time>
      </trkpt>
      <trkpt lat="44.22851" lon="4.55285">
        <ele>315.846</ele>
        <time>2012-11-03T11:34:04Z</time>
      </trkpt>
      <trkpt lat="44.22865" lon="4.5528">
        <ele>320.115</ele>
        <time>2012-11-03T11:34:12Z</time>
      </trkpt>
      <trkpt lat="44.22881" lon="4.55276">
        <ele>322.795</ele>
        <time>2012-11-03T11:34:22Z</time>
      </trkpt>
      <trkpt lat="44.22892" lon="4.55272">
        <ele>324.375</ele>
        <time>2012-11-03T11:34:29Z</time>
      </trkpt>
      <trkpt lat="44.22902" lon="4.55268">
        <ele>325.294</ele>
        <time>2012-11-03T11:34:36Z</time>
      </trkpt>
      <trkpt lat="44.22913" lon="4.55265">
        <ele>326.665</ele>
        <time>2012-11-03T11:34:44Z</time>
      </trkpt>
      <trkpt lat="44.22924" lon="4.55263">
        <ele>326.294</ele>
        <time>2012-11-03T11:34:51Z</time>
      </trkpt>
      <trkpt lat="44.2294" lon="4.55262">
        <ele>324.683</ele>
        <time>2012-11-03T11:35:01Z</time>
      </trkpt>
      <trkpt lat="44.22952" lon="4.55264">
        <ele>324.633</ele>
        <time>2012-11-03T11:35:09Z</time>
      </trkpt>
      <trkpt lat="44.22966" lon="4.55266">
        <ele>327.554</ele>
        <time>2012-11-03T11:35:18Z</time>
      </trkpt>
      <trkpt lat="44.22981" lon="4.55263">
        <ele>331.955</ele>
        <time>2012-11-03T11:35:27Z</time>
      </trkpt>
      <trkpt lat="44.22997" lon="4.55259">
        <ele>334.595</ele>
        <time>2012-11-03T11:35:37Z</time>
      </trkpt>
      <trkpt lat="44.23015" lon="4.55262">
        <ele>333.054</ele>
        <time>2012-11-03T11:35:46Z</time>
      </trkpt>
      <trkpt lat="44.23031" lon="4.55261">
        <ele>332.094</ele>
        <time>2012-11-03T11:35:54Z</time>
      </trkpt>
      <trkpt lat="44.23046" lon="4.55258">
        <ele>331.855</ele>
        <time>2012-11-03T11:36:01Z</time>
      </trkpt>
      <trkpt lat="44.23063" lon="4.5526">
        <ele>332.335</ele>
        <time>2012-11-03T11:36:09Z</time>
      </trkpt>
      <trkpt lat="44.23079" lon="4.55265">
        <ele>332.504</ele>
        <time>2012-11-03T11:36:16Z</time>
      </trkpt>
      <trkpt lat="44.23094" lon="4.55271">
        <ele>331.524</ele>
        <time>2012-11-03T11:36:22Z</time>
      </trkpt>
      <trkpt lat="44.23104" lon="4.55286">
        <ele>330.304</ele>
        <time>2012-11-03T11:36:27Z</time>
      </trkpt>
      <trkpt lat="44.23111" lon="4.55302">
        <ele>326.842</ele>
        <time>2012-11-03T11:36:30Z</time>
      </trkpt>
      <trkpt lat="44.23117" lon="4.55321">
        <ele>325.632</ele>
        <time>2012-11-03T11:36:33Z</time>
      </trkpt>
      <trkpt lat="44.23128" lon="4.55345">
        <ele>322.69</ele>
        <time>2012-11-03T11:36:37Z</time>
      </trkpt>
      <trkpt lat="44.23152" lon="4.55372">
        <ele>320.252</ele>
        <time>2012-11-03T11:36:43Z</time>
      </trkpt>
      <trkpt lat="44.23179" lon="4.55395">
        <ele>318.552</ele>
        <time>2012-11-03T11:36:50Z</time>
      </trkpt>
      <trkpt lat="44.23186" lon="4.55405">
        <ele>318.672</ele>
        <time>2012-11-03T11:36:52Z</time>
      </trkpt>
      <trkpt lat="44.232" lon="4.55444">
        <ele>317.872</ele>
        <time>2012-11-03T11:36:58Z</time>
      </trkpt>
      <trkpt lat="44.23204" lon="4.55482">
        <ele>316.601</ele>
        <time>2012-11-03T11:37:03Z</time>
      </trkpt>
      <trkpt lat="44.2321" lon="4.55524">
        <ele>314.821</ele>
        <time>2012-11-03T11:37:08Z</time>
      </trkpt>
      <trkpt lat="44.23213" lon="4.55533">
        <ele>312.62</ele>
        <time>2012-11-03T11:37:10Z</time>
      </trkpt>
      <trkpt lat="44.2322" lon="4.55529">
        <ele>309.03</ele>
        <time>2012-11-03T11:37:14Z</time>
      </trkpt>
      <trkpt lat="44.23226" lon="4.55506">
        <ele>305.16</ele>
        <time>2012-11-03T11:37:19Z</time>
      </trkpt>
      <trkpt lat="44.23229" lon="4.55486">
        <ele>302.6</ele>
        <time>2012-11-03T11:37:22Z</time>
      </trkpt>
      <trkpt lat="44.23238" lon="4.55461">
        <ele>298.599</ele>
        <time>2012-11-03T11:37:26Z</time>
      </trkpt>
      <trkpt lat="44.23251" lon="4.55417">
        <ele>295.841</ele>
        <time>2012-11-03T11:37:33Z</time>
      </trkpt>
      <trkpt lat="44.23268" lon="4.55398">
        <ele>294.702</ele>
        <time>2012-11-03T11:37:38Z</time>
      </trkpt>
      <trkpt lat="44.23275" lon="4.55396">
        <ele>294.613</ele>
        <time>2012-11-03T11:37:40Z</time>
      </trkpt>
      <trkpt lat="44.23293" lon="4.55388">
        <ele>293.993</ele>
        <time>2012-11-03T11:37:46Z</time>
      </trkpt>
      <trkpt lat="44.23303" lon="4.55382">
        <ele>294.993</ele>
        <time>2012-11-03T11:37:50Z</time>
      </trkpt>
      <trkpt lat="44.23317" lon="4.55373">
        <ele>292.462</ele>
        <time>2012-11-03T11:37:54Z</time>
      </trkpt>
      <trkpt lat="44.23339" lon="4.55368">
        <ele>291.483</ele>
        <time>2012-11-03T11:37:59Z</time>
      </trkpt>
      <trkpt lat="44.23361" lon="4.55352">
        <ele>291.243</ele>
        <time>2012-11-03T11:38:05Z</time>
      </trkpt>
      <trkpt lat="44.23385" lon="4.55331">
        <ele>291.693</ele>
        <time>2012-11-03T11:38:11Z</time>
      </trkpt>
      <trkpt lat="44.23406" lon="4.5532">
        <ele>289.233</ele>
        <time>2012-11-03T11:38:17Z</time>
      </trkpt>
      <trkpt lat="44.2341" lon="4.55322">
        <ele>288.502</ele>
        <time>2012-11-03T11:38:18Z</time>
      </trkpt>
      <trkpt lat="44.23428" lon="4.55337">
        <ele>286.262</ele>
        <time>2012-11-03T11:38:23Z</time>
      </trkpt>
      <trkpt lat="44.23432" lon="4.55338">
        <ele>285.142</ele>
        <time>2012-11-03T11:38:24Z</time>
      </trkpt>
      <trkpt lat="44.23445" lon="4.55347">
        <ele>283.303</ele>
        <time>2012-11-03T11:38:29Z</time>
      </trkpt>
      <trkpt lat="44.23462" lon="4.55353">
        <ele>282.194</ele>
        <time>2012-11-03T11:38:35Z</time>
      </trkpt>
      <trkpt lat="44.23475" lon="4.55357">
        <ele>280.743</ele>
        <time>2012-11-03T11:38:39Z</time>
      </trkpt>
      <trkpt lat="44.23491" lon="4.55359">
        <ele>279.023</ele>
        <time>2012-11-03T11:38:44Z</time>
      </trkpt>
      <trkpt lat="44.23508" lon="4.5536">
        <ele>276.903</ele>
        <time>2012-11-03T11:38:49Z</time>
      </trkpt>
      <trkpt lat="44.23521" lon="4.55363">
        <ele>274.832</ele>
        <time>2012-11-03T11:38:53Z</time>
      </trkpt>
      <trkpt lat="44.2354" lon="4.55365">
        <ele>273.213</ele>
        <time>2012-11-03T11:38:58Z</time>
      </trkpt>
      <trkpt lat="44.23556" lon="4.55365">
        <ele>272.204</ele>
        <time>2012-11-03T11:39:03Z</time>
      </trkpt>
      <trkpt lat="44.23561" lon="4.55366">
        <ele>270.623</ele>
        <time>2012-11-03T11:39:06Z</time>
      </trkpt>
      <trkpt lat="44.23568" lon="4.55372">
        <ele>267.952</ele>
        <time>2012-11-03T11:39:12Z</time>
      </trkpt>
      <trkpt lat="44.2357" lon="4.55374">
        <ele>267.152</ele>
        <time>2012-11-03T11:39:13Z</time>
      </trkpt>
      <trkpt lat="44.23581" lon="4.55383">
        <ele>264.582</ele>
        <time>2012-11-03T11:39:19Z</time>
      </trkpt>
      <trkpt lat="44.23588" lon="4.55391">
        <ele>263.433</ele>
        <time>2012-11-03T11:39:22Z</time>
      </trkpt>
      <trkpt lat="44.23596" lon="4.55392">
        <ele>261.783</ele>
        <time>2012-11-03T11:39:26Z</time>
      </trkpt>
      <trkpt lat="44.23602" lon="4.55381">
        <ele>259.213</ele>
        <time>2012-11-03T11:39:31Z</time>
      </trkpt>
      <trkpt lat="44.236" lon="4.55368">
        <ele>257.963</ele>
        <time>2012-11-03T11:39:36Z</time>
      </trkpt>
      <trkpt lat="44.236" lon="4.55349">
        <ele>256.573</ele>
        <time>2012-11-03T11:39:41Z</time>
      </trkpt>
      <trkpt lat="44.23604" lon="4.55336">
        <ele>251.772</ele>
        <time>2012-11-03T11:39:46Z</time>
      </trkpt>
      <trkpt lat="44.23612" lon="4.55324">
        <ele>247.971</ele>
        <time>2012-11-03T11:39:51Z</time>
      </trkpt>
      <trkpt lat="44.23621" lon="4.5531">
        <ele>245.071</ele>
        <time>2012-11-03T11:39:56Z</time>
      </trkpt>
      <trkpt lat="44.23628" lon="4.55304">
        <ele>242.89</ele>
        <time>2012-11-03T11:39:59Z</time>
      </trkpt>
      <trkpt lat="44.23644" lon="4.55295">
        <ele>237.72</ele>
        <time>2012-11-03T11:40:05Z</time>
      </trkpt>
      <trkpt lat="44.23656" lon="4.55286">
        <ele>236.571</ele>
        <time>2012-11-03T11:40:10Z</time>
      </trkpt>
      <trkpt lat="44.23664" lon="4.55283">
        <ele>234.081</ele>
        <time>2012-11-03T11:40:14Z</time>
      </trkpt>
      <trkpt lat="44.23667" lon="4.55282">
        <ele>233.462</ele>
        <time>2012-11-03T11:40:16Z</time>
      </trkpt>
      <trkpt lat="44.23677" lon="4.55281">
        <ele>231.554</ele>
        <time>2012-11-03T11:40:22Z</time>
      </trkpt>
      <trkpt lat="44.23688" lon="4.55281">
        <ele>237.725</ele>
        <time>2012-11-03T11:40:39Z</time>
      </trkpt>
      <trkpt lat="44.23699" lon="4.5528">
        <ele>239.306</ele>
        <time>2012-11-03T11:40:44Z</time>
      </trkpt>
      <trkpt lat="44.23717" lon="4.55278">
        <ele>238.684</ele>
        <time>2012-11-03T11:40:51Z</time>
      </trkpt>
      <trkpt lat="44.23734" lon="4.55278">
        <ele>236.373</ele>
        <time>2012-11-03T11:40:56Z</time>
      </trkpt>
      <trkpt lat="44.23754" lon="4.55279">
        <ele>233.032</ele>
        <time>2012-11-03T11:41:01Z</time>
      </trkpt>
      <trkpt lat="44.23774" lon="4.55291">
        <ele>229.982</ele>
        <time>2012-11-03T11:41:06Z</time>
      </trkpt>
      <trkpt lat="44.23792" lon="4.55306">
        <ele>223.911</ele>
        <time>2012-11-03T11:41:12Z</time>
      </trkpt>
      <trkpt lat="44.23805" lon="4.55316">
        <ele>219.331</ele>
        <time>2012-11-03T11:41:17Z</time>
      </trkpt>
      <trkpt lat="44.23815" lon="4.55321">
        <ele>215.001</ele>
        <time>2012-11-03T11:41:22Z</time>
      </trkpt>
      <trkpt lat="44.2382" lon="4.55322">
        <ele>214.291</ele>
        <time>2012-11-03T11:41:24Z</time>
      </trkpt>
      <trkpt lat="44.23827" lon="4.55321">
        <ele>212.383</ele>
        <time>2012-11-03T11:41:29Z</time>
      </trkpt>
      <trkpt lat="44.2383" lon="4.5532">
        <ele>210.264</ele>
        <time>2012-11-03T11:41:32Z</time>
      </trkpt>
      <trkpt lat="44.23837" lon="4.55319">
        <ele>215.035</ele>
        <time>2012-11-03T11:41:45Z</time>
      </trkpt>
      <trkpt lat="44.23841" lon="4.55322">
        <ele>211.594</ele>
        <time>2012-11-03T11:41:57Z</time>
      </trkpt>
      <trkpt lat="44.23846" lon="4.55319">
        <ele>208.545</ele>
        <time>2012-11-03T11:42:09Z</time>
      </trkpt>
      <trkpt lat="44.23857" lon="4.55311">
        <ele>211.196</ele>
        <time>2012-11-03T11:42:15Z</time>
      </trkpt>
      <trkpt lat="44.23867" lon="4.55308">
        <ele>212.166</ele>
        <time>2012-11-03T11:42:20Z</time>
      </trkpt>
      <trkpt lat="44.23869" lon="4.55308">
        <ele>211.686</ele>
        <time>2012-11-03T11:42:23Z</time>
      </trkpt>
      <trkpt lat="44.23878" lon="4.55322">
        <ele>203.935</ele>
        <time>2012-11-03T11:43:17Z</time>
      </trkpt>
      <trkpt lat="44.23881" lon="4.55327">
        <ele>204.025</ele>
        <time>2012-11-03T11:43:18Z</time>
      </trkpt>
      <trkpt lat="44.23903" lon="4.55356">
        <ele>204.284</ele>
        <time>2012-11-03T11:43:24Z</time>
      </trkpt>
      <trkpt lat="44.23911" lon="4.55367">
        <ele>203.864</ele>
        <time>2012-11-03T11:43:26Z</time>
      </trkpt>
      <trkpt lat="44.23926" lon="4.55396">
        <ele>203.184</ele>
        <time>2012-11-03T11:43:30Z</time>
      </trkpt>
      <trkpt lat="44.23931" lon="4.55411">
        <ele>202.773</ele>
        <time>2012-11-03T11:43:32Z</time>
      </trkpt>
      <trkpt lat="44.23941" lon="4.55427">
        <ele>201.234</ele>
        <time>2012-11-03T11:43:36Z</time>
      </trkpt>
      <trkpt lat="44.23951" lon="4.55423">
        <ele>200.864</ele>
        <time>2012-11-03T11:43:40Z</time>
      </trkpt>
      <trkpt lat="44.23953" lon="4.55417">
        <ele>201.135</ele>
        <time>2012-11-03T11:43:43Z</time>
      </trkpt>
      <trkpt lat="44.23953" lon="4.55417">
        <ele>201.076</ele>
        <time>2012-11-03T11:43:45Z</time>
      </trkpt>
      <trkpt lat="44.23951" lon="4.55417">
        <ele>201.136</ele>
        <time>2012-11-03T11:43:50Z</time>
      </trkpt>
      <trkpt lat="44.23949" lon="4.55419">
        <ele>201.443</ele>
        <time>2012-11-03T11:43:55Z</time>
      </trkpt>
      <trkpt lat="44.23944" lon="4.55427">
        <ele>199.326</ele>
        <time>2012-11-03T12:12:54Z</time>
      </trkpt>
      <trkpt lat="44.23933" lon="4.55421">
        <ele>202.117</ele>
        <time>2012-11-03T12:13:02Z</time>
      </trkpt>
      <trkpt lat="44.23928" lon="4.55406">
        <ele>204.807</ele>
        <time>2012-11-03T12:13:08Z</time>
      </trkpt>
      <trkpt lat="44.23921" lon="4.55388">
        <ele>206.367</ele>
        <time>2012-11-03T12:13:14Z</time>
      </trkpt>
      <trkpt lat="44.23908" lon="4.55364">
        <ele>208.157</ele>
        <time>2012-11-03T12:13:23Z</time>
      </trkpt>
      <trkpt lat="44.23895" lon="4.55348">
        <ele>209.827</ele>
        <time>2012-11-03T12:13:31Z</time>
      </trkpt>
      <trkpt lat="44.23882" lon="4.55331">
        <ele>211.357</ele>
        <time>2012-11-03T12:13:39Z</time>
      </trkpt>
      <trkpt lat="44.23875" lon="4.5531">
        <ele>211.417</ele>
        <time>2012-11-03T12:13:47Z</time>
      </trkpt>
      <trkpt lat="44.23873" lon="4.55293">
        <ele>212.036</ele>
        <time>2012-11-03T12:13:53Z</time>
      </trkpt>
      <trkpt lat="44.23873" lon="4.55279">
        <ele>211.446</ele>
        <time>2012-11-03T12:13:59Z</time>
      </trkpt>
      <trkpt lat="44.23874" lon="4.55264">
        <ele>212.076</ele>
        <time>2012-11-03T12:14:06Z</time>
      </trkpt>
      <trkpt lat="44.23873" lon="4.55251">
        <ele>213.386</ele>
        <time>2012-11-03T12:14:12Z</time>
      </trkpt>
      <trkpt lat="44.23871" lon="4.55237">
        <ele>214.296</ele>
        <time>2012-11-03T12:14:18Z</time>
      </trkpt>
      <trkpt lat="44.23869" lon="4.55217">
        <ele>216.647</ele>
        <time>2012-11-03T12:14:26Z</time>
      </trkpt>
      <trkpt lat="44.23868" lon="4.55199">
        <ele>217.847</ele>
        <time>2012-11-03T12:14:34Z</time>
      </trkpt>
      <trkpt lat="44.23866" lon="4.55185">
        <ele>220.646</ele>
        <time>2012-11-03T12:14:40Z</time>
      </trkpt>
      <trkpt lat="44.23864" lon="4.55174">
        <ele>222.917</ele>
        <time>2012-11-03T12:14:45Z</time>
      </trkpt>
      <trkpt lat="44.23859" lon="4.55153">
        <ele>224.368</ele>
        <time>2012-11-03T12:14:53Z</time>
      </trkpt>
      <trkpt lat="44.23856" lon="4.55141">
        <ele>226.066</ele>
        <time>2012-11-03T12:14:59Z</time>
      </trkpt>
      <trkpt lat="44.23852" lon="4.55121">
        <ele>228.356</ele>
        <time>2012-11-03T12:15:07Z</time>
      </trkpt>
      <trkpt lat="44.23851" lon="4.55104">
        <ele>230.407</ele>
        <time>2012-11-03T12:15:14Z</time>
      </trkpt>
      <trkpt lat="44.2385" lon="4.551">
        <ele>230.797</ele>
        <time>2012-11-03T12:15:16Z</time>
      </trkpt>
      <trkpt lat="44.23851" lon="4.55087">
        <ele>231.907</ele>
        <time>2012-11-03T12:15:21Z</time>
      </trkpt>
      <trkpt lat="44.23853" lon="4.55066">
        <ele>232.107</ele>
        <time>2012-11-03T12:15:31Z</time>
      </trkpt>
      <trkpt lat="44.23855" lon="4.55051">
        <ele>231.045</ele>
        <time>2012-11-03T12:15:36Z</time>
      </trkpt>
      <trkpt lat="44.23862" lon="4.55033">
        <ele>229.175</ele>
        <time>2012-11-03T12:15:44Z</time>
      </trkpt>
      <trkpt lat="44.23869" lon="4.55031">
        <ele>228.464</ele>
        <time>2012-11-03T12:15:49Z</time>
      </trkpt>
      <trkpt lat="44.23879" lon="4.55026">
        <ele>227.364</ele>
        <time>2012-11-03T12:15:55Z</time>
      </trkpt>
      <trkpt lat="44.23887" lon="4.55016">
        <ele>226.865</ele>
        <time>2012-11-03T12:16:02Z</time>
      </trkpt>
      <trkpt lat="44.23889" lon="4.55015">
        <ele>227.575</ele>
        <time>2012-11-03T12:16:03Z</time>
      </trkpt>
      <trkpt lat="44.23893" lon="4.55003">
        <ele>229.045</ele>
        <time>2012-11-03T12:16:09Z</time>
      </trkpt>
      <trkpt lat="44.23894" lon="4.55001">
        <ele>228.935</ele>
        <time>2012-11-03T12:16:10Z</time>
      </trkpt>
      <trkpt lat="44.23903" lon="4.54987">
        <ele>229.195</ele>
        <time>2012-11-03T12:16:18Z</time>
      </trkpt>
      <trkpt lat="44.2391" lon="4.54982">
        <ele>233.207</ele>
        <time>2012-11-03T12:16:26Z</time>
      </trkpt>
      <trkpt lat="44.23912" lon="4.54982">
        <ele>235.007</ele>
        <time>2012-11-03T12:16:28Z</time>
      </trkpt>
      <trkpt lat="44.23919" lon="4.54992">
        <ele>234.856</ele>
        <time>2012-11-03T12:16:35Z</time>
      </trkpt>
      <trkpt lat="44.23921" lon="4.54994">
        <ele>234.245</ele>
        <time>2012-11-03T12:16:37Z</time>
      </trkpt>
      <trkpt lat="44.23924" lon="4.55">
        <ele>235.246</ele>
        <time>2012-11-03T12:16:40Z</time>
      </trkpt>
      <trkpt lat="44.23927" lon="4.55009">
        <ele>235.045</ele>
        <time>2012-11-03T12:16:45Z</time>
      </trkpt>
      <trkpt lat="44.23932" lon="4.55028">
        <ele>234.376</ele>
        <time>2012-11-03T12:16:55Z</time>
      </trkpt>
      <trkpt lat="44.23936" lon="4.55038">
        <ele>236.246</ele>
        <time>2012-11-03T12:17:01Z</time>
      </trkpt>
      <trkpt lat="44.23942" lon="4.55046">
        <ele>237.896</ele>
        <time>2012-11-03T12:17:06Z</time>
      </trkpt>
      <trkpt lat="44.23953" lon="4.55055">
        <ele>238.066</ele>
        <time>2012-11-03T12:17:13Z</time>
      </trkpt>
      <trkpt lat="44.23968" lon="4.55057">
        <ele>239.986</ele>
        <time>2012-11-03T12:17:22Z</time>
      </trkpt>
      <trkpt lat="44.23975" lon="4.55059">
        <ele>240.636</ele>
        <time>2012-11-03T12:17:27Z</time>
      </trkpt>
      <trkpt lat="44.23975" lon="4.55059">
        <ele>240.534</ele>
        <time>2012-11-03T12:17:28Z</time>
      </trkpt>
      <trkpt lat="44.23979" lon="4.55061">
        <ele>242.888</ele>
        <time>2012-11-03T12:20:03Z</time>
      </trkpt>
      <trkpt lat="44.23995" lon="4.55059">
        <ele>241.105</ele>
        <time>2012-11-03T12:20:11Z</time>
      </trkpt>
      <trkpt lat="44.2401" lon="4.55058">
        <ele>240.495</ele>
        <time>2012-11-03T12:20:18Z</time>
      </trkpt>
      <trkpt lat="44.24021" lon="4.55056">
        <ele>239.553</ele>
        <time>2012-11-03T12:20:24Z</time>
      </trkpt>
      <trkpt lat="44.24039" lon="4.55054">
        <ele>239.834</ele>
        <time>2012-11-03T12:20:32Z</time>
      </trkpt>
      <trkpt lat="44.24054" lon="4.55051">
        <ele>239.173</ele>
        <time>2012-11-03T12:20:38Z</time>
      </trkpt>
      <trkpt lat="44.2408" lon="4.55051">
        <ele>240.896</ele>
        <time>2012-11-03T12:20:45Z</time>
      </trkpt>
      <trkpt lat="44.24097" lon="4.55059">
        <ele>242.386</ele>
        <time>2012-11-03T12:20:49Z</time>
      </trkpt>
      <trkpt lat="44.24125" lon="4.55075">
        <ele>241.345</ele>
        <time>2012-11-03T12:20:54Z</time>
      </trkpt>
      <trkpt lat="44.24146" lon="4.55099">
        <ele>239.911</ele>
        <time>2012-11-03T12:20:58Z</time>
      </trkpt>
      <trkpt lat="44.24171" lon="4.55147">
        <ele>234.555</ele>
        <time>2012-11-03T12:21:04Z</time>
      </trkpt>
      <trkpt lat="44.2419" lon="4.55161">
        <ele>231.41</ele>
        <time>2012-11-03T12:21:08Z</time>
      </trkpt>
      <trkpt lat="44.24195" lon="4.55158">
        <ele>230.472</ele>
        <time>2012-11-03T12:21:10Z</time>
      </trkpt>
      <trkpt lat="44.24214" lon="4.55136">
        <ele>231.461</ele>
        <time>2012-11-03T12:21:17Z</time>
      </trkpt>
      <trkpt lat="44.24226" lon="4.55106">
        <ele>231.441</ele>
        <time>2012-11-03T12:21:24Z</time>
      </trkpt>
      <trkpt lat="44.24228" lon="4.55082">
        <ele>232.212</ele>
        <time>2012-11-03T12:21:30Z</time>
      </trkpt>
      <trkpt lat="44.24231" lon="4.55071">
        <ele>232.123</ele>
        <time>2012-11-03T12:21:33Z</time>
      </trkpt>
      <trkpt lat="44.24242" lon="4.55071">
        <ele>234.155</ele>
        <time>2012-11-03T12:21:38Z</time>
      </trkpt>
      <trkpt lat="44.24244" lon="4.55073">
        <ele>234.836</ele>
        <time>2012-11-03T12:21:39Z</time>
      </trkpt>
      <trkpt lat="44.24255" lon="4.55091">
        <ele>236.124</ele>
        <time>2012-11-03T12:21:45Z</time>
      </trkpt>
      <trkpt lat="44.24265" lon="4.55103">
        <ele>238.014</ele>
        <time>2012-11-03T12:21:50Z</time>
      </trkpt>
      <trkpt lat="44.24279" lon="4.55105">
        <ele>239.665</ele>
        <time>2012-11-03T12:21:55Z</time>
      </trkpt>
      <trkpt lat="44.24289" lon="4.55098">
        <ele>240.647</ele>
        <time>2012-11-03T12:21:59Z</time>
      </trkpt>
      <trkpt lat="44.24298" lon="4.55082">
        <ele>241.815</ele>
        <time>2012-11-03T12:22:05Z</time>
      </trkpt>
      <trkpt lat="44.24302" lon="4.55065">
        <ele>241.403</ele>
        <time>2012-11-03T12:22:11Z</time>
      </trkpt>
      <trkpt lat="44.24303" lon="4.55053">
        <ele>241.913</ele>
        <time>2012-11-03T12:22:15Z</time>
      </trkpt>
      <trkpt lat="44.24313" lon="4.55041">
        <ele>242.262</ele>
        <time>2012-11-03T12:22:22Z</time>
      </trkpt>
      <trkpt lat="44.24322" lon="4.55037">
        <ele>244.917</ele>
        <time>2012-11-03T12:22:27Z</time>
      </trkpt>
      <trkpt lat="44.2434" lon="4.55032">
        <ele>246.915</ele>
        <time>2012-11-03T12:22:34Z</time>
      </trkpt>
      <trkpt lat="44.24353" lon="4.5503">
        <ele>249.268</ele>
        <time>2012-11-03T12:22:40Z</time>
      </trkpt>
      <trkpt lat="44.24366" lon="4.55027">
        <ele>251.749</ele>
        <time>2012-11-03T12:22:45Z</time>
      </trkpt>
      <trkpt lat="44.24383" lon="4.5502">
        <ele>252.578</ele>
        <time>2012-11-03T12:22:52Z</time>
      </trkpt>
      <trkpt lat="44.24399" lon="4.55009">
        <ele>254.088</ele>
        <time>2012-11-03T12:22:59Z</time>
      </trkpt>
      <trkpt lat="44.24413" lon="4.5499">
        <ele>254.657</ele>
        <time>2012-11-03T12:23:07Z</time>
      </trkpt>
      <trkpt lat="44.24422" lon="4.54971">
        <ele>255.115</ele>
        <time>2012-11-03T12:23:14Z</time>
      </trkpt>
      <trkpt lat="44.24428" lon="4.54952">
        <ele>257.469</ele>
        <time>2012-11-03T12:23:20Z</time>
      </trkpt>
      <trkpt lat="44.24431" lon="4.54928">
        <ele>258.728</ele>
        <time>2012-11-03T12:23:27Z</time>
      </trkpt>
      <trkpt lat="44.24437" lon="4.54904">
        <ele>259.086</ele>
        <time>2012-11-03T12:23:34Z</time>
      </trkpt>
      <trkpt lat="44.24451" lon="4.54891">
        <ele>264.453</ele>
        <time>2012-11-03T12:23:39Z</time>
      </trkpt>
      <trkpt lat="44.24463" lon="4.54888">
        <ele>264.678</ele>
        <time>2012-11-03T12:23:44Z</time>
      </trkpt>
      <trkpt lat="44.24477" lon="4.54893">
        <ele>264.739</ele>
        <time>2012-11-03T12:23:50Z</time>
      </trkpt>
      <trkpt lat="44.2449" lon="4.54906">
        <ele>262.956</ele>
        <time>2012-11-03T12:23:55Z</time>
      </trkpt>
      <trkpt lat="44.24508" lon="4.54936">
        <ele>259.965</ele>
        <time>2012-11-03T12:24:03Z</time>
      </trkpt>
      <trkpt lat="44.24523" lon="4.54954">
        <ele>259.086</ele>
        <time>2012-11-03T12:24:09Z</time>
      </trkpt>
      <trkpt lat="44.24539" lon="4.54953">
        <ele>259.738</ele>
        <time>2012-11-03T12:24:14Z</time>
      </trkpt>
      <trkpt lat="44.24553" lon="4.54954">
        <ele>259.689</ele>
        <time>2012-11-03T12:24:19Z</time>
      </trkpt>
      <trkpt lat="44.2457" lon="4.54964">
        <ele>259.638</ele>
        <time>2012-11-03T12:24:25Z</time>
      </trkpt>
      <trkpt lat="44.24577" lon="4.54982">
        <ele>260.121</ele>
        <time>2012-11-03T12:24:30Z</time>
      </trkpt>
      <trkpt lat="44.24577" lon="4.55005">
        <ele>264.848</ele>
        <time>2012-11-03T12:24:36Z</time>
      </trkpt>
      <trkpt lat="44.24571" lon="4.55031">
        <ele>267.463</ele>
        <time>2012-11-03T12:24:44Z</time>
      </trkpt>
      <trkpt lat="44.24572" lon="4.55055">
        <ele>268.589</ele>
        <time>2012-11-03T12:24:51Z</time>
      </trkpt>
      <trkpt lat="44.24577" lon="4.55062">
        <ele>268.049</ele>
        <time>2012-11-03T12:24:54Z</time>
      </trkpt>
      <trkpt lat="44.24589" lon="4.55059">
        <ele>268.7</ele>
        <time>2012-11-03T12:25:00Z</time>
      </trkpt>
      <trkpt lat="44.24598" lon="4.55055">
        <ele>270.561</ele>
        <time>2012-11-03T12:25:06Z</time>
      </trkpt>
      <trkpt lat="44.24609" lon="4.55054">
        <ele>272.764</ele>
        <time>2012-11-03T12:25:13Z</time>
      </trkpt>
      <trkpt lat="44.24621" lon="4.55052">
        <ele>274.519</ele>
        <time>2012-11-03T12:25:19Z</time>
      </trkpt>
      <trkpt lat="44.24633" lon="4.55053">
        <ele>275.558</ele>
        <time>2012-11-03T12:25:26Z</time>
      </trkpt>
      <trkpt lat="44.24645" lon="4.55056">
        <ele>277.118</ele>
        <time>2012-11-03T12:25:33Z</time>
      </trkpt>
      <trkpt lat="44.24655" lon="4.55061">
        <ele>276.347</ele>
        <time>2012-11-03T12:25:39Z</time>
      </trkpt>
      <trkpt lat="44.24664" lon="4.55058">
        <ele>277.519</ele>
        <time>2012-11-03T12:25:45Z</time>
      </trkpt>
      <trkpt lat="44.24666" lon="4.55054">
        <ele>278.508</ele>
        <time>2012-11-03T12:25:47Z</time>
      </trkpt>
      <trkpt lat="44.24673" lon="4.55036">
        <ele>281.5</ele>
        <time>2012-11-03T12:25:56Z</time>
      </trkpt>
      <trkpt lat="44.24681" lon="4.55031">
        <ele>283.88</ele>
        <time>2012-11-03T12:26:01Z</time>
      </trkpt>
      <trkpt lat="44.24693" lon="4.55033">
        <ele>285.968</ele>
        <time>2012-11-03T12:26:08Z</time>
      </trkpt>
      <trkpt lat="44.24702" lon="4.55028">
        <ele>284.597</ele>
        <time>2012-11-03T12:26:12Z</time>
      </trkpt>
      <trkpt lat="44.24705" lon="4.55018">
        <ele>284.247</ele>
        <time>2012-11-03T12:26:15Z</time>
      </trkpt>
      <trkpt lat="44.24694" lon="4.55001">
        <ele>283.658</ele>
        <time>2012-11-03T12:26:23Z</time>
      </trkpt>
      <trkpt lat="44.24681" lon="4.54985">
        <ele>283.508</ele>
        <time>2012-11-03T12:26:32Z</time>
      </trkpt>
      <trkpt lat="44.24671" lon="4.54976">
        <ele>284.298</ele>
        <time>2012-11-03T12:26:39Z</time>
      </trkpt>
      <trkpt lat="44.24665" lon="4.54973">
        <ele>285.039</ele>
        <time>2012-11-03T12:26:43Z</time>
      </trkpt>
      <trkpt lat="44.24663" lon="4.54966">
        <ele>284.198</ele>
        <time>2012-11-03T12:26:47Z</time>
      </trkpt>
      <trkpt lat="44.24657" lon="4.54953">
        <ele>284.698</ele>
        <time>2012-11-03T12:26:52Z</time>
      </trkpt>
      <trkpt lat="44.24653" lon="4.54945">
        <ele>285.229</ele>
        <time>2012-11-03T12:26:55Z</time>
      </trkpt>
      <trkpt lat="44.24645" lon="4.54924">
        <ele>287.409</ele>
        <time>2012-11-03T12:27:03Z</time>
      </trkpt>
      <trkpt lat="44.24637" lon="4.5491">
        <ele>286.728</ele>
        <time>2012-11-03T12:27:10Z</time>
      </trkpt>
      <trkpt lat="44.2463" lon="4.54891">
        <ele>286.758</ele>
        <time>2012-11-03T12:27:18Z</time>
      </trkpt>
      <trkpt lat="44.24621" lon="4.54869">
        <ele>286.097</ele>
        <time>2012-11-03T12:27:27Z</time>
      </trkpt>
      <trkpt lat="44.24616" lon="4.54855">
        <ele>287.899</ele>
        <time>2012-11-03T12:27:34Z</time>
      </trkpt>
      <trkpt lat="44.24609" lon="4.54836">
        <ele>289.408</ele>
        <time>2012-11-03T12:27:43Z</time>
      </trkpt>
      <trkpt lat="44.24605" lon="4.54821">
        <ele>291.159</ele>
        <time>2012-11-03T12:27:50Z</time>
      </trkpt>
      <trkpt lat="44.24603" lon="4.54809">
        <ele>292.688</ele>
        <time>2012-11-03T12:27:56Z</time>
      </trkpt>
      <trkpt lat="44.246" lon="4.54797">
        <ele>292.578</ele>
        <time>2012-11-03T12:28:02Z</time>
      </trkpt>
      <trkpt lat="44.24592" lon="4.5478">
        <ele>293.338</ele>
        <time>2012-11-03T12:28:12Z</time>
      </trkpt>
      <trkpt lat="44.24584" lon="4.54772">
        <ele>293.818</ele>
        <time>2012-11-03T12:28:20Z</time>
      </trkpt>
      <trkpt lat="44.2458" lon="4.54767">
        <ele>294.587</ele>
        <time>2012-11-03T12:28:26Z</time>
      </trkpt>
      <trkpt lat="44.24577" lon="4.54762">
        <ele>294.867</ele>
        <time>2012-11-03T12:28:30Z</time>
      </trkpt>
      <trkpt lat="44.24574" lon="4.54759">
        <ele>296.078</ele>
        <time>2012-11-03T12:28:34Z</time>
      </trkpt>
      <trkpt lat="44.24567" lon="4.54754">
        <ele>295.647</ele>
        <time>2012-11-03T12:28:42Z</time>
      </trkpt>
      <trkpt lat="44.2456" lon="4.54754">
        <ele>295.297</ele>
        <time>2012-11-03T12:28:47Z</time>
      </trkpt>
      <trkpt lat="44.24549" lon="4.54755">
        <ele>295.581</ele>
        <time>2012-11-03T12:28:56Z</time>
      </trkpt>
      <trkpt lat="44.24539" lon="4.54753">
        <ele>296.797</ele>
        <time>2012-11-03T12:29:04Z</time>
      </trkpt>
      <trkpt lat="44.24538" lon="4.54751">
        <ele>297.107</ele>
        <time>2012-11-03T12:29:05Z</time>
      </trkpt>
      <trkpt lat="44.24535" lon="4.54741">
        <ele>300.098</ele>
        <time>2012-11-03T12:29:10Z</time>
      </trkpt>
      <trkpt lat="44.24534" lon="4.54739">
        <ele>300.596</ele>
        <time>2012-11-03T12:29:13Z</time>
      </trkpt>
      <trkpt lat="44.2453" lon="4.54729">
        <ele>303.446</ele>
        <time>2012-11-03T12:30:37Z</time>
      </trkpt>
      <trkpt lat="44.24527" lon="4.54713">
        <ele>306.779</ele>
        <time>2012-11-03T12:30:44Z</time>
      </trkpt>
      <trkpt lat="44.24523" lon="4.54699">
        <ele>310.539</ele>
        <time>2012-11-03T12:30:50Z</time>
      </trkpt>
      <trkpt lat="44.24525" lon="4.54682">
        <ele>310.208</ele>
        <time>2012-11-03T12:30:56Z</time>
      </trkpt>
      <trkpt lat="44.24524" lon="4.54669">
        <ele>309.928</ele>
        <time>2012-11-03T12:31:02Z</time>
      </trkpt>
      <trkpt lat="44.24524" lon="4.54665">
        <ele>309.398</ele>
        <time>2012-11-03T12:31:04Z</time>
      </trkpt>
      <trkpt lat="44.24527" lon="4.54652">
        <ele>308.907</ele>
        <time>2012-11-03T12:31:09Z</time>
      </trkpt>
      <trkpt lat="44.24533" lon="4.54634">
        <ele>308.235</ele>
        <time>2012-11-03T12:31:16Z</time>
      </trkpt>
      <trkpt lat="44.24546" lon="4.54614">
        <ele>305.923</ele>
        <time>2012-11-03T12:31:23Z</time>
      </trkpt>
      <trkpt lat="44.24557" lon="4.54597">
        <ele>306.485</ele>
        <time>2012-11-03T12:31:28Z</time>
      </trkpt>
      <trkpt lat="44.24568" lon="4.54576">
        <ele>306.614</ele>
        <time>2012-11-03T12:31:34Z</time>
      </trkpt>
      <trkpt lat="44.24574" lon="4.54558">
        <ele>305.513</ele>
        <time>2012-11-03T12:31:42Z</time>
      </trkpt>
      <trkpt lat="44.2458" lon="4.54548">
        <ele>304.845</ele>
        <time>2012-11-03T12:31:48Z</time>
      </trkpt>
      <trkpt lat="44.24586" lon="4.5453">
        <ele>307.256</ele>
        <time>2012-11-03T12:31:56Z</time>
      </trkpt>
      <trkpt lat="44.24593" lon="4.54516">
        <ele>306.504</ele>
        <time>2012-11-03T12:32:01Z</time>
      </trkpt>
      <trkpt lat="44.24603" lon="4.54505">
        <ele>306.121</ele>
        <time>2012-11-03T12:32:05Z</time>
      </trkpt>
      <trkpt lat="44.24605" lon="4.54504">
        <ele>305.822</ele>
        <time>2012-11-03T12:32:06Z</time>
      </trkpt>
      <trkpt lat="44.2462" lon="4.54512">
        <ele>306.965</ele>
        <time>2012-11-03T12:32:11Z</time>
      </trkpt>
      <trkpt lat="44.24637" lon="4.54525">
        <ele>307.446</ele>
        <time>2012-11-03T12:32:18Z</time>
      </trkpt>
      <trkpt lat="44.24643" lon="4.54529">
        <ele>308.707</ele>
        <time>2012-11-03T12:32:20Z</time>
      </trkpt>
      <trkpt lat="44.24674" lon="4.5454">
        <ele>310.809</ele>
        <time>2012-11-03T12:32:26Z</time>
      </trkpt>
      <trkpt lat="44.24707" lon="4.54543">
        <ele>308.636</ele>
        <time>2012-11-03T12:32:32Z</time>
      </trkpt>
      <trkpt lat="44.24726" lon="4.54545">
        <ele>309.556</ele>
        <time>2012-11-03T12:32:37Z</time>
      </trkpt>
      <trkpt lat="44.24751" lon="4.54544">
        <ele>309.646</ele>
        <time>2012-11-03T12:32:43Z</time>
      </trkpt>
      <trkpt lat="44.2477" lon="4.54543">
        <ele>307.274</ele>
        <time>2012-11-03T12:32:48Z</time>
      </trkpt>
      <trkpt lat="44.24775" lon="4.54543">
        <ele>307.505</ele>
        <time>2012-11-03T12:32:49Z</time>
      </trkpt>
      <trkpt lat="44.24794" lon="4.54544">
        <ele>306.965</ele>
        <time>2012-11-03T12:32:53Z</time>
      </trkpt>
      <trkpt lat="44.2483" lon="4.54538">
        <ele>308.317</ele>
        <time>2012-11-03T12:33:00Z</time>
      </trkpt>
      <trkpt lat="44.24835" lon="4.54536">
        <ele>308.238</ele>
        <time>2012-11-03T12:33:01Z</time>
      </trkpt>
      <trkpt lat="44.24871" lon="4.54521">
        <ele>303.475</ele>
        <time>2012-11-03T12:33:08Z</time>
      </trkpt>
      <trkpt lat="44.24876" lon="4.54519">
        <ele>302.365</ele>
        <time>2012-11-03T12:33:09Z</time>
      </trkpt>
      <trkpt lat="44.24901" lon="4.54506">
        <ele>300.785</ele>
        <time>2012-11-03T12:33:15Z</time>
      </trkpt>
      <trkpt lat="44.24918" lon="4.54496">
        <ele>300.476</ele>
        <time>2012-11-03T12:33:20Z</time>
      </trkpt>
      <trkpt lat="44.24923" lon="4.5449">
        <ele>299.365</ele>
        <time>2012-11-03T12:33:22Z</time>
      </trkpt>
      <trkpt lat="44.24925" lon="4.54463">
        <ele>296.185</ele>
        <time>2012-11-03T12:33:28Z</time>
      </trkpt>
      <trkpt lat="44.24927" lon="4.54448">
        <ele>295.494</ele>
        <time>2012-11-03T12:33:31Z</time>
      </trkpt>
      <trkpt lat="44.24934" lon="4.54412">
        <ele>295.716</ele>
        <time>2012-11-03T12:33:38Z</time>
      </trkpt>
      <trkpt lat="44.24943" lon="4.54375">
        <ele>295.366</ele>
        <time>2012-11-03T12:33:45Z</time>
      </trkpt>
      <trkpt lat="44.24945" lon="4.54368">
        <ele>295.066</ele>
        <time>2012-11-03T12:33:46Z</time>
      </trkpt>
      <trkpt lat="44.24949" lon="4.54339">
        <ele>293.185</ele>
        <time>2012-11-03T12:33:50Z</time>
      </trkpt>
      <trkpt lat="44.24949" lon="4.54324">
        <ele>291.944</ele>
        <time>2012-11-03T12:33:52Z</time>
      </trkpt>
      <trkpt lat="44.24941" lon="4.54289">
        <ele>290.525</ele>
        <time>2012-11-03T12:33:57Z</time>
      </trkpt>
      <trkpt lat="44.24945" lon="4.54266">
        <ele>289.485</ele>
        <time>2012-11-03T12:34:01Z</time>
      </trkpt>
      <trkpt lat="44.24955" lon="4.54237">
        <ele>290.706</ele>
        <time>2012-11-03T12:34:07Z</time>
      </trkpt>
      <trkpt lat="44.24959" lon="4.5422">
        <ele>290.296</ele>
        <time>2012-11-03T12:34:12Z</time>
      </trkpt>
      <trkpt lat="44.24962" lon="4.54198">
        <ele>289.316</ele>
        <time>2012-11-03T12:34:17Z</time>
      </trkpt>
      <trkpt lat="44.24977" lon="4.54181">
        <ele>288.766</ele>
        <time>2012-11-03T12:34:22Z</time>
      </trkpt>
      <trkpt lat="44.24992" lon="4.54175">
        <ele>288.806</ele>
        <time>2012-11-03T12:34:26Z</time>
      </trkpt>
      <trkpt lat="44.25015" lon="4.54151">
        <ele>291.198</ele>
        <time>2012-11-03T12:34:33Z</time>
      </trkpt>
      <trkpt lat="44.2502" lon="4.54136">
        <ele>293.088</ele>
        <time>2012-11-03T12:34:37Z</time>
      </trkpt>
      <trkpt lat="44.25026" lon="4.54121">
        <ele>293.046</ele>
        <time>2012-11-03T12:34:42Z</time>
      </trkpt>
      <trkpt lat="44.25043" lon="4.54103">
        <ele>290.894</ele>
        <time>2012-11-03T12:34:49Z</time>
      </trkpt>
      <trkpt lat="44.25057" lon="4.54083">
        <ele>290.716</ele>
        <time>2012-11-03T12:34:56Z</time>
      </trkpt>
      <trkpt lat="44.25071" lon="4.54077">
        <ele>291.686</ele>
        <time>2012-11-03T12:35:01Z</time>
      </trkpt>
      <trkpt lat="44.25088" lon="4.54076">
        <ele>296.319</ele>
        <time>2012-11-03T12:35:06Z</time>
      </trkpt>
      <trkpt lat="44.25107" lon="4.54073">
        <ele>297.659</ele>
        <time>2012-11-03T12:35:13Z</time>
      </trkpt>
      <trkpt lat="44.25122" lon="4.54069">
        <ele>300.879</ele>
        <time>2012-11-03T12:35:18Z</time>
      </trkpt>
      <trkpt lat="44.25138" lon="4.5406">
        <ele>302.969</ele>
        <time>2012-11-03T12:35:24Z</time>
      </trkpt>
      <trkpt lat="44.25153" lon="4.54045">
        <ele>303.848</ele>
        <time>2012-11-03T12:35:30Z</time>
      </trkpt>
      <trkpt lat="44.25162" lon="4.54034">
        <ele>302.416</ele>
        <time>2012-11-03T12:35:35Z</time>
      </trkpt>
      <trkpt lat="44.25163" lon="4.54018">
        <ele>299.785</ele>
        <time>2012-11-03T12:35:39Z</time>
      </trkpt>
      <trkpt lat="44.25157" lon="4.54007">
        <ele>298.705</ele>
        <time>2012-11-03T12:35:43Z</time>
      </trkpt>
      <trkpt lat="44.25154" lon="4.53995">
        <ele>296.284</ele>
        <time>2012-11-03T12:35:48Z</time>
      </trkpt>
      <trkpt lat="44.25145" lon="4.53976">
        <ele>293.324</ele>
        <time>2012-11-03T12:35:54Z</time>
      </trkpt>
      <trkpt lat="44.25137" lon="4.53952">
        <ele>292.385</ele>
        <time>2012-11-03T12:35:59Z</time>
      </trkpt>
      <trkpt lat="44.25142" lon="4.53913">
        <ele>288.884</ele>
        <time>2012-11-03T12:36:05Z</time>
      </trkpt>
      <trkpt lat="44.25144" lon="4.53906">
        <ele>287.754</ele>
        <time>2012-11-03T12:36:06Z</time>
      </trkpt>
      <trkpt lat="44.25144" lon="4.53863">
        <ele>284.075</ele>
        <time>2012-11-03T12:36:12Z</time>
      </trkpt>
      <trkpt lat="44.25144" lon="4.53849">
        <ele>282.925</ele>
        <time>2012-11-03T12:36:14Z</time>
      </trkpt>
      <trkpt lat="44.25149" lon="4.53825">
        <ele>282.375</ele>
        <time>2012-11-03T12:36:18Z</time>
      </trkpt>
      <trkpt lat="44.25163" lon="4.53806">
        <ele>281.044</ele>
        <time>2012-11-03T12:36:23Z</time>
      </trkpt>
      <trkpt lat="44.2517" lon="4.53808">
        <ele>280.955</ele>
        <time>2012-11-03T12:36:26Z</time>
      </trkpt>
      <trkpt lat="44.25188" lon="4.53813">
        <ele>279.615</ele>
        <time>2012-11-03T12:36:33Z</time>
      </trkpt>
      <trkpt lat="44.25198" lon="4.5382">
        <ele>278.324</ele>
        <time>2012-11-03T12:36:37Z</time>
      </trkpt>
      <trkpt lat="44.25198" lon="4.53838">
        <ele>275.504</ele>
        <time>2012-11-03T12:36:42Z</time>
      </trkpt>
      <trkpt lat="44.25195" lon="4.53847">
        <ele>274.502</ele>
        <time>2012-11-03T12:36:44Z</time>
      </trkpt>
      <trkpt lat="44.25202" lon="4.53868">
        <ele>270.478</ele>
        <time>2012-11-03T12:36:48Z</time>
      </trkpt>
      <trkpt lat="44.25211" lon="4.53881">
        <ele>265.865</ele>
        <time>2012-11-03T12:36:52Z</time>
      </trkpt>
      <trkpt lat="44.25217" lon="4.53878">
        <ele>262.316</ele>
        <time>2012-11-03T12:36:56Z</time>
      </trkpt>
      <trkpt lat="44.25217" lon="4.53875">
        <ele>261.504</ele>
        <time>2012-11-03T12:36:57Z</time>
      </trkpt>
      <trkpt lat="44.25218" lon="4.53858">
        <ele>259.457</ele>
        <time>2012-11-03T12:37:01Z</time>
      </trkpt>
      <trkpt lat="44.2523" lon="4.53832">
        <ele>263.837</ele>
        <time>2012-11-03T12:37:07Z</time>
      </trkpt>
      <trkpt lat="44.25233" lon="4.53821">
        <ele>263.837</ele>
        <time>2012-11-03T12:37:09Z</time>
      </trkpt>
      <trkpt lat="44.2523" lon="4.53779">
        <ele>264.458</ele>
        <time>2012-11-03T12:37:16Z</time>
      </trkpt>
      <trkpt lat="44.25227" lon="4.53747">
        <ele>269.379</ele>
        <time>2012-11-03T12:37:22Z</time>
      </trkpt>
      <trkpt lat="44.25228" lon="4.53725">
        <ele>269.339</ele>
        <time>2012-11-03T12:37:28Z</time>
      </trkpt>
      <trkpt lat="44.2523" lon="4.53706">
        <ele>271.989</ele>
        <time>2012-11-03T12:37:34Z</time>
      </trkpt>
      <trkpt lat="44.25232" lon="4.53686">
        <ele>271.708</ele>
        <time>2012-11-03T12:37:43Z</time>
      </trkpt>
      <trkpt lat="44.25236" lon="4.53674">
        <ele>273.079</ele>
        <time>2012-11-03T12:37:51Z</time>
      </trkpt>
      <trkpt lat="44.25238" lon="4.53671">
        <ele>273.829</ele>
        <time>2012-11-03T12:37:53Z</time>
      </trkpt>
      <trkpt lat="44.25244" lon="4.53663">
        <ele>274.788</ele>
        <time>2012-11-03T12:38:01Z</time>
      </trkpt>
      <trkpt lat="44.25251" lon="4.53654">
        <ele>276.438</ele>
        <time>2012-11-03T12:38:09Z</time>
      </trkpt>
      <trkpt lat="44.25255" lon="4.53649">
        <ele>277.217</ele>
        <time>2012-11-03T12:38:14Z</time>
      </trkpt>
      <trkpt lat="44.25263" lon="4.53636">
        <ele>279.708</ele>
        <time>2012-11-03T12:38:24Z</time>
      </trkpt>
      <trkpt lat="44.2527" lon="4.53627">
        <ele>280.519</ele>
        <time>2012-11-03T12:38:32Z</time>
      </trkpt>
      <trkpt lat="44.25277" lon="4.53619">
        <ele>282.5</ele>
        <time>2012-11-03T12:38:40Z</time>
      </trkpt>
      <trkpt lat="44.25285" lon="4.53614">
        <ele>283.879</ele>
        <time>2012-11-03T12:38:47Z</time>
      </trkpt>
      <trkpt lat="44.25297" lon="4.53607">
        <ele>285.437</ele>
        <time>2012-11-03T12:38:56Z</time>
      </trkpt>
      <trkpt lat="44.25309" lon="4.53599">
        <ele>286.387</ele>
        <time>2012-11-03T12:39:04Z</time>
      </trkpt>
      <trkpt lat="44.25318" lon="4.53586">
        <ele>287.707</ele>
        <time>2012-11-03T12:39:10Z</time>
      </trkpt>
      <trkpt lat="44.25327" lon="4.53564">
        <ele>287.237</ele>
        <time>2012-11-03T12:39:17Z</time>
      </trkpt>
      <trkpt lat="44.25332" lon="4.53542">
        <ele>285.766</ele>
        <time>2012-11-03T12:39:24Z</time>
      </trkpt>
      <trkpt lat="44.25335" lon="4.53522">
        <ele>284.726</ele>
        <time>2012-11-03T12:39:31Z</time>
      </trkpt>
      <trkpt lat="44.25336" lon="4.53496">
        <ele>284.667</ele>
        <time>2012-11-03T12:39:40Z</time>
      </trkpt>
      <trkpt lat="44.25335" lon="4.53469">
        <ele>285.217</ele>
        <time>2012-11-03T12:39:49Z</time>
      </trkpt>
      <trkpt lat="44.25335" lon="4.53446">
        <ele>285.316</ele>
        <time>2012-11-03T12:39:56Z</time>
      </trkpt>
      <trkpt lat="44.25331" lon="4.53413">
        <ele>286.156</ele>
        <time>2012-11-03T12:40:04Z</time>
      </trkpt>
      <trkpt lat="44.25326" lon="4.53384">
        <ele>286.346</ele>
        <time>2012-11-03T12:40:11Z</time>
      </trkpt>
      <trkpt lat="44.25324" lon="4.53371">
        <ele>285.655</ele>
        <time>2012-11-03T12:40:14Z</time>
      </trkpt>
      <trkpt lat="44.2533" lon="4.53364">
        <ele>284.024</ele>
        <time>2012-11-03T12:40:19Z</time>
      </trkpt>
      <trkpt lat="44.25341" lon="4.53362">
        <ele>283.234</ele>
        <time>2012-11-03T12:40:24Z</time>
      </trkpt>
      <trkpt lat="44.25351" lon="4.53363">
        <ele>281.094</ele>
        <time>2012-11-03T12:40:28Z</time>
      </trkpt>
      <trkpt lat="44.25365" lon="4.53363">
        <ele>277.834</ele>
        <time>2012-11-03T12:40:35Z</time>
      </trkpt>
      <trkpt lat="44.25375" lon="4.53364">
        <ele>274.572</ele>
        <time>2012-11-03T12:40:39Z</time>
      </trkpt>
      <trkpt lat="44.2539" lon="4.53373">
        <ele>269.152</ele>
        <time>2012-11-03T12:40:44Z</time>
      </trkpt>
      <trkpt lat="44.25404" lon="4.53391">
        <ele>263.552</ele>
        <time>2012-11-03T12:40:49Z</time>
      </trkpt>
      <trkpt lat="44.25417" lon="4.5341">
        <ele>258.561</ele>
        <time>2012-11-03T12:40:55Z</time>
      </trkpt>
      <trkpt lat="44.25427" lon="4.53421">
        <ele>253.812</ele>
        <time>2012-11-03T12:41:01Z</time>
      </trkpt>
      <trkpt lat="44.2544" lon="4.53429">
        <ele>250.182</ele>
        <time>2012-11-03T12:41:07Z</time>
      </trkpt>
      <trkpt lat="44.25449" lon="4.5342">
        <ele>250.975</ele>
        <time>2012-11-03T12:41:11Z</time>
      </trkpt>
      <trkpt lat="44.25452" lon="4.53397">
        <ele>250.165</ele>
        <time>2012-11-03T12:41:17Z</time>
      </trkpt>
      <trkpt lat="44.25447" lon="4.5338">
        <ele>251.977</ele>
        <time>2012-11-03T12:41:23Z</time>
      </trkpt>
      <trkpt lat="44.25442" lon="4.53369">
        <ele>256.289</ele>
        <time>2012-11-03T12:41:30Z</time>
      </trkpt>
      <trkpt lat="44.25437" lon="4.53355">
        <ele>259.548</ele>
        <time>2012-11-03T12:41:37Z</time>
      </trkpt>
      <trkpt lat="44.25431" lon="4.53337">
        <ele>261.717</ele>
        <time>2012-11-03T12:41:45Z</time>
      </trkpt>
      <trkpt lat="44.25433" lon="4.53321">
        <ele>260.367</ele>
        <time>2012-11-03T12:41:52Z</time>
      </trkpt>
      <trkpt lat="44.25433" lon="4.533">
        <ele>259.847</ele>
        <time>2012-11-03T12:42:01Z</time>
      </trkpt>
      <trkpt lat="44.25437" lon="4.53288">
        <ele>259.987</ele>
        <time>2012-11-03T12:42:07Z</time>
      </trkpt>
      <trkpt lat="44.25446" lon="4.53284">
        <ele>260.977</ele>
        <time>2012-11-03T12:42:13Z</time>
      </trkpt>
      <trkpt lat="44.25452" lon="4.53277">
        <ele>262.706</ele>
        <time>2012-11-03T12:42:20Z</time>
      </trkpt>
      <trkpt lat="44.25452" lon="4.53277">
        <ele>262.666</ele>
        <time>2012-11-03T12:42:21Z</time>
      </trkpt>
      <trkpt lat="44.25451" lon="4.5327">
        <ele>261.104</ele>
        <time>2012-11-03T12:42:26Z</time>
      </trkpt>
      <trkpt lat="44.25441" lon="4.53261">
        <ele>256.332</ele>
        <time>2012-11-03T12:42:32Z</time>
      </trkpt>
      <trkpt lat="44.25437" lon="4.53248">
        <ele>252.173</ele>
        <time>2012-11-03T12:42:36Z</time>
      </trkpt>
      <trkpt lat="44.25425" lon="4.53236">
        <ele>249.153</ele>
        <time>2012-11-03T12:42:40Z</time>
      </trkpt>
      <trkpt lat="44.25414" lon="4.53224">
        <ele>249.424</ele>
        <time>2012-11-03T12:42:43Z</time>
      </trkpt>
      <trkpt lat="44.25399" lon="4.53192">
        <ele>248.585</ele>
        <time>2012-11-03T12:42:49Z</time>
      </trkpt>
      <trkpt lat="44.25396" lon="4.53189">
        <ele>248.395</ele>
        <time>2012-11-03T12:42:50Z</time>
      </trkpt>
      <trkpt lat="44.25383" lon="4.53184">
        <ele>248.557</ele>
        <time>2012-11-03T12:42:55Z</time>
      </trkpt>
      <trkpt lat="44.25379" lon="4.53183">
        <ele>248.267</ele>
        <time>2012-11-03T12:42:57Z</time>
      </trkpt>
      <trkpt lat="44.2538" lon="4.5317">
        <ele>248.296</ele>
        <time>2012-11-03T12:43:02Z</time>
      </trkpt>
      <trkpt lat="44.25384" lon="4.53153">
        <ele>247.305</ele>
        <time>2012-11-03T12:43:06Z</time>
      </trkpt>
      <trkpt lat="44.25389" lon="4.53141">
        <ele>246.635</ele>
        <time>2012-11-03T12:43:09Z</time>
      </trkpt>
      <trkpt lat="44.25402" lon="4.53127">
        <ele>243.484</ele>
        <time>2012-11-03T12:43:14Z</time>
      </trkpt>
      <trkpt lat="44.25415" lon="4.53119">
        <ele>241.284</ele>
        <time>2012-11-03T12:43:18Z</time>
      </trkpt>
      <trkpt lat="44.25419" lon="4.5311">
        <ele>241.766</ele>
        <time>2012-11-03T12:43:21Z</time>
      </trkpt>
      <trkpt lat="44.25427" lon="4.5309">
        <ele>241.946</ele>
        <time>2012-11-03T12:43:30Z</time>
      </trkpt>
      <trkpt lat="44.25434" lon="4.53074">
        <ele>244.397</ele>
        <time>2012-11-03T12:43:38Z</time>
      </trkpt>
      <trkpt lat="44.25441" lon="4.53056">
        <ele>248.337</ele>
        <time>2012-11-03T12:43:48Z</time>
      </trkpt>
      <trkpt lat="44.25448" lon="4.5304">
        <ele>250.017</ele>
        <time>2012-11-03T12:43:56Z</time>
      </trkpt>
      <trkpt lat="44.25455" lon="4.53021">
        <ele>252.137</ele>
        <time>2012-11-03T12:44:05Z</time>
      </trkpt>
      <trkpt lat="44.25461" lon="4.53007">
        <ele>253.797</ele>
        <time>2012-11-03T12:44:12Z</time>
      </trkpt>
      <trkpt lat="44.2547" lon="4.52994">
        <ele>256.536</ele>
        <time>2012-11-03T12:44:20Z</time>
      </trkpt>
      <trkpt lat="44.25479" lon="4.5298">
        <ele>257.526</ele>
        <time>2012-11-03T12:44:28Z</time>
      </trkpt>
      <trkpt lat="44.25489" lon="4.52962">
        <ele>258.866</ele>
        <time>2012-11-03T12:44:38Z</time>
      </trkpt>
      <trkpt lat="44.25497" lon="4.52946">
        <ele>259.146</ele>
        <time>2012-11-03T12:44:45Z</time>
      </trkpt>
      <trkpt lat="44.25513" lon="4.52929">
        <ele>260.097</ele>
        <time>2012-11-03T12:44:55Z</time>
      </trkpt>
      <trkpt lat="44.25523" lon="4.52918">
        <ele>262.097</ele>
        <time>2012-11-03T12:45:02Z</time>
      </trkpt>
      <trkpt lat="44.25533" lon="4.52899">
        <ele>262.136</ele>
        <time>2012-11-03T12:45:11Z</time>
      </trkpt>
      <trkpt lat="44.25545" lon="4.5288">
        <ele>262.659</ele>
        <time>2012-11-03T12:45:20Z</time>
      </trkpt>
      <trkpt lat="44.25557" lon="4.52869">
        <ele>265.237</ele>
        <time>2012-11-03T12:45:28Z</time>
      </trkpt>
      <trkpt lat="44.25574" lon="4.5286">
        <ele>267.887</ele>
        <time>2012-11-03T12:45:37Z</time>
      </trkpt>
      <trkpt lat="44.25589" lon="4.52847">
        <ele>268.146</ele>
        <time>2012-11-03T12:45:45Z</time>
      </trkpt>
      <trkpt lat="44.25604" lon="4.52829">
        <ele>268.777</ele>
        <time>2012-11-03T12:45:52Z</time>
      </trkpt>
      <trkpt lat="44.25619" lon="4.52811">
        <ele>265.425</ele>
        <time>2012-11-03T12:45:59Z</time>
      </trkpt>
      <trkpt lat="44.25631" lon="4.52797">
        <ele>263.545</ele>
        <time>2012-11-03T12:46:04Z</time>
      </trkpt>
      <trkpt lat="44.25657" lon="4.5277">
        <ele>263.766</ele>
        <time>2012-11-03T12:46:12Z</time>
      </trkpt>
      <trkpt lat="44.2569" lon="4.52739">
        <ele>263.505</ele>
        <time>2012-11-03T12:46:21Z</time>
      </trkpt>
      <trkpt lat="44.25717" lon="4.52719">
        <ele>262.335</ele>
        <time>2012-11-03T12:46:27Z</time>
      </trkpt>
      <trkpt lat="44.25756" lon="4.52706">
        <ele>261.436</ele>
        <time>2012-11-03T12:46:35Z</time>
      </trkpt>
      <trkpt lat="44.25794" lon="4.52688">
        <ele>262.957</ele>
        <time>2012-11-03T12:46:44Z</time>
      </trkpt>
      <trkpt lat="44.25833" lon="4.52678">
        <ele>264.607</ele>
        <time>2012-11-03T12:46:53Z</time>
      </trkpt>
      <trkpt lat="44.25861" lon="4.52671">
        <ele>266.667</ele>
        <time>2012-11-03T12:47:00Z</time>
      </trkpt>
      <trkpt lat="44.25874" lon="4.52653">
        <ele>266.866</ele>
        <time>2012-11-03T12:47:05Z</time>
      </trkpt>
      <trkpt lat="44.25887" lon="4.52624">
        <ele>266.136</ele>
        <time>2012-11-03T12:47:11Z</time>
      </trkpt>
      <trkpt lat="44.25902" lon="4.52606">
        <ele>266.676</ele>
        <time>2012-11-03T12:47:16Z</time>
      </trkpt>
      <trkpt lat="44.25935" lon="4.52597">
        <ele>266.036</ele>
        <time>2012-11-03T12:47:23Z</time>
      </trkpt>
      <trkpt lat="44.25965" lon="4.52576">
        <ele>265.126</ele>
        <time>2012-11-03T12:47:29Z</time>
      </trkpt>
      <trkpt lat="44.25981" lon="4.5256">
        <ele>265.627</ele>
        <time>2012-11-03T12:47:32Z</time>
      </trkpt>
      <trkpt lat="44.25999" lon="4.52545">
        <ele>268.407</ele>
        <time>2012-11-03T12:47:36Z</time>
      </trkpt>
      <trkpt lat="44.26013" lon="4.52553">
        <ele>267.447</ele>
        <time>2012-11-03T12:47:39Z</time>
      </trkpt>
      <trkpt lat="44.26021" lon="4.52564">
        <ele>264.185</ele>
        <time>2012-11-03T12:47:41Z</time>
      </trkpt>
      <trkpt lat="44.26039" lon="4.5261">
        <ele>254.573</ele>
        <time>2012-11-03T12:47:47Z</time>
      </trkpt>
      <trkpt lat="44.26042" lon="4.52616">
        <ele>253.003</ele>
        <time>2012-11-03T12:47:48Z</time>
      </trkpt>
      <trkpt lat="44.26055" lon="4.52617">
        <ele>249.253</ele>
        <time>2012-11-03T12:47:52Z</time>
      </trkpt>
      <trkpt lat="44.26073" lon="4.5261">
        <ele>246.853</ele>
        <time>2012-11-03T12:47:56Z</time>
      </trkpt>
      <trkpt lat="44.26087" lon="4.52594">
        <ele>247.755</ele>
        <time>2012-11-03T12:48:00Z</time>
      </trkpt>
      <trkpt lat="44.26096" lon="4.52575">
        <ele>251.127</ele>
        <time>2012-11-03T12:48:04Z</time>
      </trkpt>
      <trkpt lat="44.26113" lon="4.52584">
        <ele>249.545</ele>
        <time>2012-11-03T12:48:09Z</time>
      </trkpt>
      <trkpt lat="44.26142" lon="4.52594">
        <ele>248.095</ele>
        <time>2012-11-03T12:48:15Z</time>
      </trkpt>
      <trkpt lat="44.26177" lon="4.52607">
        <ele>246.295</ele>
        <time>2012-11-03T12:48:21Z</time>
      </trkpt>
      <trkpt lat="44.26218" lon="4.52623">
        <ele>244.795</ele>
        <time>2012-11-03T12:48:27Z</time>
      </trkpt>
      <trkpt lat="44.26249" lon="4.5264">
        <ele>245.497</ele>
        <time>2012-11-03T12:48:32Z</time>
      </trkpt>
      <trkpt lat="44.26277" lon="4.5266">
        <ele>247.157</ele>
        <time>2012-11-03T12:48:38Z</time>
      </trkpt>
      <trkpt lat="44.26303" lon="4.52677">
        <ele>249.138</ele>
        <time>2012-11-03T12:48:45Z</time>
      </trkpt>
      <trkpt lat="44.26321" lon="4.52702">
        <ele>249.018</ele>
        <time>2012-11-03T12:48:52Z</time>
      </trkpt>
      <trkpt lat="44.26332" lon="4.52732">
        <ele>248.837</ele>
        <time>2012-11-03T12:48:59Z</time>
      </trkpt>
      <trkpt lat="44.26343" lon="4.52765">
        <ele>248.567</ele>
        <time>2012-11-03T12:49:06Z</time>
      </trkpt>
      <trkpt lat="44.26355" lon="4.52792">
        <ele>247.596</ele>
        <time>2012-11-03T12:49:11Z</time>
      </trkpt>
      <trkpt lat="44.26364" lon="4.5281">
        <ele>246.246</ele>
        <time>2012-11-03T12:49:14Z</time>
      </trkpt>
      <trkpt lat="44.26383" lon="4.52833">
        <ele>244.576</ele>
        <time>2012-11-03T12:49:18Z</time>
      </trkpt>
      <trkpt lat="44.26404" lon="4.5284">
        <ele>243.046</ele>
        <time>2012-11-03T12:49:21Z</time>
      </trkpt>
      <trkpt lat="44.26464" lon="4.5285">
        <ele>240.566</ele>
        <time>2012-11-03T12:49:29Z</time>
      </trkpt>
      <trkpt lat="44.26507" lon="4.52874">
        <ele>239.317</ele>
        <time>2012-11-03T12:49:35Z</time>
      </trkpt>
      <trkpt lat="44.2654" lon="4.52906">
        <ele>238.637</ele>
        <time>2012-11-03T12:49:41Z</time>
      </trkpt>
      <trkpt lat="44.26566" lon="4.52939">
        <ele>236.507</ele>
        <time>2012-11-03T12:49:47Z</time>
      </trkpt>
      <trkpt lat="44.26595" lon="4.52975">
        <ele>235.828</ele>
        <time>2012-11-03T12:49:54Z</time>
      </trkpt>
      <trkpt lat="44.26605" lon="4.52992">
        <ele>235.667</ele>
        <time>2012-11-03T12:49:57Z</time>
      </trkpt>
      <trkpt lat="44.26626" lon="4.53043">
        <ele>233.226</ele>
        <time>2012-11-03T12:50:05Z</time>
      </trkpt>
      <trkpt lat="44.26646" lon="4.53082">
        <ele>231.006</ele>
        <time>2012-11-03T12:50:10Z</time>
      </trkpt>
      <trkpt lat="44.26666" lon="4.53115">
        <ele>228.527</ele>
        <time>2012-11-03T12:50:15Z</time>
      </trkpt>
      <trkpt lat="44.26675" lon="4.53132">
        <ele>226.336</ele>
        <time>2012-11-03T12:50:20Z</time>
      </trkpt>
      <trkpt lat="44.26684" lon="4.53147">
        <ele>223.406</ele>
        <time>2012-11-03T12:50:25Z</time>
      </trkpt>
      <trkpt lat="44.26701" lon="4.5317">
        <ele>218.826</ele>
        <time>2012-11-03T12:50:32Z</time>
      </trkpt>
      <trkpt lat="44.2671" lon="4.53183">
        <ele>215.597</ele>
        <time>2012-11-03T12:50:37Z</time>
      </trkpt>
      <trkpt lat="44.26729" lon="4.53194">
        <ele>211.127</ele>
        <time>2012-11-03T12:50:44Z</time>
      </trkpt>
      <trkpt lat="44.26747" lon="4.53209">
        <ele>207.145</ele>
        <time>2012-11-03T12:50:50Z</time>
      </trkpt>
      <trkpt lat="44.26763" lon="4.53223">
        <ele>203.216</ele>
        <time>2012-11-03T12:50:56Z</time>
      </trkpt>
      <trkpt lat="44.26773" lon="4.53233">
        <ele>201.136</ele>
        <time>2012-11-03T12:51:00Z</time>
      </trkpt>
      <trkpt lat="44.26775" lon="4.53234">
        <ele>200.586</ele>
        <time>2012-11-03T12:51:01Z</time>
      </trkpt>
      <trkpt lat="44.26786" lon="4.53244">
        <ele>197.786</ele>
        <time>2012-11-03T12:51:06Z</time>
      </trkpt>
      <trkpt lat="44.26803" lon="4.53262">
        <ele>193.506</ele>
        <time>2012-11-03T12:51:12Z</time>
      </trkpt>
      <trkpt lat="44.26816" lon="4.53272">
        <ele>190.997</ele>
        <time>2012-11-03T12:51:17Z</time>
      </trkpt>
      <trkpt lat="44.26827" lon="4.53287">
        <ele>189.507</ele>
        <time>2012-11-03T12:51:21Z</time>
      </trkpt>
      <trkpt lat="44.26828" lon="4.53305">
        <ele>188.677</ele>
        <time>2012-11-03T12:51:25Z</time>
      </trkpt>
      <trkpt lat="44.26828" lon="4.5332">
        <ele>188.489</ele>
        <time>2012-11-03T12:51:29Z</time>
      </trkpt>
      <trkpt lat="44.26825" lon="4.53327">
        <ele>188.309</ele>
        <time>2012-11-03T12:51:31Z</time>
      </trkpt>
      <trkpt lat="44.268" lon="4.53341">
        <ele>189.08</ele>
        <time>2012-11-03T12:51:38Z</time>
      </trkpt>
      <trkpt lat="44.26763" lon="4.53357">
        <ele>191.41</ele>
        <time>2012-11-03T12:51:47Z</time>
      </trkpt>
      <trkpt lat="44.26733" lon="4.53368">
        <ele>192.88</ele>
        <time>2012-11-03T12:51:55Z</time>
      </trkpt>
      <trkpt lat="44.26698" lon="4.53381">
        <ele>194.55</ele>
        <time>2012-11-03T12:52:04Z</time>
      </trkpt>
      <trkpt lat="44.26668" lon="4.53392">
        <ele>195.8</ele>
        <time>2012-11-03T12:52:12Z</time>
      </trkpt>
      <trkpt lat="44.2666" lon="4.53396">
        <ele>195.6</ele>
        <time>2012-11-03T12:52:14Z</time>
      </trkpt>
      <trkpt lat="44.26636" lon="4.53413">
        <ele>193.039</ele>
        <time>2012-11-03T12:52:20Z</time>
      </trkpt>
      <trkpt lat="44.26624" lon="4.53442">
        <ele>192.308</ele>
        <time>2012-11-03T12:52:25Z</time>
      </trkpt>
      <trkpt lat="44.26613" lon="4.53497">
        <ele>189.828</ele>
        <time>2012-11-03T12:52:31Z</time>
      </trkpt>
      <trkpt lat="44.26605" lon="4.53548">
        <ele>189.419</ele>
        <time>2012-11-03T12:52:37Z</time>
      </trkpt>
      <trkpt lat="44.266" lon="4.53585">
        <ele>188.818</ele>
        <time>2012-11-03T12:52:42Z</time>
      </trkpt>
      <trkpt lat="44.26603" lon="4.53607">
        <ele>187.558</ele>
        <time>2012-11-03T12:52:46Z</time>
      </trkpt>
      <trkpt lat="44.26607" lon="4.53609">
        <ele>187.029</ele>
        <time>2012-11-03T12:52:48Z</time>
      </trkpt>
      <trkpt lat="44.26635" lon="4.53627">
        <ele>184.459</ele>
        <time>2012-11-03T12:52:56Z</time>
      </trkpt>
      <trkpt lat="44.26646" lon="4.53633">
        <ele>183.669</ele>
        <time>2012-11-03T12:52:59Z</time>
      </trkpt>
      <trkpt lat="44.26664" lon="4.53646">
        <ele>182.569</ele>
        <time>2012-11-03T12:53:03Z</time>
      </trkpt>
      <trkpt lat="44.26706" lon="4.53668">
        <ele>181.329</ele>
        <time>2012-11-03T12:53:12Z</time>
      </trkpt>
      <trkpt lat="44.26742" lon="4.53686">
        <ele>180.42</ele>
        <time>2012-11-03T12:53:20Z</time>
      </trkpt>
      <trkpt lat="44.26781" lon="4.5371">
        <ele>179.27</ele>
        <time>2012-11-03T12:53:29Z</time>
      </trkpt>
      <trkpt lat="44.26813" lon="4.53728">
        <ele>176.898</ele>
        <time>2012-11-03T12:53:35Z</time>
      </trkpt>
      <trkpt lat="44.26831" lon="4.53737">
        <ele>175.008</ele>
        <time>2012-11-03T12:53:38Z</time>
      </trkpt>
      <trkpt lat="44.26847" lon="4.53749">
        <ele>172.867</ele>
        <time>2012-11-03T12:53:41Z</time>
      </trkpt>
      <trkpt lat="44.26881" lon="4.53762">
        <ele>168.487</ele>
        <time>2012-11-03T12:53:47Z</time>
      </trkpt>
      <trkpt lat="44.26887" lon="4.53763">
        <ele>167.867</ele>
        <time>2012-11-03T12:53:48Z</time>
      </trkpt>
      <trkpt lat="44.26908" lon="4.53771">
        <ele>165.798</ele>
        <time>2012-11-03T12:53:52Z</time>
      </trkpt>
      <trkpt lat="44.26934" lon="4.53791">
        <ele>162.077</ele>
        <time>2012-11-03T12:53:58Z</time>
      </trkpt>
      <trkpt lat="44.26949" lon="4.53804">
        <ele>158.957</ele>
        <time>2012-11-03T12:54:03Z</time>
      </trkpt>
      <trkpt lat="44.26964" lon="4.53815">
        <ele>155.407</ele>
        <time>2012-11-03T12:54:07Z</time>
      </trkpt>
      <trkpt lat="44.26984" lon="4.53819">
        <ele>152.537</ele>
        <time>2012-11-03T12:54:12Z</time>
      </trkpt>
      <trkpt lat="44.27012" lon="4.53807">
        <ele>150.079</ele>
        <time>2012-11-03T12:54:18Z</time>
      </trkpt>
      <trkpt lat="44.27032" lon="4.53808">
        <ele>148.71</ele>
        <time>2012-11-03T12:54:22Z</time>
      </trkpt>
      <trkpt lat="44.2705" lon="4.53812">
        <ele>148.3</ele>
        <time>2012-11-03T12:54:25Z</time>
      </trkpt>
      <trkpt lat="44.27076" lon="4.53828">
        <ele>147.029</ele>
        <time>2012-11-03T12:54:30Z</time>
      </trkpt>
      <trkpt lat="44.27096" lon="4.53843">
        <ele>144.64</ele>
        <time>2012-11-03T12:54:34Z</time>
      </trkpt>
      <trkpt lat="44.27135" lon="4.53868">
        <ele>138.908</ele>
        <time>2012-11-03T12:54:41Z</time>
      </trkpt>
      <trkpt lat="44.27183" lon="4.53896">
        <ele>135.959</ele>
        <time>2012-11-03T12:54:48Z</time>
      </trkpt>
      <trkpt lat="44.27215" lon="4.53911">
        <ele>132.249</ele>
        <time>2012-11-03T12:54:53Z</time>
      </trkpt>
      <trkpt lat="44.27259" lon="4.53923">
        <ele>130.641</ele>
        <time>2012-11-03T12:55:00Z</time>
      </trkpt>
      <trkpt lat="44.27285" lon="4.5393">
        <ele>131.392</ele>
        <time>2012-11-03T12:55:05Z</time>
      </trkpt>
      <trkpt lat="44.27311" lon="4.53948">
        <ele>130.911</ele>
        <time>2012-11-03T12:55:11Z</time>
      </trkpt>
      <trkpt lat="44.27315" lon="4.53951">
        <ele>130.841</ele>
        <time>2012-11-03T12:55:12Z</time>
      </trkpt>
      <trkpt lat="44.27328" lon="4.53955">
        <ele>130.621</ele>
        <time>2012-11-03T12:55:15Z</time>
      </trkpt>
      <trkpt lat="44.27341" lon="4.53956">
        <ele>131.703</ele>
        <time>2012-11-03T12:55:18Z</time>
      </trkpt>
      <trkpt lat="44.27369" lon="4.53948">
        <ele>134.774</ele>
        <time>2012-11-03T12:55:26Z</time>
      </trkpt>
      <trkpt lat="44.27393" lon="4.53939">
        <ele>136.463</ele>
        <time>2012-11-03T12:55:33Z</time>
      </trkpt>
      <trkpt lat="44.27425" lon="4.53924">
        <ele>139.754</ele>
        <time>2012-11-03T12:55:42Z</time>
      </trkpt>
      <trkpt lat="44.27447" lon="4.53912">
        <ele>142.524</ele>
        <time>2012-11-03T12:55:49Z</time>
      </trkpt>
      <trkpt lat="44.27468" lon="4.53891">
        <ele>144.204</ele>
        <time>2012-11-03T12:55:57Z</time>
      </trkpt>
      <trkpt lat="44.2749" lon="4.53875">
        <ele>146.973</ele>
        <time>2012-11-03T12:56:05Z</time>
      </trkpt>
      <trkpt lat="44.27518" lon="4.53866">
        <ele>147.913</ele>
        <time>2012-11-03T12:56:13Z</time>
      </trkpt>
      <trkpt lat="44.27537" lon="4.53859">
        <ele>149.315</ele>
        <time>2012-11-03T12:56:19Z</time>
      </trkpt>
      <trkpt lat="44.2756" lon="4.53837">
        <ele>150.093</ele>
        <time>2012-11-03T12:56:27Z</time>
      </trkpt>
      <trkpt lat="44.27575" lon="4.5383">
        <ele>151.904</ele>
        <time>2012-11-03T12:56:32Z</time>
      </trkpt>
      <trkpt lat="44.27594" lon="4.53839">
        <ele>153.874</ele>
        <time>2012-11-03T12:56:38Z</time>
      </trkpt>
      <trkpt lat="44.27612" lon="4.53859">
        <ele>150.703</ele>
        <time>2012-11-03T12:56:44Z</time>
      </trkpt>
      <trkpt lat="44.2763" lon="4.53879">
        <ele>149.664</ele>
        <time>2012-11-03T12:56:51Z</time>
      </trkpt>
      <trkpt lat="44.27648" lon="4.53891">
        <ele>150.954</ele>
        <time>2012-11-03T12:56:57Z</time>
      </trkpt>
      <trkpt lat="44.2767" lon="4.53902">
        <ele>154.425</ele>
        <time>2012-11-03T12:57:04Z</time>
      </trkpt>
      <trkpt lat="44.27695" lon="4.53908">
        <ele>155.665</ele>
        <time>2012-11-03T12:57:11Z</time>
      </trkpt>
      <trkpt lat="44.2772" lon="4.53916">
        <ele>153.625</ele>
        <time>2012-11-03T12:57:17Z</time>
      </trkpt>
      <trkpt lat="44.27746" lon="4.53925">
        <ele>150.183</ele>
        <time>2012-11-03T12:57:23Z</time>
      </trkpt>
      <trkpt lat="44.27773" lon="4.53941">
        <ele>148.643</ele>
        <time>2012-11-03T12:57:30Z</time>
      </trkpt>
      <trkpt lat="44.2779" lon="4.53959">
        <ele>148.574</ele>
        <time>2012-11-03T12:57:35Z</time>
      </trkpt>
      <trkpt lat="44.27804" lon="4.53978">
        <ele>146.563</ele>
        <time>2012-11-03T12:57:40Z</time>
      </trkpt>
      <trkpt lat="44.27816" lon="4.54006">
        <ele>144.183</ele>
        <time>2012-11-03T12:57:46Z</time>
      </trkpt>
      <trkpt lat="44.27818" lon="4.54032">
        <ele>144.263</ele>
        <time>2012-11-03T12:57:51Z</time>
      </trkpt>
      <trkpt lat="44.27823" lon="4.54063">
        <ele>146.963</ele>
        <time>2012-11-03T12:57:57Z</time>
      </trkpt>
      <trkpt lat="44.27828" lon="4.54099">
        <ele>150.645</ele>
        <time>2012-11-03T12:58:04Z</time>
      </trkpt>
      <trkpt lat="44.27833" lon="4.54129">
        <ele>151.554</ele>
        <time>2012-11-03T12:58:10Z</time>
      </trkpt>
      <trkpt lat="44.27837" lon="4.54152">
        <ele>152.174</ele>
        <time>2012-11-03T12:58:15Z</time>
      </trkpt>
      <trkpt lat="44.27839" lon="4.54193">
        <ele>152.785</ele>
        <time>2012-11-03T12:58:24Z</time>
      </trkpt>
      <trkpt lat="44.27846" lon="4.5422">
        <ele>149.103</ele>
        <time>2012-11-03T12:58:31Z</time>
      </trkpt>
      <trkpt lat="44.27856" lon="4.54236">
        <ele>147.653</ele>
        <time>2012-11-03T12:58:35Z</time>
      </trkpt>
      <trkpt lat="44.2787" lon="4.5428">
        <ele>145.944</ele>
        <time>2012-11-03T12:58:43Z</time>
      </trkpt>
      <trkpt lat="44.27878" lon="4.543">
        <ele>144.443</ele>
        <time>2012-11-03T12:58:47Z</time>
      </trkpt>
      <trkpt lat="44.27876" lon="4.54314">
        <ele>144.394</ele>
        <time>2012-11-03T12:58:51Z</time>
      </trkpt>
      <trkpt lat="44.27876" lon="4.54315">
        <ele>144.891</ele>
        <time>2012-11-03T12:58:52Z</time>
      </trkpt>
      <trkpt lat="44.27875" lon="4.543">
        <ele>146.934</ele>
        <time>2012-11-03T12:59:09Z</time>
      </trkpt>
      <trkpt lat="44.27873" lon="4.543">
        <ele>146.234</ele>
        <time>2012-11-03T12:59:11Z</time>
      </trkpt>
      <trkpt lat="44.27871" lon="4.5432">
        <ele>145.393</ele>
        <time>2012-11-03T12:59:17Z</time>
      </trkpt>
      <trkpt lat="44.27875" lon="4.54334">
        <ele>142.832</ele>
        <time>2012-11-03T12:59:20Z</time>
      </trkpt>
      <trkpt lat="44.27873" lon="4.54359">
        <ele>143.615</ele>
        <time>2012-11-03T12:59:25Z</time>
      </trkpt>
      <trkpt lat="44.2787" lon="4.54368">
        <ele>145.796</ele>
        <time>2012-11-03T12:59:28Z</time>
      </trkpt>
      <trkpt lat="44.27865" lon="4.54381">
        <ele>150.497</ele>
        <time>2012-11-03T12:59:34Z</time>
      </trkpt>
      <trkpt lat="44.27859" lon="4.54397">
        <ele>151.476</ele>
        <time>2012-11-03T12:59:39Z</time>
      </trkpt>
      <trkpt lat="44.27848" lon="4.54424">
        <ele>155.347</ele>
        <time>2012-11-03T12:59:45Z</time>
      </trkpt>
      <trkpt lat="44.2784" lon="4.54442">
        <ele>152.696</ele>
        <time>2012-11-03T12:59:49Z</time>
      </trkpt>
      <trkpt lat="44.27835" lon="4.54453">
        <ele>153.526</ele>
        <time>2012-11-03T12:59:51Z</time>
      </trkpt>
      <trkpt lat="44.27823" lon="4.54482">
        <ele>152.075</ele>
        <time>2012-11-03T12:59:56Z</time>
      </trkpt>
      <trkpt lat="44.27819" lon="4.54504">
        <ele>148.124</ele>
        <time>2012-11-03T13:00:00Z</time>
      </trkpt>
      <trkpt lat="44.27814" lon="4.54536">
        <ele>146.445</ele>
        <time>2012-11-03T13:00:06Z</time>
      </trkpt>
      <trkpt lat="44.27814" lon="4.54546">
        <ele>146.025</ele>
        <time>2012-11-03T13:00:08Z</time>
      </trkpt>
      <trkpt lat="44.27818" lon="4.54563">
        <ele>145.155</ele>
        <time>2012-11-03T13:00:13Z</time>
      </trkpt>
      <trkpt lat="44.2783" lon="4.54574">
        <ele>145.045</ele>
        <time>2012-11-03T13:00:18Z</time>
      </trkpt>
      <trkpt lat="44.27845" lon="4.54583">
        <ele>147.166</ele>
        <time>2012-11-03T13:00:23Z</time>
      </trkpt>
      <trkpt lat="44.27867" lon="4.54587">
        <ele>145.315</ele>
        <time>2012-11-03T13:00:28Z</time>
      </trkpt>
      <trkpt lat="44.27892" lon="4.54591">
        <ele>141.954</ele>
        <time>2012-11-03T13:00:33Z</time>
      </trkpt>
      <trkpt lat="44.27917" lon="4.54592">
        <ele>139.473</ele>
        <time>2012-11-03T13:00:39Z</time>
      </trkpt>
      <trkpt lat="44.27946" lon="4.54586">
        <ele>140.525</ele>
        <time>2012-11-03T13:00:46Z</time>
      </trkpt>
      <trkpt lat="44.27968" lon="4.54578">
        <ele>141.885</ele>
        <time>2012-11-03T13:00:51Z</time>
      </trkpt>
      <trkpt lat="44.27983" lon="4.54587">
        <ele>140.914</ele>
        <time>2012-11-03T13:00:55Z</time>
      </trkpt>
      <trkpt lat="44.27988" lon="4.54596">
        <ele>139.314</ele>
        <time>2012-11-03T13:00:57Z</time>
      </trkpt>
      <trkpt lat="44.27982" lon="4.54622">
        <ele>141.276</ele>
        <time>2012-11-03T13:01:01Z</time>
      </trkpt>
      <trkpt lat="44.27972" lon="4.54631">
        <ele>140.055</ele>
        <time>2012-11-03T13:01:03Z</time>
      </trkpt>
      <trkpt lat="44.27948" lon="4.54664">
        <ele>139.645</ele>
        <time>2012-11-03T13:01:10Z</time>
      </trkpt>
      <trkpt lat="44.27946" lon="4.54682">
        <ele>141.757</ele>
        <time>2012-11-03T13:01:14Z</time>
      </trkpt>
      <trkpt lat="44.27942" lon="4.54715">
        <ele>140.035</ele>
        <time>2012-11-03T13:01:20Z</time>
      </trkpt>
      <trkpt lat="44.27948" lon="4.54735">
        <ele>139.056</ele>
        <time>2012-11-03T13:01:24Z</time>
      </trkpt>
      <trkpt lat="44.27957" lon="4.54749">
        <ele>138.066</ele>
        <time>2012-11-03T13:01:29Z</time>
      </trkpt>
      <trkpt lat="44.27971" lon="4.54756">
        <ele>138.766</ele>
        <time>2012-11-03T13:01:34Z</time>
      </trkpt>
      <trkpt lat="44.27987" lon="4.54756">
        <ele>141.187</ele>
        <time>2012-11-03T13:01:40Z</time>
      </trkpt>
      <trkpt lat="44.28002" lon="4.54751">
        <ele>142.957</ele>
        <time>2012-11-03T13:01:46Z</time>
      </trkpt>
      <trkpt lat="44.28022" lon="4.54745">
        <ele>145.217</ele>
        <time>2012-11-03T13:01:54Z</time>
      </trkpt>
      <trkpt lat="44.28051" lon="4.54746">
        <ele>144.496</ele>
        <time>2012-11-03T13:02:03Z</time>
      </trkpt>
      <trkpt lat="44.28076" lon="4.54749">
        <ele>144.176</ele>
        <time>2012-11-03T13:02:11Z</time>
      </trkpt>
      <trkpt lat="44.28103" lon="4.54754">
        <ele>141.906</ele>
        <time>2012-11-03T13:02:20Z</time>
      </trkpt>
      <trkpt lat="44.28126" lon="4.54756">
        <ele>141.837</ele>
        <time>2012-11-03T13:02:28Z</time>
      </trkpt>
      <trkpt lat="44.28151" lon="4.5476">
        <ele>141.227</ele>
        <time>2012-11-03T13:02:36Z</time>
      </trkpt>
      <trkpt lat="44.28166" lon="4.54761">
        <ele>141.767</ele>
        <time>2012-11-03T13:02:43Z</time>
      </trkpt>
      <trkpt lat="44.28178" lon="4.54761">
        <ele>143.427</ele>
        <time>2012-11-03T13:02:50Z</time>
      </trkpt>
      <trkpt lat="44.28194" lon="4.54764">
        <ele>144.627</ele>
        <time>2012-11-03T13:02:58Z</time>
      </trkpt>
      <trkpt lat="44.28208" lon="4.54766">
        <ele>148.408</ele>
        <time>2012-11-03T13:03:06Z</time>
      </trkpt>
      <trkpt lat="44.2822" lon="4.54764">
        <ele>148.947</ele>
        <time>2012-11-03T13:03:13Z</time>
      </trkpt>
      <trkpt lat="44.28235" lon="4.5476">
        <ele>150.127</ele>
        <time>2012-11-03T13:03:21Z</time>
      </trkpt>
      <trkpt lat="44.28251" lon="4.54755">
        <ele>149.406</ele>
        <time>2012-11-03T13:03:29Z</time>
      </trkpt>
      <trkpt lat="44.28265" lon="4.54752">
        <ele>148.586</ele>
        <time>2012-11-03T13:03:33Z</time>
      </trkpt>
      <trkpt lat="44.28281" lon="4.54745">
        <ele>147.725</ele>
        <time>2012-11-03T13:03:36Z</time>
      </trkpt>
      <trkpt lat="44.28323" lon="4.54715">
        <ele>143.954</ele>
        <time>2012-11-03T13:03:43Z</time>
      </trkpt>
      <trkpt lat="44.28357" lon="4.54687">
        <ele>141.935</ele>
        <time>2012-11-03T13:03:49Z</time>
      </trkpt>
      <trkpt lat="44.28382" lon="4.54684">
        <ele>139.273</ele>
        <time>2012-11-03T13:03:53Z</time>
      </trkpt>
      <trkpt lat="44.28403" lon="4.54693">
        <ele>139.194</ele>
        <time>2012-11-03T13:03:56Z</time>
      </trkpt>
      <trkpt lat="44.28432" lon="4.54693">
        <ele>137.374</ele>
        <time>2012-11-03T13:04:00Z</time>
      </trkpt>
      <trkpt lat="44.28459" lon="4.54694">
        <ele>135.335</ele>
        <time>2012-11-03T13:04:04Z</time>
      </trkpt>
      <trkpt lat="44.28489" lon="4.54691">
        <ele>134.105</ele>
        <time>2012-11-03T13:04:09Z</time>
      </trkpt>
      <trkpt lat="44.28516" lon="4.54674">
        <ele>129.355</ele>
        <time>2012-11-03T13:04:15Z</time>
      </trkpt>
      <trkpt lat="44.28537" lon="4.54656">
        <ele>128.596</ele>
        <time>2012-11-03T13:04:21Z</time>
      </trkpt>
      <trkpt lat="44.28564" lon="4.54641">
        <ele>131.118</ele>
        <time>2012-11-03T13:04:29Z</time>
      </trkpt>
      <trkpt lat="44.28586" lon="4.54629">
        <ele>132.808</ele>
        <time>2012-11-03T13:04:36Z</time>
      </trkpt>
      <trkpt lat="44.28601" lon="4.54615">
        <ele>133.748</ele>
        <time>2012-11-03T13:04:42Z</time>
      </trkpt>
      <trkpt lat="44.28615" lon="4.54605">
        <ele>134.968</ele>
        <time>2012-11-03T13:04:49Z</time>
      </trkpt>
      <trkpt lat="44.28615" lon="4.54605">
        <ele>135.154</ele>
        <time>2012-11-03T13:04:50Z</time>
      </trkpt>
      <trkpt lat="44.28617" lon="4.54604">
        <ele>135.097</ele>
        <time>2012-11-03T13:04:53Z</time>
      </trkpt>
      <trkpt lat="44.28619" lon="4.546">
        <ele>134.428</ele>
        <time>2012-11-03T13:04:58Z</time>
      </trkpt>
      <trkpt lat="44.28623" lon="4.54606">
        <ele>135.67</ele>
        <time>2012-11-03T13:08:33Z</time>
      </trkpt>
      <trkpt lat="44.28624" lon="4.54605">
        <ele>134.907</ele>
        <time>2012-11-03T13:08:37Z</time>
      </trkpt>
      <trkpt lat="44.28634" lon="4.54594">
        <ele>133.738</ele>
        <time>2012-11-03T13:08:43Z</time>
      </trkpt>
      <trkpt lat="44.28636" lon="4.54584">
        <ele>132.257</ele>
        <time>2012-11-03T13:08:46Z</time>
      </trkpt>
      <trkpt lat="44.28626" lon="4.54569">
        <ele>131.758</ele>
        <time>2012-11-03T13:08:53Z</time>
      </trkpt>
      <trkpt lat="44.28618" lon="4.54562">
        <ele>135.36</ele>
        <time>2012-11-03T13:08:59Z</time>
      </trkpt>
      <trkpt lat="44.28616" lon="4.54559">
        <ele>136.129</ele>
        <time>2012-11-03T13:09:01Z</time>
      </trkpt>
      <trkpt lat="44.28611" lon="4.54549">
        <ele>139.48</ele>
        <time>2012-11-03T13:09:07Z</time>
      </trkpt>
      <trkpt lat="44.28608" lon="4.54537">
        <ele>140.28</ele>
        <time>2012-11-03T13:09:12Z</time>
      </trkpt>
      <trkpt lat="44.28607" lon="4.54528">
        <ele>140.239</ele>
        <time>2012-11-03T13:09:16Z</time>
      </trkpt>
      <trkpt lat="44.28613" lon="4.54507">
        <ele>141.598</ele>
        <time>2012-11-03T13:09:25Z</time>
      </trkpt>
      <trkpt lat="44.28618" lon="4.54487">
        <ele>142.538</ele>
        <time>2012-11-03T13:09:34Z</time>
      </trkpt>
      <trkpt lat="44.28625" lon="4.54474">
        <ele>144.188</ele>
        <time>2012-11-03T13:09:41Z</time>
      </trkpt>
      <trkpt lat="44.28632" lon="4.54462">
        <ele>145.267</ele>
        <time>2012-11-03T13:09:48Z</time>
      </trkpt>
      <trkpt lat="44.28632" lon="4.5446">
        <ele>145.377</ele>
        <time>2012-11-03T13:09:49Z</time>
      </trkpt>
      <trkpt lat="44.28633" lon="4.54449">
        <ele>145.818</ele>
        <time>2012-11-03T13:09:54Z</time>
      </trkpt>
      <trkpt lat="44.28623" lon="4.54433">
        <ele>149.619</ele>
        <time>2012-11-03T13:10:04Z</time>
      </trkpt>
      <trkpt lat="44.28612" lon="4.54424">
        <ele>152.988</ele>
        <time>2012-11-03T13:10:13Z</time>
      </trkpt>
      <trkpt lat="44.28602" lon="4.54417">
        <ele>153.798</ele>
        <time>2012-11-03T13:10:20Z</time>
      </trkpt>
      <trkpt lat="44.2859" lon="4.54408">
        <ele>155.168</ele>
        <time>2012-11-03T13:10:28Z</time>
      </trkpt>
      <trkpt lat="44.28578" lon="4.54398">
        <ele>155.497</ele>
        <time>2012-11-03T13:10:36Z</time>
      </trkpt>
      <trkpt lat="44.28566" lon="4.54383">
        <ele>157.448</ele>
        <time>2012-11-03T13:10:44Z</time>
      </trkpt>
      <trkpt lat="44.28556" lon="4.54368">
        <ele>159.258</ele>
        <time>2012-11-03T13:10:51Z</time>
      </trkpt>
      <trkpt lat="44.2855" lon="4.54347">
        <ele>158.467</ele>
        <time>2012-11-03T13:10:58Z</time>
      </trkpt>
      <trkpt lat="44.28542" lon="4.54331">
        <ele>158.718</ele>
        <time>2012-11-03T13:11:04Z</time>
      </trkpt>
      <trkpt lat="44.28535" lon="4.54312">
        <ele>158.497</ele>
        <time>2012-11-03T13:11:09Z</time>
      </trkpt>
      <trkpt lat="44.28525" lon="4.54286">
        <ele>156.546</ele>
        <time>2012-11-03T13:11:15Z</time>
      </trkpt>
      <trkpt lat="44.28529" lon="4.54261">
        <ele>155.325</ele>
        <time>2012-11-03T13:11:19Z</time>
      </trkpt>
      <trkpt lat="44.28525" lon="4.54228">
        <ele>152.504</ele>
        <time>2012-11-03T13:11:24Z</time>
      </trkpt>
      <trkpt lat="44.28523" lon="4.54221">
        <ele>152.004</ele>
        <time>2012-11-03T13:11:25Z</time>
      </trkpt>
      <trkpt lat="44.28521" lon="4.54197">
        <ele>151.305</ele>
        <time>2012-11-03T13:11:28Z</time>
      </trkpt>
      <trkpt lat="44.28524" lon="4.54175">
        <ele>149.374</ele>
        <time>2012-11-03T13:11:31Z</time>
      </trkpt>
      <trkpt lat="44.28535" lon="4.54159">
        <ele>149.735</ele>
        <time>2012-11-03T13:11:35Z</time>
      </trkpt>
      <trkpt lat="44.28547" lon="4.54161">
        <ele>151.206</ele>
        <time>2012-11-03T13:11:39Z</time>
      </trkpt>
      <trkpt lat="44.28564" lon="4.54177">
        <ele>153.737</ele>
        <time>2012-11-03T13:11:46Z</time>
      </trkpt>
      <trkpt lat="44.28578" lon="4.54196">
        <ele>153.818</ele>
        <time>2012-11-03T13:11:53Z</time>
      </trkpt>
      <trkpt lat="44.2859" lon="4.54208">
        <ele>152.647</ele>
        <time>2012-11-03T13:11:58Z</time>
      </trkpt>
      <trkpt lat="44.28611" lon="4.54226">
        <ele>149.805</ele>
        <time>2012-11-03T13:12:04Z</time>
      </trkpt>
      <trkpt lat="44.2862" lon="4.54232">
        <ele>148.925</ele>
        <time>2012-11-03T13:12:06Z</time>
      </trkpt>
      <trkpt lat="44.28641" lon="4.54238">
        <ele>147.054</ele>
        <time>2012-11-03T13:12:10Z</time>
      </trkpt>
      <trkpt lat="44.28656" lon="4.54245">
        <ele>144.753</ele>
        <time>2012-11-03T13:12:13Z</time>
      </trkpt>
      <trkpt lat="44.28674" lon="4.54253">
        <ele>142.094</ele>
        <time>2012-11-03T13:12:17Z</time>
      </trkpt>
      <trkpt lat="44.28679" lon="4.54255">
        <ele>141.504</ele>
        <time>2012-11-03T13:12:18Z</time>
      </trkpt>
      <trkpt lat="44.28688" lon="4.54261">
        <ele>139.783</ele>
        <time>2012-11-03T13:12:20Z</time>
      </trkpt>
      <trkpt lat="44.28715" lon="4.54276">
        <ele>135.913</ele>
        <time>2012-11-03T13:12:25Z</time>
      </trkpt>
      <trkpt lat="44.28762" lon="4.54292">
        <ele>133.095</ele>
        <time>2012-11-03T13:12:31Z</time>
      </trkpt>
      <trkpt lat="44.28781" lon="4.54301">
        <ele>132.966</ele>
        <time>2012-11-03T13:12:34Z</time>
      </trkpt>
      <trkpt lat="44.28789" lon="4.54311">
        <ele>132.465</ele>
        <time>2012-11-03T13:12:37Z</time>
      </trkpt>
      <trkpt lat="44.28799" lon="4.54338">
        <ele>129.995</ele>
        <time>2012-11-03T13:12:43Z</time>
      </trkpt>
      <trkpt lat="44.2881" lon="4.54363">
        <ele>127.055</ele>
        <time>2012-11-03T13:12:49Z</time>
      </trkpt>
      <trkpt lat="44.28816" lon="4.54374">
        <ele>126.435</ele>
        <time>2012-11-03T13:12:51Z</time>
      </trkpt>
      <trkpt lat="44.28836" lon="4.54396">
        <ele>125.476</ele>
        <time>2012-11-03T13:12:57Z</time>
      </trkpt>
      <trkpt lat="44.28855" lon="4.54411">
        <ele>125.437</ele>
        <time>2012-11-03T13:13:02Z</time>
      </trkpt>
      <trkpt lat="44.28888" lon="4.54427">
        <ele>124.816</ele>
        <time>2012-11-03T13:13:10Z</time>
      </trkpt>
      <trkpt lat="44.28911" lon="4.54442">
        <ele>124.067</ele>
        <time>2012-11-03T13:13:16Z</time>
      </trkpt>
      <trkpt lat="44.28924" lon="4.54453">
        <ele>123.256</ele>
        <time>2012-11-03T13:13:20Z</time>
      </trkpt>
      <trkpt lat="44.28935" lon="4.54467">
        <ele>121.015</ele>
        <time>2012-11-03T13:13:24Z</time>
      </trkpt>
      <trkpt lat="44.28968" lon="4.54472">
        <ele>119.197</ele>
        <time>2012-11-03T13:13:32Z</time>
      </trkpt>
      <trkpt lat="44.28981" lon="4.54469">
        <ele>117.856</ele>
        <time>2012-11-03T13:13:35Z</time>
      </trkpt>
      <trkpt lat="44.29006" lon="4.54469">
        <ele>116.787</ele>
        <time>2012-11-03T13:13:40Z</time>
      </trkpt>
      <trkpt lat="44.2902" lon="4.54471">
        <ele>115.567</ele>
        <time>2012-11-03T13:13:43Z</time>
      </trkpt>
      <trkpt lat="44.29038" lon="4.54473">
        <ele>116.938</ele>
        <time>2012-11-03T13:13:48Z</time>
      </trkpt>
      <trkpt lat="44.29057" lon="4.54483">
        <ele>116.597</ele>
        <time>2012-11-03T13:13:52Z</time>
      </trkpt>
      <trkpt lat="44.291" lon="4.54501">
        <ele>115.507</ele>
        <time>2012-11-03T13:13:59Z</time>
      </trkpt>
      <trkpt lat="44.29113" lon="4.54514">
        <ele>115.817</ele>
        <time>2012-11-03T13:14:03Z</time>
      </trkpt>
      <trkpt lat="44.29119" lon="4.54519">
        <ele>115.146</ele>
        <time>2012-11-03T13:14:05Z</time>
      </trkpt>
      <trkpt lat="44.29142" lon="4.5453">
        <ele>112.626</ele>
        <time>2012-11-03T13:14:11Z</time>
      </trkpt>
      <trkpt lat="44.29155" lon="4.54535">
        <ele>110.996</ele>
        <time>2012-11-03T13:14:15Z</time>
      </trkpt>
      <trkpt lat="44.29169" lon="4.5454">
        <ele>102.464</ele>
        <time>2012-11-03T13:14:19Z</time>
      </trkpt>
      <trkpt lat="44.29181" lon="4.54541">
        <ele>94.994</ele>
        <time>2012-11-03T13:14:25Z</time>
      </trkpt>
      <trkpt lat="44.29188" lon="4.54542">
        <ele>92.125</ele>
        <time>2012-11-03T13:14:29Z</time>
      </trkpt>
      <trkpt lat="44.29202" lon="4.54541">
        <ele>87.626</ele>
        <time>2012-11-03T13:14:36Z</time>
      </trkpt>
      <trkpt lat="44.29211" lon="4.54539">
        <ele>85.717</ele>
        <time>2012-11-03T13:14:40Z</time>
      </trkpt>
      <trkpt lat="44.29213" lon="4.54539">
        <ele>85.256</ele>
        <time>2012-11-03T13:14:41Z</time>
      </trkpt>
      <trkpt lat="44.29222" lon="4.54536">
        <ele>81.935</ele>
        <time>2012-11-03T13:14:46Z</time>
      </trkpt>
      <trkpt lat="44.29236" lon="4.54529">
        <ele>80.117</ele>
        <time>2012-11-03T13:14:52Z</time>
      </trkpt>
      <trkpt lat="44.29249" lon="4.54519">
        <ele>78.357</ele>
        <time>2012-11-03T13:14:58Z</time>
      </trkpt>
      <trkpt lat="44.29262" lon="4.54507">
        <ele>75.566</ele>
        <time>2012-11-03T13:15:03Z</time>
      </trkpt>
      <trkpt lat="44.29272" lon="4.545">
        <ele>74.546</ele>
        <time>2012-11-03T13:15:07Z</time>
      </trkpt>
      <trkpt lat="44.29284" lon="4.54504">
        <ele>72.796</ele>
        <time>2012-11-03T13:15:12Z</time>
      </trkpt>
      <trkpt lat="44.29292" lon="4.54514">
        <ele>71.336</ele>
        <time>2012-11-03T13:15:17Z</time>
      </trkpt>
      <trkpt lat="44.29299" lon="4.5453">
        <ele>71.626</ele>
        <time>2012-11-03T13:15:22Z</time>
      </trkpt>
      <trkpt lat="44.293" lon="4.54533">
        <ele>71.337</ele>
        <time>2012-11-03T13:15:23Z</time>
      </trkpt>
      <trkpt lat="44.29302" lon="4.54548">
        <ele>71.657</ele>
        <time>2012-11-03T13:15:28Z</time>
      </trkpt>
      <trkpt lat="44.29305" lon="4.54571">
        <ele>72.398</ele>
        <time>2012-11-03T13:15:32Z</time>
      </trkpt>
      <trkpt lat="44.29311" lon="4.54599">
        <ele>74.69</ele>
        <time>2012-11-03T13:15:37Z</time>
      </trkpt>
      <trkpt lat="44.29313" lon="4.54603">
        <ele>74.97</ele>
        <time>2012-11-03T13:15:39Z</time>
      </trkpt>
      <trkpt lat="44.29319" lon="4.54621">
        <ele>76.699</ele>
        <time>2012-11-03T13:15:46Z</time>
      </trkpt>
      <trkpt lat="44.29319" lon="4.54621">
        <ele>76.893</ele>
        <time>2012-11-03T13:15:48Z</time>
      </trkpt>
      <trkpt lat="44.29331" lon="4.54632">
        <ele>70.872</ele>
        <time>2012-11-03T13:16:33Z</time>
      </trkpt>
      <trkpt lat="44.29333" lon="4.54638">
        <ele>70.969</ele>
        <time>2012-11-03T13:16:37Z</time>
      </trkpt>
      <trkpt lat="44.29335" lon="4.54641">
        <ele>71.109</ele>
        <time>2012-11-03T13:16:41Z</time>
      </trkpt>
      <trkpt lat="44.29337" lon="4.54657">
        <ele>71.73</ele>
        <time>2012-11-03T13:16:46Z</time>
      </trkpt>
      <trkpt lat="44.29339" lon="4.54694">
        <ele>71.939</ele>
        <time>2012-11-03T13:16:54Z</time>
      </trkpt>
      <trkpt lat="44.29343" lon="4.54703">
        <ele>73.3</ele>
        <time>2012-11-03T13:16:57Z</time>
      </trkpt>
      <trkpt lat="44.29349" lon="4.54702">
        <ele>74.88</ele>
        <time>2012-11-03T13:17:02Z</time>
      </trkpt>
      <trkpt lat="44.29349" lon="4.54702">
        <ele>75.201</ele>
        <time>2012-11-03T13:17:03Z</time>
      </trkpt>
      <trkpt lat="44.29356" lon="4.54695">
        <ele>71.43</ele>
        <time>2012-11-03T13:18:14Z</time>
      </trkpt>
      <trkpt lat="44.29378" lon="4.54685">
        <ele>72.49</ele>
        <time>2012-11-03T13:18:24Z</time>
      </trkpt>
      <trkpt lat="44.29395" lon="4.54676">
        <ele>73.68</ele>
        <time>2012-11-03T13:18:32Z</time>
      </trkpt>
      <trkpt lat="44.29411" lon="4.5467">
        <ele>74.951</ele>
        <time>2012-11-03T13:18:39Z</time>
      </trkpt>
      <trkpt lat="44.29422" lon="4.54672">
        <ele>75.96</ele>
        <time>2012-11-03T13:18:46Z</time>
      </trkpt>
      <trkpt lat="44.29426" lon="4.54692">
        <ele>76.36</ele>
        <time>2012-11-03T13:18:53Z</time>
      </trkpt>
      <trkpt lat="44.29431" lon="4.54718">
        <ele>77.37</ele>
        <time>2012-11-03T13:19:02Z</time>
      </trkpt>
      <trkpt lat="44.29435" lon="4.54737">
        <ele>79.461</ele>
        <time>2012-11-03T13:19:09Z</time>
      </trkpt>
      <trkpt lat="44.29446" lon="4.54755">
        <ele>80.351</ele>
        <time>2012-11-03T13:19:17Z</time>
      </trkpt>
      <trkpt lat="44.29457" lon="4.54769">
        <ele>79.318</ele>
        <time>2012-11-03T13:19:23Z</time>
      </trkpt>
      <trkpt lat="44.29468" lon="4.54784">
        <ele>77.788</ele>
        <time>2012-11-03T13:19:27Z</time>
      </trkpt>
      <trkpt lat="44.29493" lon="4.54798">
        <ele>75.588</ele>
        <time>2012-11-03T13:19:32Z</time>
      </trkpt>
      <trkpt lat="44.29509" lon="4.54799">
        <ele>76.76</ele>
        <time>2012-11-03T13:19:36Z</time>
      </trkpt>
      <trkpt lat="44.29526" lon="4.54808">
        <ele>80.892</ele>
        <time>2012-11-03T13:19:44Z</time>
      </trkpt>
      <trkpt lat="44.29541" lon="4.54816">
        <ele>81.27</ele>
        <time>2012-11-03T13:19:50Z</time>
      </trkpt>
      <trkpt lat="44.29564" lon="4.54828">
        <ele>81.661</ele>
        <time>2012-11-03T13:19:58Z</time>
      </trkpt>
      <trkpt lat="44.29581" lon="4.54843">
        <ele>82.841</ele>
        <time>2012-11-03T13:20:05Z</time>
      </trkpt>
      <trkpt lat="44.296" lon="4.54861">
        <ele>83.331</ele>
        <time>2012-11-03T13:20:13Z</time>
      </trkpt>
      <trkpt lat="44.29615" lon="4.54866">
        <ele>84.491</ele>
        <time>2012-11-03T13:20:19Z</time>
      </trkpt>
      <trkpt lat="44.2963" lon="4.54868">
        <ele>84.871</ele>
        <time>2012-11-03T13:20:27Z</time>
      </trkpt>
      <trkpt lat="44.29643" lon="4.54871">
        <ele>85.411</ele>
        <time>2012-11-03T13:20:34Z</time>
      </trkpt>
      <trkpt lat="44.29657" lon="4.54878">
        <ele>87.102</ele>
        <time>2012-11-03T13:20:42Z</time>
      </trkpt>
      <trkpt lat="44.29668" lon="4.54887">
        <ele>88.412</ele>
        <time>2012-11-03T13:20:49Z</time>
      </trkpt>
      <trkpt lat="44.29681" lon="4.54898">
        <ele>90.512</ele>
        <time>2012-11-03T13:20:57Z</time>
      </trkpt>
      <trkpt lat="44.29695" lon="4.54907">
        <ele>90.982</ele>
        <time>2012-11-03T13:21:05Z</time>
      </trkpt>
      <trkpt lat="44.29708" lon="4.54908">
        <ele>92.708</ele>
        <time>2012-11-03T13:21:13Z</time>
      </trkpt>
      <trkpt lat="44.29715" lon="4.54906">
        <ele>93.241</ele>
        <time>2012-11-03T13:21:18Z</time>
      </trkpt>
      <trkpt lat="44.2973" lon="4.54903">
        <ele>97.472</ele>
        <time>2012-11-03T13:21:28Z</time>
      </trkpt>
      <trkpt lat="44.29743" lon="4.54901">
        <ele>99.242</ele>
        <time>2012-11-03T13:21:37Z</time>
      </trkpt>
      <trkpt lat="44.29754" lon="4.54898">
        <ele>99.682</ele>
        <time>2012-11-03T13:21:44Z</time>
      </trkpt>
      <trkpt lat="44.29767" lon="4.54895">
        <ele>99.502</ele>
        <time>2012-11-03T13:21:52Z</time>
      </trkpt>
      <trkpt lat="44.2978" lon="4.54893">
        <ele>100.452</ele>
        <time>2012-11-03T13:22:00Z</time>
      </trkpt>
      <trkpt lat="44.29793" lon="4.54892">
        <ele>100.642</ele>
        <time>2012-11-03T13:22:08Z</time>
      </trkpt>
      <trkpt lat="44.29808" lon="4.5489">
        <ele>101.902</ele>
        <time>2012-11-03T13:22:17Z</time>
      </trkpt>
      <trkpt lat="44.2981" lon="4.5489">
        <ele>102.122</ele>
        <time>2012-11-03T13:22:18Z</time>
      </trkpt>
      <trkpt lat="44.29816" lon="4.54877">
        <ele>103.382</ele>
        <time>2012-11-03T13:22:25Z</time>
      </trkpt>
      <trkpt lat="44.29816" lon="4.54871">
        <ele>103.511</ele>
        <time>2012-11-03T13:22:27Z</time>
      </trkpt>
      <trkpt lat="44.29818" lon="4.54844">
        <ele>102.951</ele>
        <time>2012-11-03T13:22:35Z</time>
      </trkpt>
      <trkpt lat="44.29821" lon="4.54815">
        <ele>101.42</ele>
        <time>2012-11-03T13:22:42Z</time>
      </trkpt>
      <trkpt lat="44.29829" lon="4.54778">
        <ele>99.76</ele>
        <time>2012-11-03T13:22:48Z</time>
      </trkpt>
      <trkpt lat="44.29834" lon="4.54735">
        <ele>100.57</ele>
        <time>2012-11-03T13:22:55Z</time>
      </trkpt>
      <trkpt lat="44.29832" lon="4.54723">
        <ele>101.17</ele>
        <time>2012-11-03T13:22:57Z</time>
      </trkpt>
      <trkpt lat="44.29815" lon="4.54697">
        <ele>101.161</ele>
        <time>2012-11-03T13:23:03Z</time>
      </trkpt>
      <trkpt lat="44.2979" lon="4.54663">
        <ele>101.262</ele>
        <time>2012-11-03T13:23:11Z</time>
      </trkpt>
      <trkpt lat="44.29768" lon="4.54621">
        <ele>101.792</ele>
        <time>2012-11-03T13:23:21Z</time>
      </trkpt>
      <trkpt lat="44.29748" lon="4.54579">
        <ele>101.991</ele>
        <time>2012-11-03T13:23:31Z</time>
      </trkpt>
      <trkpt lat="44.29735" lon="4.5454">
        <ele>100.399</ele>
        <time>2012-11-03T13:23:37Z</time>
      </trkpt>
      <trkpt lat="44.29727" lon="4.54507">
        <ele>99.559</ele>
        <time>2012-11-03T13:23:41Z</time>
      </trkpt>
      <trkpt lat="44.29724" lon="4.54476">
        <ele>98.237</ele>
        <time>2012-11-03T13:23:44Z</time>
      </trkpt>
      <trkpt lat="44.29725" lon="4.54454">
        <ele>96.467</ele>
        <time>2012-11-03T13:23:46Z</time>
      </trkpt>
      <trkpt lat="44.29716" lon="4.54416">
        <ele>97.32</ele>
        <time>2012-11-03T13:23:50Z</time>
      </trkpt>
      <trkpt lat="44.29702" lon="4.54385">
        <ele>97.871</ele>
        <time>2012-11-03T13:23:55Z</time>
      </trkpt>
      <trkpt lat="44.29696" lon="4.5434">
        <ele>99.051</ele>
        <time>2012-11-03T13:24:02Z</time>
      </trkpt>
      <trkpt lat="44.29693" lon="4.54303">
        <ele>99.831</ele>
        <time>2012-11-03T13:24:09Z</time>
      </trkpt>
      <trkpt lat="44.2969" lon="4.54266">
        <ele>100.841</ele>
        <time>2012-11-03T13:24:17Z</time>
      </trkpt>
      <trkpt lat="44.29688" lon="4.54222">
        <ele>102.001</ele>
        <time>2012-11-03T13:24:27Z</time>
      </trkpt>
      <trkpt lat="44.29684" lon="4.54181">
        <ele>103.45</ele>
        <time>2012-11-03T13:24:38Z</time>
      </trkpt>
      <trkpt lat="44.29681" lon="4.54148">
        <ele>104.35</ele>
        <time>2012-11-03T13:24:46Z</time>
      </trkpt>
      <trkpt lat="44.29678" lon="4.54109">
        <ele>105.061</ele>
        <time>2012-11-03T13:24:55Z</time>
      </trkpt>
      <trkpt lat="44.29675" lon="4.54059">
        <ele>104.929</ele>
        <time>2012-11-03T13:25:06Z</time>
      </trkpt>
      <trkpt lat="44.29676" lon="4.54022">
        <ele>102.328</ele>
        <time>2012-11-03T13:25:11Z</time>
      </trkpt>
      <trkpt lat="44.29673" lon="4.53965">
        <ele>99.629</ele>
        <time>2012-11-03T13:25:18Z</time>
      </trkpt>
      <trkpt lat="44.29672" lon="4.53938">
        <ele>100.259</ele>
        <time>2012-11-03T13:25:22Z</time>
      </trkpt>
      <trkpt lat="44.29668" lon="4.53893">
        <ele>103.62</ele>
        <time>2012-11-03T13:25:30Z</time>
      </trkpt>
      <trkpt lat="44.29663" lon="4.5387">
        <ele>106.69</ele>
        <time>2012-11-03T13:25:36Z</time>
      </trkpt>
      <trkpt lat="44.29659" lon="4.53839">
        <ele>109.259</ele>
        <time>2012-11-03T13:25:45Z</time>
      </trkpt>
      <trkpt lat="44.29655" lon="4.53817">
        <ele>109.149</ele>
        <time>2012-11-03T13:25:52Z</time>
      </trkpt>
      <trkpt lat="44.29654" lon="4.53792">
        <ele>109.509</ele>
        <time>2012-11-03T13:26:00Z</time>
      </trkpt>
      <trkpt lat="44.29654" lon="4.53759">
        <ele>109.46</ele>
        <time>2012-11-03T13:26:10Z</time>
      </trkpt>
      <trkpt lat="44.29656" lon="4.53719">
        <ele>109.831</ele>
        <time>2012-11-03T13:26:21Z</time>
      </trkpt>
      <trkpt lat="44.29656" lon="4.53675">
        <ele>110.511</ele>
        <time>2012-11-03T13:26:32Z</time>
      </trkpt>
      <trkpt lat="44.29658" lon="4.53632">
        <ele>111.682</ele>
        <time>2012-11-03T13:26:43Z</time>
      </trkpt>
      <trkpt lat="44.29665" lon="4.5363">
        <ele>111.889</ele>
        <time>2012-11-03T13:26:47Z</time>
      </trkpt>
      <trkpt lat="44.29671" lon="4.53638">
        <ele>111.781</ele>
        <time>2012-11-03T13:26:50Z</time>
      </trkpt>
      <trkpt lat="44.29693" lon="4.53673">
        <ele>111.621</ele>
        <time>2012-11-03T13:27:01Z</time>
      </trkpt>
      <trkpt lat="44.29708" lon="4.53695">
        <ele>111.669</ele>
        <time>2012-11-03T13:27:08Z</time>
      </trkpt>
      <trkpt lat="44.29727" lon="4.53714">
        <ele>112.479</ele>
        <time>2012-11-03T13:27:16Z</time>
      </trkpt>
      <trkpt lat="44.29741" lon="4.53715">
        <ele>113.494</ele>
        <time>2012-11-03T13:27:21Z</time>
      </trkpt>
      <trkpt lat="44.29772" lon="4.53708">
        <ele>115.703</ele>
        <time>2012-11-03T13:27:32Z</time>
      </trkpt>
      <trkpt lat="44.29795" lon="4.53702">
        <ele>117.536</ele>
        <time>2012-11-03T13:27:41Z</time>
      </trkpt>
      <trkpt lat="44.29814" lon="4.53697">
        <ele>118.976</ele>
        <time>2012-11-03T13:27:49Z</time>
      </trkpt>
      <trkpt lat="44.29836" lon="4.53692">
        <ele>120.694</ele>
        <time>2012-11-03T13:27:59Z</time>
      </trkpt>
      <trkpt lat="44.29858" lon="4.53686">
        <ele>122.28</ele>
        <time>2012-11-03T13:28:09Z</time>
      </trkpt>
      <trkpt lat="44.29874" lon="4.53683">
        <ele>123.276</ele>
        <time>2012-11-03T13:28:16Z</time>
      </trkpt>
      <trkpt lat="44.29897" lon="4.53675">
        <ele>125.18</ele>
        <time>2012-11-03T13:28:26Z</time>
      </trkpt>
      <trkpt lat="44.29918" lon="4.53667">
        <ele>126.279</ele>
        <time>2012-11-03T13:28:35Z</time>
      </trkpt>
      <trkpt lat="44.29928" lon="4.53677">
        <ele>126.272</ele>
        <time>2012-11-03T13:28:40Z</time>
      </trkpt>
      <trkpt lat="44.29943" lon="4.53699">
        <ele>126.192</ele>
        <time>2012-11-03T13:28:48Z</time>
      </trkpt>
      <trkpt lat="44.29956" lon="4.53718">
        <ele>126.243</ele>
        <time>2012-11-03T13:28:55Z</time>
      </trkpt>
      <trkpt lat="44.29973" lon="4.53744">
        <ele>125.821</ele>
        <time>2012-11-03T13:29:04Z</time>
      </trkpt>
      <trkpt lat="44.29993" lon="4.53776">
        <ele>126.303</ele>
        <time>2012-11-03T13:29:15Z</time>
      </trkpt>
      <trkpt lat="44.30014" lon="4.53807">
        <ele>126.881</ele>
        <time>2012-11-03T13:29:26Z</time>
      </trkpt>
      <trkpt lat="44.30032" lon="4.53833">
        <ele>126.81</ele>
        <time>2012-11-03T13:29:34Z</time>
      </trkpt>
      <trkpt lat="44.30053" lon="4.53864">
        <ele>126.351</ele>
        <time>2012-11-03T13:29:44Z</time>
      </trkpt>
      <trkpt lat="44.30068" lon="4.53887">
        <ele>125.85</ele>
        <time>2012-11-03T13:29:50Z</time>
      </trkpt>
      <trkpt lat="44.30077" lon="4.53898">
        <ele>125.81</ele>
        <time>2012-11-03T13:29:53Z</time>
      </trkpt>
      <trkpt lat="44.30088" lon="4.53895">
        <ele>126.07</ele>
        <time>2012-11-03T13:29:57Z</time>
      </trkpt>
      <trkpt lat="44.3009" lon="4.53889">
        <ele>126.425</ele>
        <time>2012-11-03T13:29:59Z</time>
      </trkpt>
      <trkpt lat="44.30094" lon="4.5387">
        <ele>128.116</ele>
        <time>2012-11-03T13:30:07Z</time>
      </trkpt>
      <trkpt lat="44.30094" lon="4.53868">
        <ele>128.361</ele>
        <time>2012-11-03T13:30:08Z</time>
      </trkpt>
      <trkpt lat="44.30093" lon="4.5385">
        <ele>130.208</ele>
        <time>2012-11-03T13:30:16Z</time>
      </trkpt>
      <trkpt lat="44.30094" lon="4.53846">
        <ele>130.671</ele>
        <time>2012-11-03T13:30:18Z</time>
      </trkpt>
      <trkpt lat="44.30099" lon="4.53834">
        <ele>132.315</ele>
        <time>2012-11-03T13:30:25Z</time>
      </trkpt>
      <trkpt lat="44.30105" lon="4.53821">
        <ele>134.037</ele>
        <time>2012-11-03T13:30:33Z</time>
      </trkpt>
      <trkpt lat="44.30108" lon="4.53805">
        <ele>135.566</ele>
        <time>2012-11-03T13:30:41Z</time>
      </trkpt>
      <trkpt lat="44.30108" lon="4.53801">
        <ele>135.82</ele>
        <time>2012-11-03T13:30:43Z</time>
      </trkpt>
      <trkpt lat="44.30108" lon="4.53797">
        <ele>136.361</ele>
        <time>2012-11-03T13:30:47Z</time>
      </trkpt>
      <trkpt lat="44.30118" lon="4.53786">
        <ele>138.671</ele>
        <time>2012-11-03T13:31:15Z</time>
      </trkpt>
      <trkpt lat="44.30129" lon="4.53785">
        <ele>138.901</ele>
        <time>2012-11-03T13:31:22Z</time>
      </trkpt>
      <trkpt lat="44.3013" lon="4.53785">
        <ele>139.111</ele>
        <time>2012-11-03T13:31:23Z</time>
      </trkpt>
      <trkpt lat="44.30137" lon="4.53786">
        <ele>139.671</ele>
        <time>2012-11-03T13:31:27Z</time>
      </trkpt>
      <trkpt lat="44.30154" lon="4.53788">
        <ele>142.161</ele>
        <time>2012-11-03T13:31:38Z</time>
      </trkpt>
      <trkpt lat="44.30166" lon="4.53787">
        <ele>143.951</ele>
        <time>2012-11-03T13:31:46Z</time>
      </trkpt>
      <trkpt lat="44.30178" lon="4.53789">
        <ele>145.271</ele>
        <time>2012-11-03T13:31:54Z</time>
      </trkpt>
      <trkpt lat="44.30187" lon="4.5379">
        <ele>146.021</ele>
        <time>2012-11-03T13:32:00Z</time>
      </trkpt>
      <trkpt lat="44.30203" lon="4.53794">
        <ele>147.381</ele>
        <time>2012-11-03T13:32:10Z</time>
      </trkpt>
      <trkpt lat="44.30215" lon="4.53801">
        <ele>148.401</ele>
        <time>2012-11-03T13:32:19Z</time>
      </trkpt>
      <trkpt lat="44.3023" lon="4.5381">
        <ele>150.071</ele>
        <time>2012-11-03T13:32:29Z</time>
      </trkpt>
      <trkpt lat="44.3024" lon="4.53817">
        <ele>151.471</ele>
        <time>2012-11-03T13:32:36Z</time>
      </trkpt>
      <trkpt lat="44.30253" lon="4.53823">
        <ele>153.041</ele>
        <time>2012-11-03T13:32:45Z</time>
      </trkpt>
      <trkpt lat="44.30261" lon="4.53828">
        <ele>153.792</ele>
        <time>2012-11-03T13:32:51Z</time>
      </trkpt>
      <trkpt lat="44.30274" lon="4.5383">
        <ele>155.151</ele>
        <time>2012-11-03T13:33:00Z</time>
      </trkpt>
      <trkpt lat="44.30286" lon="4.5383">
        <ele>155.811</ele>
        <time>2012-11-03T13:33:08Z</time>
      </trkpt>
      <trkpt lat="44.30301" lon="4.53823">
        <ele>156.351</ele>
        <time>2012-11-03T13:33:18Z</time>
      </trkpt>
      <trkpt lat="44.30312" lon="4.53816">
        <ele>157.291</ele>
        <time>2012-11-03T13:33:26Z</time>
      </trkpt>
      <trkpt lat="44.30326" lon="4.5381">
        <ele>157.581</ele>
        <time>2012-11-03T13:33:36Z</time>
      </trkpt>
      <trkpt lat="44.3034" lon="4.53804">
        <ele>158.591</ele>
        <time>2012-11-03T13:33:46Z</time>
      </trkpt>
      <trkpt lat="44.30352" lon="4.538">
        <ele>159.392</ele>
        <time>2012-11-03T13:33:54Z</time>
      </trkpt>
      <trkpt lat="44.30357" lon="4.53797">
        <ele>160.176</ele>
        <time>2012-11-03T13:34:00Z</time>
      </trkpt>
      <trkpt lat="44.3036" lon="4.53795">
        <ele>160.141</ele>
        <time>2012-11-03T13:34:17Z</time>
      </trkpt>
      <trkpt lat="44.30367" lon="4.53789">
        <ele>161.272</ele>
        <time>2012-11-03T13:34:23Z</time>
      </trkpt>
      <trkpt lat="44.30378" lon="4.53782">
        <ele>162.542</ele>
        <time>2012-11-03T13:34:31Z</time>
      </trkpt>
      <trkpt lat="44.30387" lon="4.53775">
        <ele>163.252</ele>
        <time>2012-11-03T13:34:38Z</time>
      </trkpt>
      <trkpt lat="44.30396" lon="4.53768">
        <ele>164.112</ele>
        <time>2012-11-03T13:34:46Z</time>
      </trkpt>
      <trkpt lat="44.30407" lon="4.5376">
        <ele>165.152</ele>
        <time>2012-11-03T13:34:55Z</time>
      </trkpt>
      <trkpt lat="44.30418" lon="4.53753">
        <ele>166.292</ele>
        <time>2012-11-03T13:35:03Z</time>
      </trkpt>
      <trkpt lat="44.30423" lon="4.53751">
        <ele>167.131</ele>
        <time>2012-11-03T13:35:09Z</time>
      </trkpt>
      <trkpt lat="44.3043" lon="4.53745">
        <ele>165.271</ele>
        <time>2012-11-03T13:35:44Z</time>
      </trkpt>
      <trkpt lat="44.30441" lon="4.53741">
        <ele>166.782</ele>
        <time>2012-11-03T13:35:52Z</time>
      </trkpt>
      <trkpt lat="44.30453" lon="4.53741">
        <ele>168.151</ele>
        <time>2012-11-03T13:36:00Z</time>
      </trkpt>
      <trkpt lat="44.30468" lon="4.53738">
        <ele>170.402</ele>
        <time>2012-11-03T13:36:10Z</time>
      </trkpt>
      <trkpt lat="44.30478" lon="4.53729">
        <ele>171.922</ele>
        <time>2012-11-03T13:36:18Z</time>
      </trkpt>
      <trkpt lat="44.30491" lon="4.53721">
        <ele>172.842</ele>
        <time>2012-11-03T13:36:27Z</time>
      </trkpt>
      <trkpt lat="44.30505" lon="4.53715">
        <ele>174.241</ele>
        <time>2012-11-03T13:36:37Z</time>
      </trkpt>
      <trkpt lat="44.30517" lon="4.5371">
        <ele>175.502</ele>
        <time>2012-11-03T13:36:46Z</time>
      </trkpt>
      <trkpt lat="44.30527" lon="4.53709">
        <ele>177.092</ele>
        <time>2012-11-03T13:36:53Z</time>
      </trkpt>
      <trkpt lat="44.30539" lon="4.53708">
        <ele>179.472</ele>
        <time>2012-11-03T13:37:02Z</time>
      </trkpt>
      <trkpt lat="44.30539" lon="4.53708">
        <ele>179.717</ele>
        <time>2012-11-03T13:37:04Z</time>
      </trkpt>
      <trkpt lat="44.30542" lon="4.5371">
        <ele>181.072</ele>
        <time>2012-11-03T13:37:36Z</time>
      </trkpt>
      <trkpt lat="44.30555" lon="4.53711">
        <ele>182.412</ele>
        <time>2012-11-03T13:37:44Z</time>
      </trkpt>
      <trkpt lat="44.3057" lon="4.53714">
        <ele>183.682</ele>
        <time>2012-11-03T13:37:54Z</time>
      </trkpt>
      <trkpt lat="44.30583" lon="4.53717">
        <ele>184.962</ele>
        <time>2012-11-03T13:38:03Z</time>
      </trkpt>
      <trkpt lat="44.30596" lon="4.53722">
        <ele>186.862</ele>
        <time>2012-11-03T13:38:12Z</time>
      </trkpt>
      <trkpt lat="44.30613" lon="4.53732">
        <ele>189.472</ele>
        <time>2012-11-03T13:38:24Z</time>
      </trkpt>
      <trkpt lat="44.30619" lon="4.53735">
        <ele>190.602</ele>
        <time>2012-11-03T13:38:30Z</time>
      </trkpt>
      <trkpt lat="44.30621" lon="4.53737">
        <ele>191.502</ele>
        <time>2012-11-03T13:39:26Z</time>
      </trkpt>
      <trkpt lat="44.30629" lon="4.53741">
        <ele>193.292</ele>
        <time>2012-11-03T13:39:32Z</time>
      </trkpt>
      <trkpt lat="44.30638" lon="4.53747">
        <ele>195.852</ele>
        <time>2012-11-03T13:39:39Z</time>
      </trkpt>
      <trkpt lat="44.3065" lon="4.53755">
        <ele>197.992</ele>
        <time>2012-11-03T13:39:48Z</time>
      </trkpt>
      <trkpt lat="44.3066" lon="4.53762">
        <ele>199.623</ele>
        <time>2012-11-03T13:39:56Z</time>
      </trkpt>
      <trkpt lat="44.30669" lon="4.53765">
        <ele>200.872</ele>
        <time>2012-11-03T13:40:03Z</time>
      </trkpt>
      <trkpt lat="44.30671" lon="4.53766">
        <ele>201.332</ele>
        <time>2012-11-03T13:40:06Z</time>
      </trkpt>
      <trkpt lat="44.30673" lon="4.53766">
        <ele>200.992</ele>
        <time>2012-11-03T13:40:38Z</time>
      </trkpt>
      <trkpt lat="44.30683" lon="4.53768">
        <ele>202.032</ele>
        <time>2012-11-03T13:40:48Z</time>
      </trkpt>
      <trkpt lat="44.30695" lon="4.53769">
        <ele>203.172</ele>
        <time>2012-11-03T13:40:59Z</time>
      </trkpt>
      <trkpt lat="44.30706" lon="4.5377">
        <ele>204.402</ele>
        <time>2012-11-03T13:41:10Z</time>
      </trkpt>
      <trkpt lat="44.30717" lon="4.5377">
        <ele>205.382</ele>
        <time>2012-11-03T13:41:20Z</time>
      </trkpt>
      <trkpt lat="44.30728" lon="4.5377">
        <ele>206.012</ele>
        <time>2012-11-03T13:41:30Z</time>
      </trkpt>
      <trkpt lat="44.30739" lon="4.5377">
        <ele>206.832</ele>
        <time>2012-11-03T13:41:41Z</time>
      </trkpt>
      <trkpt lat="44.30748" lon="4.53771">
        <ele>207.913</ele>
        <time>2012-11-03T13:41:51Z</time>
      </trkpt>
      <trkpt lat="44.30763" lon="4.53771">
        <ele>209.002</ele>
        <time>2012-11-03T13:42:05Z</time>
      </trkpt>
      <trkpt lat="44.30774" lon="4.5377">
        <ele>209.802</ele>
        <time>2012-11-03T13:42:16Z</time>
      </trkpt>
      <trkpt lat="44.30783" lon="4.53769">
        <ele>210.772</ele>
        <time>2012-11-03T13:42:26Z</time>
      </trkpt>
      <trkpt lat="44.30793" lon="4.53769">
        <ele>212.022</ele>
        <time>2012-11-03T13:42:37Z</time>
      </trkpt>
      <trkpt lat="44.30802" lon="4.53768">
        <ele>213.412</ele>
        <time>2012-11-03T13:42:47Z</time>
      </trkpt>
      <trkpt lat="44.30811" lon="4.53768">
        <ele>214.133</ele>
        <time>2012-11-03T13:42:57Z</time>
      </trkpt>
      <trkpt lat="44.3082" lon="4.53767">
        <ele>214.822</ele>
        <time>2012-11-03T13:43:06Z</time>
      </trkpt>
      <trkpt lat="44.30831" lon="4.53766">
        <ele>215.853</ele>
        <time>2012-11-03T13:43:17Z</time>
      </trkpt>
      <trkpt lat="44.3084" lon="4.53765">
        <ele>216.602</ele>
        <time>2012-11-03T13:43:26Z</time>
      </trkpt>
      <trkpt lat="44.3085" lon="4.53764">
        <ele>217.943</ele>
        <time>2012-11-03T13:43:37Z</time>
      </trkpt>
      <trkpt lat="44.30859" lon="4.53763">
        <ele>218.822</ele>
        <time>2012-11-03T13:43:47Z</time>
      </trkpt>
      <trkpt lat="44.30859" lon="4.53763">
        <ele>218.958</ele>
        <time>2012-11-03T13:43:49Z</time>
      </trkpt>
      <trkpt lat="44.30864" lon="4.53763">
        <ele>219.663</ele>
        <time>2012-11-03T13:43:57Z</time>
      </trkpt>
      <trkpt lat="44.30878" lon="4.5376">
        <ele>221.443</ele>
        <time>2012-11-03T13:44:06Z</time>
      </trkpt>
      <trkpt lat="44.30894" lon="4.53755">
        <ele>223.513</ele>
        <time>2012-11-03T13:44:17Z</time>
      </trkpt>
      <trkpt lat="44.30906" lon="4.53752">
        <ele>225.273</ele>
        <time>2012-11-03T13:44:26Z</time>
      </trkpt>
      <trkpt lat="44.30917" lon="4.5375">
        <ele>225.983</ele>
        <time>2012-11-03T13:44:34Z</time>
      </trkpt>
      <trkpt lat="44.3093" lon="4.53747">
        <ele>227.273</ele>
        <time>2012-11-03T13:44:43Z</time>
      </trkpt>
      <trkpt lat="44.30944" lon="4.53741">
        <ele>228.363</ele>
        <time>2012-11-03T13:44:52Z</time>
      </trkpt>
      <trkpt lat="44.30954" lon="4.53739">
        <ele>229.493</ele>
        <time>2012-11-03T13:44:59Z</time>
      </trkpt>
      <trkpt lat="44.3097" lon="4.53735">
        <ele>230.933</ele>
        <time>2012-11-03T13:45:09Z</time>
      </trkpt>
      <trkpt lat="44.30985" lon="4.53731">
        <ele>231.863</ele>
        <time>2012-11-03T13:45:17Z</time>
      </trkpt>
      <trkpt lat="44.31005" lon="4.53724">
        <ele>232.903</ele>
        <time>2012-11-03T13:45:28Z</time>
      </trkpt>
      <trkpt lat="44.31017" lon="4.53719">
        <ele>234.133</ele>
        <time>2012-11-03T13:45:35Z</time>
      </trkpt>
      <trkpt lat="44.31033" lon="4.53713">
        <ele>235.413</ele>
        <time>2012-11-03T13:45:44Z</time>
      </trkpt>
      <trkpt lat="44.31047" lon="4.53712">
        <ele>235.833</ele>
        <time>2012-11-03T13:45:50Z</time>
      </trkpt>
      <trkpt lat="44.31062" lon="4.53707">
        <ele>236.633</ele>
        <time>2012-11-03T13:45:58Z</time>
      </trkpt>
      <trkpt lat="44.3108" lon="4.53694">
        <ele>237.623</ele>
        <time>2012-11-03T13:46:08Z</time>
      </trkpt>
      <trkpt lat="44.31096" lon="4.53677">
        <ele>238.173</ele>
        <time>2012-11-03T13:46:17Z</time>
      </trkpt>
      <trkpt lat="44.31111" lon="4.53663">
        <ele>238.013</ele>
        <time>2012-11-03T13:46:25Z</time>
      </trkpt>
      <trkpt lat="44.31129" lon="4.53652">
        <ele>238.663</ele>
        <time>2012-11-03T13:46:34Z</time>
      </trkpt>
      <trkpt lat="44.31145" lon="4.53648">
        <ele>239.063</ele>
        <time>2012-11-03T13:46:41Z</time>
      </trkpt>
      <trkpt lat="44.31166" lon="4.53638">
        <ele>240.583</ele>
        <time>2012-11-03T13:46:51Z</time>
      </trkpt>
      <trkpt lat="44.31178" lon="4.53625">
        <ele>241.693</ele>
        <time>2012-11-03T13:46:59Z</time>
      </trkpt>
      <trkpt lat="44.31185" lon="4.53614">
        <ele>242.534</ele>
        <time>2012-11-03T13:47:06Z</time>
      </trkpt>
      <trkpt lat="44.31191" lon="4.536">
        <ele>244.543</ele>
        <time>2012-11-03T13:47:14Z</time>
      </trkpt>
      <trkpt lat="44.31196" lon="4.53586">
        <ele>247.014</ele>
        <time>2012-11-03T13:47:22Z</time>
      </trkpt>
      <trkpt lat="44.31204" lon="4.53573">
        <ele>248.474</ele>
        <time>2012-11-03T13:47:31Z</time>
      </trkpt>
      <trkpt lat="44.31212" lon="4.53566">
        <ele>248.853</ele>
        <time>2012-11-03T13:47:38Z</time>
      </trkpt>
      <trkpt lat="44.3122" lon="4.53557">
        <ele>249.313</ele>
        <time>2012-11-03T13:47:46Z</time>
      </trkpt>
      <trkpt lat="44.3123" lon="4.53551">
        <ele>249.573</ele>
        <time>2012-11-03T13:47:53Z</time>
      </trkpt>
      <trkpt lat="44.3124" lon="4.53544">
        <ele>250.314</ele>
        <time>2012-11-03T13:48:01Z</time>
      </trkpt>
      <trkpt lat="44.31247" lon="4.53538">
        <ele>250.703</ele>
        <time>2012-11-03T13:48:07Z</time>
      </trkpt>
      <trkpt lat="44.31257" lon="4.53527">
        <ele>250.983</ele>
        <time>2012-11-03T13:48:16Z</time>
      </trkpt>
      <trkpt lat="44.31266" lon="4.53518">
        <ele>252.333</ele>
        <time>2012-11-03T13:48:24Z</time>
      </trkpt>
      <trkpt lat="44.31276" lon="4.53505">
        <ele>253.513</ele>
        <time>2012-11-03T13:48:34Z</time>
      </trkpt>
      <trkpt lat="44.31286" lon="4.53492">
        <ele>254.163</ele>
        <time>2012-11-03T13:48:43Z</time>
      </trkpt>
      <trkpt lat="44.31294" lon="4.53481">
        <ele>255.553</ele>
        <time>2012-11-03T13:48:50Z</time>
      </trkpt>
      <trkpt lat="44.31301" lon="4.53466">
        <ele>258.424</ele>
        <time>2012-11-03T13:48:59Z</time>
      </trkpt>
      <trkpt lat="44.31307" lon="4.53455">
        <ele>259.224</ele>
        <time>2012-11-03T13:49:06Z</time>
      </trkpt>
      <trkpt lat="44.31316" lon="4.53451">
        <ele>259.373</ele>
        <time>2012-11-03T13:49:13Z</time>
      </trkpt>
      <trkpt lat="44.31316" lon="4.5345">
        <ele>258.868</ele>
        <time>2012-11-03T13:49:16Z</time>
      </trkpt>
      <trkpt lat="44.31314" lon="4.53449">
        <ele>250.963</ele>
        <time>2012-11-03T13:54:13Z</time>
      </trkpt>
      <trkpt lat="44.31318" lon="4.53452">
        <ele>250.932</ele>
        <time>2012-11-03T13:54:18Z</time>
      </trkpt>
      <trkpt lat="44.31323" lon="4.53457">
        <ele>251.423</ele>
        <time>2012-11-03T13:54:22Z</time>
      </trkpt>
      <trkpt lat="44.31335" lon="4.53477">
        <ele>252.233</ele>
        <time>2012-11-03T13:54:29Z</time>
      </trkpt>
      <trkpt lat="44.31343" lon="4.53497">
        <ele>252.833</ele>
        <time>2012-11-03T13:54:34Z</time>
      </trkpt>
      <trkpt lat="44.31347" lon="4.53508">
        <ele>252.943</ele>
        <time>2012-11-03T13:54:37Z</time>
      </trkpt>
      <trkpt lat="44.31352" lon="4.53514">
        <ele>253.373</ele>
        <time>2012-11-03T13:54:40Z</time>
      </trkpt>
      <trkpt lat="44.31362" lon="4.53509">
        <ele>254.754</ele>
        <time>2012-11-03T13:54:45Z</time>
      </trkpt>
      <trkpt lat="44.31374" lon="4.53487">
        <ele>256.433</ele>
        <time>2012-11-03T13:54:54Z</time>
      </trkpt>
      <trkpt lat="44.31383" lon="4.53466">
        <ele>258.073</ele>
        <time>2012-11-03T13:55:02Z</time>
      </trkpt>
      <trkpt lat="44.31386" lon="4.53446">
        <ele>260.284</ele>
        <time>2012-11-03T13:55:10Z</time>
      </trkpt>
      <trkpt lat="44.31388" lon="4.5343">
        <ele>262.084</ele>
        <time>2012-11-03T13:55:17Z</time>
      </trkpt>
      <trkpt lat="44.3139" lon="4.5341">
        <ele>263.293</ele>
        <time>2012-11-03T13:55:26Z</time>
      </trkpt>
      <trkpt lat="44.31391" lon="4.53391">
        <ele>264.373</ele>
        <time>2012-11-03T13:55:34Z</time>
      </trkpt>
      <trkpt lat="44.31393" lon="4.53364">
        <ele>265.223</ele>
        <time>2012-11-03T13:55:43Z</time>
      </trkpt>
      <trkpt lat="44.31396" lon="4.53331">
        <ele>266.413</ele>
        <time>2012-11-03T13:55:51Z</time>
      </trkpt>
      <trkpt lat="44.31401" lon="4.53312">
        <ele>267.094</ele>
        <time>2012-11-03T13:55:56Z</time>
      </trkpt>
      <trkpt lat="44.31409" lon="4.53293">
        <ele>266.963</ele>
        <time>2012-11-03T13:56:02Z</time>
      </trkpt>
      <trkpt lat="44.31413" lon="4.53276">
        <ele>266.712</ele>
        <time>2012-11-03T13:56:08Z</time>
      </trkpt>
      <trkpt lat="44.31418" lon="4.5326">
        <ele>267.482</ele>
        <time>2012-11-03T13:56:15Z</time>
      </trkpt>
      <trkpt lat="44.31424" lon="4.53245">
        <ele>269.213</ele>
        <time>2012-11-03T13:56:22Z</time>
      </trkpt>
      <trkpt lat="44.31424" lon="4.53243">
        <ele>269.373</ele>
        <time>2012-11-03T13:56:23Z</time>
      </trkpt>
      <trkpt lat="44.31428" lon="4.53235">
        <ele>269.583</ele>
        <time>2012-11-03T13:56:27Z</time>
      </trkpt>
      <trkpt lat="44.31432" lon="4.53224">
        <ele>269.773</ele>
        <time>2012-11-03T13:56:33Z</time>
      </trkpt>
      <trkpt lat="44.31434" lon="4.53215">
        <ele>269.543</ele>
        <time>2012-11-03T13:56:37Z</time>
      </trkpt>
      <trkpt lat="44.31438" lon="4.53197">
        <ele>270.552</ele>
        <time>2012-11-03T13:56:45Z</time>
      </trkpt>
      <trkpt lat="44.3144" lon="4.5318">
        <ele>271.593</ele>
        <time>2012-11-03T13:56:52Z</time>
      </trkpt>
      <trkpt lat="44.31445" lon="4.53166">
        <ele>272.273</ele>
        <time>2012-11-03T13:56:59Z</time>
      </trkpt>
      <trkpt lat="44.3145" lon="4.53152">
        <ele>273.683</ele>
        <time>2012-11-03T13:57:06Z</time>
      </trkpt>
      <trkpt lat="44.31457" lon="4.53136">
        <ele>274.153</ele>
        <time>2012-11-03T13:57:14Z</time>
      </trkpt>
      <trkpt lat="44.31464" lon="4.53122">
        <ele>275.043</ele>
        <time>2012-11-03T13:57:21Z</time>
      </trkpt>
      <trkpt lat="44.31465" lon="4.5312">
        <ele>275.143</ele>
        <time>2012-11-03T13:57:22Z</time>
      </trkpt>
      <trkpt lat="44.31472" lon="4.5311">
        <ele>275.623</ele>
        <time>2012-11-03T13:57:29Z</time>
      </trkpt>
      <trkpt lat="44.31479" lon="4.53097">
        <ele>277.073</ele>
        <time>2012-11-03T13:57:36Z</time>
      </trkpt>
      <trkpt lat="44.31484" lon="4.53087">
        <ele>277.113</ele>
        <time>2012-11-03T13:57:42Z</time>
      </trkpt>
      <trkpt lat="44.31489" lon="4.53071">
        <ele>278.253</ele>
        <time>2012-11-03T13:57:49Z</time>
      </trkpt>
      <trkpt lat="44.31495" lon="4.53061">
        <ele>279.124</ele>
        <time>2012-11-03T13:57:55Z</time>
      </trkpt>
      <trkpt lat="44.31511" lon="4.53053">
        <ele>280.023</ele>
        <time>2012-11-03T13:58:04Z</time>
      </trkpt>
      <trkpt lat="44.31527" lon="4.53039">
        <ele>280.013</ele>
        <time>2012-11-03T13:58:14Z</time>
      </trkpt>
      <trkpt lat="44.31544" lon="4.53031">
        <ele>282.493</ele>
        <time>2012-11-03T13:58:23Z</time>
      </trkpt>
      <trkpt lat="44.31553" lon="4.53024">
        <ele>283.823</ele>
        <time>2012-11-03T13:58:29Z</time>
      </trkpt>
      <trkpt lat="44.31571" lon="4.53014">
        <ele>287.403</ele>
        <time>2012-11-03T13:58:39Z</time>
      </trkpt>
      <trkpt lat="44.31584" lon="4.53008">
        <ele>288.363</ele>
        <time>2012-11-03T13:58:46Z</time>
      </trkpt>
      <trkpt lat="44.31601" lon="4.53008">
        <ele>289.303</ele>
        <time>2012-11-03T13:58:56Z</time>
      </trkpt>
      <trkpt lat="44.3161" lon="4.5301">
        <ele>289.603</ele>
        <time>2012-11-03T13:59:02Z</time>
      </trkpt>
      <trkpt lat="44.31621" lon="4.53021">
        <ele>288.422</ele>
        <time>2012-11-03T13:59:08Z</time>
      </trkpt>
      <trkpt lat="44.31635" lon="4.53038">
        <ele>288.273</ele>
        <time>2012-11-03T13:59:15Z</time>
      </trkpt>
      <trkpt lat="44.31654" lon="4.53049">
        <ele>289.463</ele>
        <time>2012-11-03T13:59:22Z</time>
      </trkpt>
      <trkpt lat="44.31669" lon="4.53065">
        <ele>291.723</ele>
        <time>2012-11-03T13:59:28Z</time>
      </trkpt>
      <trkpt lat="44.31685" lon="4.53083">
        <ele>291.613</ele>
        <time>2012-11-03T13:59:34Z</time>
      </trkpt>
      <trkpt lat="44.31703" lon="4.53097">
        <ele>291.802</ele>
        <time>2012-11-03T13:59:41Z</time>
      </trkpt>
      <trkpt lat="44.31714" lon="4.53108">
        <ele>290.752</ele>
        <time>2012-11-03T13:59:45Z</time>
      </trkpt>
      <trkpt lat="44.31721" lon="4.53127">
        <ele>290.091</ele>
        <time>2012-11-03T13:59:49Z</time>
      </trkpt>
      <trkpt lat="44.3173" lon="4.53149">
        <ele>287.061</ele>
        <time>2012-11-03T13:59:54Z</time>
      </trkpt>
      <trkpt lat="44.31745" lon="4.53178">
        <ele>286.731</ele>
        <time>2012-11-03T14:00:00Z</time>
      </trkpt>
      <trkpt lat="44.3176" lon="4.53209">
        <ele>286.631</ele>
        <time>2012-11-03T14:00:06Z</time>
      </trkpt>
      <trkpt lat="44.31763" lon="4.53214">
        <ele>286.382</ele>
        <time>2012-11-03T14:00:07Z</time>
      </trkpt>
      <trkpt lat="44.31771" lon="4.53235">
        <ele>285.782</ele>
        <time>2012-11-03T14:00:11Z</time>
      </trkpt>
      <trkpt lat="44.31772" lon="4.53246">
        <ele>285.003</ele>
        <time>2012-11-03T14:00:13Z</time>
      </trkpt>
      <trkpt lat="44.31782" lon="4.53265">
        <ele>285.443</ele>
        <time>2012-11-03T14:00:17Z</time>
      </trkpt>
      <trkpt lat="44.31792" lon="4.53272">
        <ele>285.263</ele>
        <time>2012-11-03T14:00:20Z</time>
      </trkpt>
      <trkpt lat="44.31799" lon="4.5328">
        <ele>285.443</ele>
        <time>2012-11-03T14:00:22Z</time>
      </trkpt>
      <trkpt lat="44.31813" lon="4.5329">
        <ele>284.943</ele>
        <time>2012-11-03T14:00:26Z</time>
      </trkpt>
      <trkpt lat="44.31836" lon="4.53295">
        <ele>285.684</ele>
        <time>2012-11-03T14:00:32Z</time>
      </trkpt>
      <trkpt lat="44.31854" lon="4.53318">
        <ele>286.063</ele>
        <time>2012-11-03T14:00:38Z</time>
      </trkpt>
      <trkpt lat="44.31858" lon="4.53321">
        <ele>286.323</ele>
        <time>2012-11-03T14:00:39Z</time>
      </trkpt>
      <trkpt lat="44.31871" lon="4.53341">
        <ele>286.353</ele>
        <time>2012-11-03T14:00:44Z</time>
      </trkpt>
      <trkpt lat="44.31883" lon="4.53353">
        <ele>286.033</ele>
        <time>2012-11-03T14:00:48Z</time>
      </trkpt>
      <trkpt lat="44.31901" lon="4.53356">
        <ele>285.533</ele>
        <time>2012-11-03T14:00:53Z</time>
      </trkpt>
      <trkpt lat="44.31907" lon="4.5336">
        <ele>285.061</ele>
        <time>2012-11-03T14:00:55Z</time>
      </trkpt>
      <trkpt lat="44.3192" lon="4.5337">
        <ele>282.561</ele>
        <time>2012-11-03T14:00:58Z</time>
      </trkpt>
      <trkpt lat="44.31948" lon="4.53381">
        <ele>278.631</ele>
        <time>2012-11-03T14:01:03Z</time>
      </trkpt>
      <trkpt lat="44.31953" lon="4.53384">
        <ele>277.58</ele>
        <time>2012-11-03T14:01:04Z</time>
      </trkpt>
      <trkpt lat="44.31977" lon="4.53399">
        <ele>271.729</ele>
        <time>2012-11-03T14:01:09Z</time>
      </trkpt>
      <trkpt lat="44.31992" lon="4.53428">
        <ele>263.729</ele>
        <time>2012-11-03T14:01:15Z</time>
      </trkpt>
      <trkpt lat="44.32003" lon="4.53438">
        <ele>260.14</ele>
        <time>2012-11-03T14:01:19Z</time>
      </trkpt>
      <trkpt lat="44.3202" lon="4.5345">
        <ele>253.289</ele>
        <time>2012-11-03T14:01:26Z</time>
      </trkpt>
      <trkpt lat="44.3203" lon="4.53458">
        <ele>247.99</ele>
        <time>2012-11-03T14:01:31Z</time>
      </trkpt>
      <trkpt lat="44.32039" lon="4.53464">
        <ele>244.11</ele>
        <time>2012-11-03T14:01:37Z</time>
      </trkpt>
      <trkpt lat="44.32043" lon="4.53468">
        <ele>242.282</ele>
        <time>2012-11-03T14:01:41Z</time>
      </trkpt>
      <trkpt lat="44.32057" lon="4.53475">
        <ele>238.241</ele>
        <time>2012-11-03T14:01:47Z</time>
      </trkpt>
      <trkpt lat="44.32064" lon="4.53483">
        <ele>237.813</ele>
        <time>2012-11-03T14:01:52Z</time>
      </trkpt>
      <trkpt lat="44.32066" lon="4.53484">
        <ele>237.974</ele>
        <time>2012-11-03T14:01:56Z</time>
      </trkpt>
      <trkpt lat="44.32076" lon="4.53484">
        <ele>235.603</ele>
        <time>2012-11-03T14:02:08Z</time>
      </trkpt>
      <trkpt lat="44.32086" lon="4.53484">
        <ele>236.004</ele>
        <time>2012-11-03T14:02:13Z</time>
      </trkpt>
      <trkpt lat="44.32091" lon="4.53482">
        <ele>236.074</ele>
        <time>2012-11-03T14:02:15Z</time>
      </trkpt>
      <trkpt lat="44.32102" lon="4.53479">
        <ele>237.615</ele>
        <time>2012-11-03T14:02:21Z</time>
      </trkpt>
      <trkpt lat="44.32102" lon="4.53479">
        <ele>238.109</ele>
        <time>2012-11-03T14:02:22Z</time>
      </trkpt>
      <trkpt lat="44.32106" lon="4.53485">
        <ele>240.156</ele>
        <time>2012-11-03T14:02:30Z</time>
      </trkpt>
      <trkpt lat="44.32107" lon="4.53485">
        <ele>240.765</ele>
        <time>2012-11-03T14:02:31Z</time>
      </trkpt>
      <trkpt lat="44.32112" lon="4.5349">
        <ele>243.307</ele>
        <time>2012-11-03T14:02:43Z</time>
      </trkpt>
      <trkpt lat="44.32116" lon="4.53491">
        <ele>242.465</ele>
        <time>2012-11-03T14:02:49Z</time>
      </trkpt>
      <trkpt lat="44.32119" lon="4.53491">
        <ele>242.284</ele>
        <time>2012-11-03T14:02:51Z</time>
      </trkpt>
      <trkpt lat="44.32125" lon="4.53485">
        <ele>242.284</ele>
        <time>2012-11-03T14:02:56Z</time>
      </trkpt>
      <trkpt lat="44.32127" lon="4.53485">
        <ele>241.834</ele>
        <time>2012-11-03T14:03:00Z</time>
      </trkpt>
      <trkpt lat="44.32122" lon="4.53493">
        <ele>249.085</ele>
        <time>2012-11-03T14:12:16Z</time>
      </trkpt>
      <trkpt lat="44.32112" lon="4.53492">
        <ele>249.924</ele>
        <time>2012-11-03T14:12:24Z</time>
      </trkpt>
      <trkpt lat="44.32112" lon="4.53492">
        <ele>250.017</ele>
        <time>2012-11-03T14:12:25Z</time>
      </trkpt>
      <trkpt lat="44.3211" lon="4.5349">
        <ele>247.438</ele>
        <time>2012-11-03T14:12:33Z</time>
      </trkpt>
      <trkpt lat="44.32105" lon="4.53487">
        <ele>244.644</ele>
        <time>2012-11-03T14:12:43Z</time>
      </trkpt>
      <trkpt lat="44.32101" lon="4.53487">
        <ele>243.774</ele>
        <time>2012-11-03T14:12:47Z</time>
      </trkpt>
      <trkpt lat="44.32089" lon="4.53489">
        <ele>243.824</ele>
        <time>2012-11-03T14:12:52Z</time>
      </trkpt>
      <trkpt lat="44.32082" lon="4.5349">
        <ele>243.754</ele>
        <time>2012-11-03T14:12:56Z</time>
      </trkpt>
      <trkpt lat="44.32077" lon="4.53486">
        <ele>244.965</ele>
        <time>2012-11-03T14:12:58Z</time>
      </trkpt>
      <trkpt lat="44.32071" lon="4.53485">
        <ele>246.125</ele>
        <time>2012-11-03T14:13:01Z</time>
      </trkpt>
      <trkpt lat="44.32068" lon="4.53488">
        <ele>246.775</ele>
        <time>2012-11-03T14:13:04Z</time>
      </trkpt>
      <trkpt lat="44.32063" lon="4.53488">
        <ele>246.625</ele>
        <time>2012-11-03T14:13:10Z</time>
      </trkpt>
      <trkpt lat="44.32059" lon="4.53493">
        <ele>246.414</ele>
        <time>2012-11-03T14:13:14Z</time>
      </trkpt>
      <trkpt lat="44.32047" lon="4.53498">
        <ele>245.553</ele>
        <time>2012-11-03T14:13:19Z</time>
      </trkpt>
      <trkpt lat="44.32037" lon="4.53506">
        <ele>245.014</ele>
        <time>2012-11-03T14:13:23Z</time>
      </trkpt>
      <trkpt lat="44.32038" lon="4.53518">
        <ele>244.294</ele>
        <time>2012-11-03T14:13:29Z</time>
      </trkpt>
      <trkpt lat="44.32047" lon="4.5354">
        <ele>241.863</ele>
        <time>2012-11-03T14:13:35Z</time>
      </trkpt>
      <trkpt lat="44.32053" lon="4.53555">
        <ele>238.972</ele>
        <time>2012-11-03T14:13:40Z</time>
      </trkpt>
      <trkpt lat="44.32053" lon="4.53558">
        <ele>238.051</ele>
        <time>2012-11-03T14:13:41Z</time>
      </trkpt>
      <trkpt lat="44.32054" lon="4.53562">
        <ele>237.187</ele>
        <time>2012-11-03T14:13:45Z</time>
      </trkpt>
      <trkpt lat="44.32055" lon="4.53566">
        <ele>237.588</ele>
        <time>2012-11-03T14:13:50Z</time>
      </trkpt>
      <trkpt lat="44.32055" lon="4.53571">
        <ele>238.164</ele>
        <time>2012-11-03T14:13:58Z</time>
      </trkpt>
      <trkpt lat="44.32055" lon="4.53572">
        <ele>238.075</ele>
        <time>2012-11-03T14:14:00Z</time>
      </trkpt>
      <trkpt lat="44.32056" lon="4.53581">
        <ele>236.124</ele>
        <time>2012-11-03T14:14:19Z</time>
      </trkpt>
      <trkpt lat="44.32056" lon="4.53588">
        <ele>234.673</ele>
        <time>2012-11-03T14:14:24Z</time>
      </trkpt>
      <trkpt lat="44.32052" lon="4.53593">
        <ele>235.675</ele>
        <time>2012-11-03T14:14:31Z</time>
      </trkpt>
      <trkpt lat="44.32049" lon="4.53596">
        <ele>237.935</ele>
        <time>2012-11-03T14:14:38Z</time>
      </trkpt>
      <trkpt lat="44.32047" lon="4.53598">
        <ele>239.826</ele>
        <time>2012-11-03T14:14:43Z</time>
      </trkpt>
      <trkpt lat="44.32045" lon="4.536">
        <ele>242.646</ele>
        <time>2012-11-03T14:14:49Z</time>
      </trkpt>
      <trkpt lat="44.32043" lon="4.536">
        <ele>245.008</ele>
        <time>2012-11-03T14:14:53Z</time>
      </trkpt>
      <trkpt lat="44.32042" lon="4.53603">
        <ele>247.945</ele>
        <time>2012-11-03T14:15:02Z</time>
      </trkpt>
      <trkpt lat="44.32042" lon="4.53604">
        <ele>248.02</ele>
        <time>2012-11-03T14:15:03Z</time>
      </trkpt>
      <trkpt lat="44.32033" lon="4.53611">
        <ele>247.995</ele>
        <time>2012-11-03T14:15:11Z</time>
      </trkpt>
      <trkpt lat="44.32023" lon="4.53616">
        <ele>248.356</ele>
        <time>2012-11-03T14:15:18Z</time>
      </trkpt>
      <trkpt lat="44.32011" lon="4.53619">
        <ele>248.786</ele>
        <time>2012-11-03T14:15:26Z</time>
      </trkpt>
      <trkpt lat="44.32003" lon="4.5362">
        <ele>248.616</ele>
        <time>2012-11-03T14:15:33Z</time>
      </trkpt>
      <trkpt lat="44.32002" lon="4.5362">
        <ele>248.735</ele>
        <time>2012-11-03T14:15:34Z</time>
      </trkpt>
      <trkpt lat="44.32001" lon="4.53621">
        <ele>248.635</ele>
        <time>2012-11-03T14:15:39Z</time>
      </trkpt>
      <trkpt lat="44.31985" lon="4.53624">
        <ele>247.174</ele>
        <time>2012-11-03T14:16:03Z</time>
      </trkpt>
      <trkpt lat="44.31974" lon="4.53625">
        <ele>249.055</ele>
        <time>2012-11-03T14:16:09Z</time>
      </trkpt>
      <trkpt lat="44.3196" lon="4.53625">
        <ele>251.095</ele>
        <time>2012-11-03T14:16:17Z</time>
      </trkpt>
      <trkpt lat="44.31949" lon="4.53623">
        <ele>253.305</ele>
        <time>2012-11-03T14:16:24Z</time>
      </trkpt>
      <trkpt lat="44.31946" lon="4.53622">
        <ele>253.725</ele>
        <time>2012-11-03T14:16:26Z</time>
      </trkpt>
      <trkpt lat="44.3194" lon="4.53622">
        <ele>254.455</ele>
        <time>2012-11-03T14:16:30Z</time>
      </trkpt>
      <trkpt lat="44.31934" lon="4.53621">
        <ele>256.236</ele>
        <time>2012-11-03T14:16:34Z</time>
      </trkpt>
      <trkpt lat="44.31924" lon="4.53623">
        <ele>259.386</ele>
        <time>2012-11-03T14:16:41Z</time>
      </trkpt>
      <trkpt lat="44.31921" lon="4.53637">
        <ele>258.804</ele>
        <time>2012-11-03T14:16:48Z</time>
      </trkpt>
      <trkpt lat="44.31922" lon="4.53652">
        <ele>258.254</ele>
        <time>2012-11-03T14:16:53Z</time>
      </trkpt>
      <trkpt lat="44.31918" lon="4.53674">
        <ele>258.164</ele>
        <time>2012-11-03T14:16:59Z</time>
      </trkpt>
      <trkpt lat="44.3191" lon="4.53687">
        <ele>258.865</ele>
        <time>2012-11-03T14:17:05Z</time>
      </trkpt>
      <trkpt lat="44.31907" lon="4.53691">
        <ele>259.395</ele>
        <time>2012-11-03T14:17:07Z</time>
      </trkpt>
      <trkpt lat="44.319" lon="4.53693">
        <ele>260.626</ele>
        <time>2012-11-03T14:17:11Z</time>
      </trkpt>
      <trkpt lat="44.31888" lon="4.53694">
        <ele>262.606</ele>
        <time>2012-11-03T14:17:18Z</time>
      </trkpt>
      <trkpt lat="44.31875" lon="4.53693">
        <ele>264.035</ele>
        <time>2012-11-03T14:17:25Z</time>
      </trkpt>
      <trkpt lat="44.31874" lon="4.53686">
        <ele>265.886</ele>
        <time>2012-11-03T14:17:30Z</time>
      </trkpt>
      <trkpt lat="44.31882" lon="4.53671">
        <ele>269.065</ele>
        <time>2012-11-03T14:17:41Z</time>
      </trkpt>
      <trkpt lat="44.31884" lon="4.5366">
        <ele>269.875</ele>
        <time>2012-11-03T14:17:48Z</time>
      </trkpt>
      <trkpt lat="44.31884" lon="4.53643">
        <ele>270.865</ele>
        <time>2012-11-03T14:17:58Z</time>
      </trkpt>
      <trkpt lat="44.31882" lon="4.5363">
        <ele>270.826</ele>
        <time>2012-11-03T14:18:05Z</time>
      </trkpt>
      <trkpt lat="44.31878" lon="4.53616">
        <ele>270.795</ele>
        <time>2012-11-03T14:18:13Z</time>
      </trkpt>
      <trkpt lat="44.31876" lon="4.53601">
        <ele>271.675</ele>
        <time>2012-11-03T14:18:20Z</time>
      </trkpt>
      <trkpt lat="44.3187" lon="4.53584">
        <ele>270.474</ele>
        <time>2012-11-03T14:18:28Z</time>
      </trkpt>
      <trkpt lat="44.31863" lon="4.5357">
        <ele>268.634</ele>
        <time>2012-11-03T14:18:34Z</time>
      </trkpt>
      <trkpt lat="44.31852" lon="4.53555">
        <ele>269.574</ele>
        <time>2012-11-03T14:18:40Z</time>
      </trkpt>
      <trkpt lat="44.3185" lon="4.53552">
        <ele>269.652</ele>
        <time>2012-11-03T14:18:41Z</time>
      </trkpt>
      <trkpt lat="44.31847" lon="4.53537">
        <ele>271.074</ele>
        <time>2012-11-03T14:18:47Z</time>
      </trkpt>
      <trkpt lat="44.31846" lon="4.53534">
        <ele>271.344</ele>
        <time>2012-11-03T14:18:48Z</time>
      </trkpt>
      <trkpt lat="44.31841" lon="4.53515">
        <ele>274.997</ele>
        <time>2012-11-03T14:18:55Z</time>
      </trkpt>
      <trkpt lat="44.31834" lon="4.53501">
        <ele>274.615</ele>
        <time>2012-11-03T14:19:01Z</time>
      </trkpt>
      <trkpt lat="44.31826" lon="4.5349">
        <ele>278.166</ele>
        <time>2012-11-03T14:19:08Z</time>
      </trkpt>
      <trkpt lat="44.31823" lon="4.53486">
        <ele>279.586</ele>
        <time>2012-11-03T14:19:11Z</time>
      </trkpt>
      <trkpt lat="44.31819" lon="4.53472">
        <ele>279.595</ele>
        <time>2012-11-03T14:19:18Z</time>
      </trkpt>
      <trkpt lat="44.31806" lon="4.5347">
        <ele>281.514</ele>
        <time>2012-11-03T14:19:24Z</time>
      </trkpt>
      <trkpt lat="44.31793" lon="4.5347">
        <ele>279.994</ele>
        <time>2012-11-03T14:19:28Z</time>
      </trkpt>
      <trkpt lat="44.31773" lon="4.5347">
        <ele>278.123</ele>
        <time>2012-11-03T14:19:34Z</time>
      </trkpt>
      <trkpt lat="44.31757" lon="4.53474">
        <ele>276.183</ele>
        <time>2012-11-03T14:19:38Z</time>
      </trkpt>
      <trkpt lat="44.31739" lon="4.53481">
        <ele>274.273</ele>
        <time>2012-11-03T14:19:43Z</time>
      </trkpt>
      <trkpt lat="44.31723" lon="4.53469">
        <ele>272.654</ele>
        <time>2012-11-03T14:19:48Z</time>
      </trkpt>
      <trkpt lat="44.31712" lon="4.53458">
        <ele>270.484</ele>
        <time>2012-11-03T14:19:52Z</time>
      </trkpt>
      <trkpt lat="44.31699" lon="4.53438">
        <ele>268.544</ele>
        <time>2012-11-03T14:19:57Z</time>
      </trkpt>
      <trkpt lat="44.31695" lon="4.53424">
        <ele>269.204</ele>
        <time>2012-11-03T14:20:01Z</time>
      </trkpt>
      <trkpt lat="44.31693" lon="4.53404">
        <ele>269.594</ele>
        <time>2012-11-03T14:20:06Z</time>
      </trkpt>
      <trkpt lat="44.31687" lon="4.53381">
        <ele>270.114</ele>
        <time>2012-11-03T14:20:11Z</time>
      </trkpt>
      <trkpt lat="44.31667" lon="4.53367">
        <ele>273.405</ele>
        <time>2012-11-03T14:20:17Z</time>
      </trkpt>
      <trkpt lat="44.31648" lon="4.53363">
        <ele>274.613</ele>
        <time>2012-11-03T14:20:22Z</time>
      </trkpt>
      <trkpt lat="44.3163" lon="4.53358">
        <ele>274.633</ele>
        <time>2012-11-03T14:20:27Z</time>
      </trkpt>
      <trkpt lat="44.31603" lon="4.53339">
        <ele>276.664</ele>
        <time>2012-11-03T14:20:36Z</time>
      </trkpt>
      <trkpt lat="44.31588" lon="4.53323">
        <ele>277.264</ele>
        <time>2012-11-03T14:20:42Z</time>
      </trkpt>
      <trkpt lat="44.31572" lon="4.53311">
        <ele>276.633</ele>
        <time>2012-11-03T14:20:48Z</time>
      </trkpt>
      <trkpt lat="44.31566" lon="4.53308">
        <ele>276.363</ele>
        <time>2012-11-03T14:20:50Z</time>
      </trkpt>
      <trkpt lat="44.31545" lon="4.53307">
        <ele>274.231</ele>
        <time>2012-11-03T14:20:55Z</time>
      </trkpt>
      <trkpt lat="44.31536" lon="4.53308">
        <ele>273.462</ele>
        <time>2012-11-03T14:20:57Z</time>
      </trkpt>
      <trkpt lat="44.31515" lon="4.53303">
        <ele>268.271</ele>
        <time>2012-11-03T14:21:02Z</time>
      </trkpt>
      <trkpt lat="44.31493" lon="4.53297">
        <ele>267.702</ele>
        <time>2012-11-03T14:21:07Z</time>
      </trkpt>
      <trkpt lat="44.31471" lon="4.53302">
        <ele>268.902</ele>
        <time>2012-11-03T14:21:13Z</time>
      </trkpt>
      <trkpt lat="44.31447" lon="4.53306">
        <ele>271.984</ele>
        <time>2012-11-03T14:21:20Z</time>
      </trkpt>
      <trkpt lat="44.31423" lon="4.53316">
        <ele>270.763</ele>
        <time>2012-11-03T14:21:28Z</time>
      </trkpt>
      <trkpt lat="44.31403" lon="4.53327">
        <ele>270.303</ele>
        <time>2012-11-03T14:21:35Z</time>
      </trkpt>
      <trkpt lat="44.31395" lon="4.53336">
        <ele>270.152</ele>
        <time>2012-11-03T14:21:39Z</time>
      </trkpt>
      <trkpt lat="44.31392" lon="4.53348">
        <ele>269.762</ele>
        <time>2012-11-03T14:21:43Z</time>
      </trkpt>
      <trkpt lat="44.3139" lon="4.53375">
        <ele>269.282</ele>
        <time>2012-11-03T14:21:50Z</time>
      </trkpt>
      <trkpt lat="44.31389" lon="4.53406">
        <ele>269.542</ele>
        <time>2012-11-03T14:21:56Z</time>
      </trkpt>
      <trkpt lat="44.31387" lon="4.53437">
        <ele>268.792</ele>
        <time>2012-11-03T14:22:01Z</time>
      </trkpt>
      <trkpt lat="44.31382" lon="4.53471">
        <ele>266.051</ele>
        <time>2012-11-03T14:22:06Z</time>
      </trkpt>
      <trkpt lat="44.31365" lon="4.5351">
        <ele>265.181</ele>
        <time>2012-11-03T14:22:12Z</time>
      </trkpt>
      <trkpt lat="44.31358" lon="4.53519">
        <ele>264.381</ele>
        <time>2012-11-03T14:22:14Z</time>
      </trkpt>
      <trkpt lat="44.3135" lon="4.53535">
        <ele>262.62</ele>
        <time>2012-11-03T14:22:17Z</time>
      </trkpt>
      <trkpt lat="44.31347" lon="4.53579">
        <ele>256.36</ele>
        <time>2012-11-03T14:22:23Z</time>
      </trkpt>
      <trkpt lat="44.31339" lon="4.53619">
        <ele>252.53</ele>
        <time>2012-11-03T14:22:28Z</time>
      </trkpt>
      <trkpt lat="44.31339" lon="4.53645">
        <ele>250.17</ele>
        <time>2012-11-03T14:22:31Z</time>
      </trkpt>
      <trkpt lat="44.3134" lon="4.53662">
        <ele>248.59</ele>
        <time>2012-11-03T14:22:33Z</time>
      </trkpt>
      <trkpt lat="44.3136" lon="4.53719">
        <ele>246.121</ele>
        <time>2012-11-03T14:22:40Z</time>
      </trkpt>
      <trkpt lat="44.31383" lon="4.53769">
        <ele>246.072</ele>
        <time>2012-11-03T14:22:47Z</time>
      </trkpt>
      <trkpt lat="44.31386" lon="4.53775">
        <ele>246.313</ele>
        <time>2012-11-03T14:22:48Z</time>
      </trkpt>
      <trkpt lat="44.31401" lon="4.53798">
        <ele>248.504</ele>
        <time>2012-11-03T14:22:54Z</time>
      </trkpt>
      <trkpt lat="44.31418" lon="4.53813">
        <ele>249.633</ele>
        <time>2012-11-03T14:23:01Z</time>
      </trkpt>
      <trkpt lat="44.31437" lon="4.53834">
        <ele>251.303</ele>
        <time>2012-11-03T14:23:10Z</time>
      </trkpt>
      <trkpt lat="44.31454" lon="4.53855">
        <ele>253.283</ele>
        <time>2012-11-03T14:23:19Z</time>
      </trkpt>
      <trkpt lat="44.31469" lon="4.53866">
        <ele>253.954</ele>
        <time>2012-11-03T14:23:26Z</time>
      </trkpt>
      <trkpt lat="44.31485" lon="4.53879">
        <ele>254.134</ele>
        <time>2012-11-03T14:23:34Z</time>
      </trkpt>
      <trkpt lat="44.3149" lon="4.53887">
        <ele>254.384</ele>
        <time>2012-11-03T14:23:39Z</time>
      </trkpt>
      <trkpt lat="44.31499" lon="4.53905">
        <ele>256.024</ele>
        <time>2012-11-03T14:23:47Z</time>
      </trkpt>
      <trkpt lat="44.3151" lon="4.53926">
        <ele>255.834</ele>
        <time>2012-11-03T14:23:56Z</time>
      </trkpt>
      <trkpt lat="44.31518" lon="4.53947">
        <ele>256.634</ele>
        <time>2012-11-03T14:24:04Z</time>
      </trkpt>
      <trkpt lat="44.31519" lon="4.53969">
        <ele>258.334</ele>
        <time>2012-11-03T14:24:11Z</time>
      </trkpt>
      <trkpt lat="44.31517" lon="4.53993">
        <ele>258.864</ele>
        <time>2012-11-03T14:24:18Z</time>
      </trkpt>
      <trkpt lat="44.31512" lon="4.54018">
        <ele>260.116</ele>
        <time>2012-11-03T14:24:26Z</time>
      </trkpt>
      <trkpt lat="44.31506" lon="4.54052">
        <ele>260.105</ele>
        <time>2012-11-03T14:24:37Z</time>
      </trkpt>
      <trkpt lat="44.31502" lon="4.54075">
        <ele>261.185</ele>
        <time>2012-11-03T14:24:44Z</time>
      </trkpt>
      <trkpt lat="44.31499" lon="4.54099">
        <ele>262.255</ele>
        <time>2012-11-03T14:24:52Z</time>
      </trkpt>
      <trkpt lat="44.31495" lon="4.54121">
        <ele>262.295</ele>
        <time>2012-11-03T14:25:00Z</time>
      </trkpt>
      <trkpt lat="44.31492" lon="4.54145">
        <ele>264.865</ele>
        <time>2012-11-03T14:25:09Z</time>
      </trkpt>
      <trkpt lat="44.31493" lon="4.54171">
        <ele>266.034</ele>
        <time>2012-11-03T14:25:17Z</time>
      </trkpt>
      <trkpt lat="44.31493" lon="4.54194">
        <ele>264.824</ele>
        <time>2012-11-03T14:25:24Z</time>
      </trkpt>
      <trkpt lat="44.31494" lon="4.54198">
        <ele>263.884</ele>
        <time>2012-11-03T14:25:28Z</time>
      </trkpt>
      <trkpt lat="44.31499" lon="4.5421">
        <ele>266.124</ele>
        <time>2012-11-03T14:26:50Z</time>
      </trkpt>
      <trkpt lat="44.3149" lon="4.54224">
        <ele>264.243</ele>
        <time>2012-11-03T14:26:55Z</time>
      </trkpt>
      <trkpt lat="44.31471" lon="4.54233">
        <ele>261.023</ele>
        <time>2012-11-03T14:27:00Z</time>
      </trkpt>
      <trkpt lat="44.31451" lon="4.5424">
        <ele>257.161</ele>
        <time>2012-11-03T14:27:05Z</time>
      </trkpt>
      <trkpt lat="44.31441" lon="4.54245">
        <ele>255.561</ele>
        <time>2012-11-03T14:27:07Z</time>
      </trkpt>
      <trkpt lat="44.31416" lon="4.5427">
        <ele>252.512</ele>
        <time>2012-11-03T14:27:13Z</time>
      </trkpt>
      <trkpt lat="44.31398" lon="4.54292">
        <ele>252.154</ele>
        <time>2012-11-03T14:27:18Z</time>
      </trkpt>
      <trkpt lat="44.31382" lon="4.54317">
        <ele>252.774</ele>
        <time>2012-11-03T14:27:24Z</time>
      </trkpt>
      <trkpt lat="44.31369" lon="4.54332">
        <ele>253.635</ele>
        <time>2012-11-03T14:27:29Z</time>
      </trkpt>
      <trkpt lat="44.31359" lon="4.54342">
        <ele>254.446</ele>
        <time>2012-11-03T14:27:33Z</time>
      </trkpt>
      <trkpt lat="44.31346" lon="4.54352">
        <ele>254.555</ele>
        <time>2012-11-03T14:27:38Z</time>
      </trkpt>
      <trkpt lat="44.31329" lon="4.54366">
        <ele>255.935</ele>
        <time>2012-11-03T14:27:44Z</time>
      </trkpt>
      <trkpt lat="44.31316" lon="4.54379">
        <ele>255.684</ele>
        <time>2012-11-03T14:27:49Z</time>
      </trkpt>
      <trkpt lat="44.313" lon="4.54389">
        <ele>255.824</ele>
        <time>2012-11-03T14:27:54Z</time>
      </trkpt>
      <trkpt lat="44.31286" lon="4.54403">
        <ele>255.814</ele>
        <time>2012-11-03T14:27:59Z</time>
      </trkpt>
      <trkpt lat="44.31284" lon="4.54407">
        <ele>255.944</ele>
        <time>2012-11-03T14:28:00Z</time>
      </trkpt>
      <trkpt lat="44.31272" lon="4.54425">
        <ele>256.475</ele>
        <time>2012-11-03T14:28:06Z</time>
      </trkpt>
      <trkpt lat="44.31265" lon="4.54437">
        <ele>256.124</ele>
        <time>2012-11-03T14:28:10Z</time>
      </trkpt>
      <trkpt lat="44.3126" lon="4.54441">
        <ele>255.503</ele>
        <time>2012-11-03T14:28:12Z</time>
      </trkpt>
      <trkpt lat="44.31253" lon="4.54458">
        <ele>254.784</ele>
        <time>2012-11-03T14:28:17Z</time>
      </trkpt>
      <trkpt lat="44.31244" lon="4.54471">
        <ele>253.242</ele>
        <time>2012-11-03T14:28:21Z</time>
      </trkpt>
      <trkpt lat="44.31241" lon="4.54476">
        <ele>252.832</ele>
        <time>2012-11-03T14:28:22Z</time>
      </trkpt>
      <trkpt lat="44.31225" lon="4.54494">
        <ele>251.653</ele>
        <time>2012-11-03T14:28:27Z</time>
      </trkpt>
      <trkpt lat="44.31219" lon="4.545">
        <ele>250.882</ele>
        <time>2012-11-03T14:28:29Z</time>
      </trkpt>
      <trkpt lat="44.31209" lon="4.54514">
        <ele>249.613</ele>
        <time>2012-11-03T14:28:33Z</time>
      </trkpt>
      <trkpt lat="44.31198" lon="4.54523">
        <ele>248.903</ele>
        <time>2012-11-03T14:28:37Z</time>
      </trkpt>
      <trkpt lat="44.31187" lon="4.54536">
        <ele>248.343</ele>
        <time>2012-11-03T14:28:41Z</time>
      </trkpt>
      <trkpt lat="44.31176" lon="4.54557">
        <ele>245.451</ele>
        <time>2012-11-03T14:28:45Z</time>
      </trkpt>
      <trkpt lat="44.31172" lon="4.54561">
        <ele>244.972</ele>
        <time>2012-11-03T14:28:46Z</time>
      </trkpt>
      <trkpt lat="44.31153" lon="4.54591">
        <ele>238.1</ele>
        <time>2012-11-03T14:28:53Z</time>
      </trkpt>
      <trkpt lat="44.31143" lon="4.54601">
        <ele>234.57</ele>
        <time>2012-11-03T14:28:56Z</time>
      </trkpt>
      <trkpt lat="44.31128" lon="4.54617">
        <ele>231.11</ele>
        <time>2012-11-03T14:29:00Z</time>
      </trkpt>
      <trkpt lat="44.31116" lon="4.54626">
        <ele>228.29</ele>
        <time>2012-11-03T14:29:03Z</time>
      </trkpt>
      <trkpt lat="44.31104" lon="4.54635">
        <ele>225.701</ele>
        <time>2012-11-03T14:29:07Z</time>
      </trkpt>
      <trkpt lat="44.31092" lon="4.54647">
        <ele>222.73</ele>
        <time>2012-11-03T14:29:11Z</time>
      </trkpt>
      <trkpt lat="44.31084" lon="4.54654">
        <ele>221.031</ele>
        <time>2012-11-03T14:29:14Z</time>
      </trkpt>
      <trkpt lat="44.31061" lon="4.54673">
        <ele>215.78</ele>
        <time>2012-11-03T14:29:20Z</time>
      </trkpt>
      <trkpt lat="44.31046" lon="4.54706">
        <ele>211.29</ele>
        <time>2012-11-03T14:29:26Z</time>
      </trkpt>
      <trkpt lat="44.31042" lon="4.54716">
        <ele>209.961</ele>
        <time>2012-11-03T14:29:28Z</time>
      </trkpt>
      <trkpt lat="44.31032" lon="4.54747">
        <ele>206.932</ele>
        <time>2012-11-03T14:29:33Z</time>
      </trkpt>
      <trkpt lat="44.31018" lon="4.54773">
        <ele>205.982</ele>
        <time>2012-11-03T14:29:38Z</time>
      </trkpt>
      <trkpt lat="44.31015" lon="4.54784">
        <ele>204.992</ele>
        <time>2012-11-03T14:29:40Z</time>
      </trkpt>
      <trkpt lat="44.3101" lon="4.54809">
        <ele>202.461</ele>
        <time>2012-11-03T14:29:44Z</time>
      </trkpt>
      <trkpt lat="44.31005" lon="4.54826">
        <ele>201.372</ele>
        <time>2012-11-03T14:29:47Z</time>
      </trkpt>
      <trkpt lat="44.31002" lon="4.5484">
        <ele>200.422</ele>
        <time>2012-11-03T14:29:49Z</time>
      </trkpt>
      <trkpt lat="44.30995" lon="4.54862">
        <ele>198.834</ele>
        <time>2012-11-03T14:29:53Z</time>
      </trkpt>
      <trkpt lat="44.30988" lon="4.54878">
        <ele>198.764</ele>
        <time>2012-11-03T14:29:59Z</time>
      </trkpt>
      <trkpt lat="44.30988" lon="4.54878">
        <ele>198.644</ele>
        <time>2012-11-03T14:30:01Z</time>
      </trkpt>
      <trkpt lat="44.30989" lon="4.54887">
        <ele>199.152</ele>
        <time>2012-11-03T14:32:16Z</time>
      </trkpt>
      <trkpt lat="44.30979" lon="4.54901">
        <ele>195.641</ele>
        <time>2012-11-03T14:32:21Z</time>
      </trkpt>
      <trkpt lat="44.30969" lon="4.54916">
        <ele>192.331</ele>
        <time>2012-11-03T14:32:25Z</time>
      </trkpt>
      <trkpt lat="44.30952" lon="4.54938">
        <ele>189.142</ele>
        <time>2012-11-03T14:32:31Z</time>
      </trkpt>
      <trkpt lat="44.30942" lon="4.54948">
        <ele>188.614</ele>
        <time>2012-11-03T14:32:35Z</time>
      </trkpt>
      <trkpt lat="44.30932" lon="4.54957">
        <ele>187.493</ele>
        <time>2012-11-03T14:32:39Z</time>
      </trkpt>
      <trkpt lat="44.3092" lon="4.5496">
        <ele>185.413</ele>
        <time>2012-11-03T14:32:44Z</time>
      </trkpt>
      <trkpt lat="44.30917" lon="4.54966">
        <ele>183.933</ele>
        <time>2012-11-03T14:32:49Z</time>
      </trkpt>
      <trkpt lat="44.30918" lon="4.5497">
        <ele>183.454</ele>
        <time>2012-11-03T14:32:54Z</time>
      </trkpt>
      <trkpt lat="44.30916" lon="4.54971">
        <ele>182.443</ele>
        <time>2012-11-03T14:33:05Z</time>
      </trkpt>
      <trkpt lat="44.30909" lon="4.54975">
        <ele>180.163</ele>
        <time>2012-11-03T14:33:14Z</time>
      </trkpt>
      <trkpt lat="44.30903" lon="4.54979">
        <ele>177.263</ele>
        <time>2012-11-03T14:33:22Z</time>
      </trkpt>
      <trkpt lat="44.30899" lon="4.54979">
        <ele>175.713</ele>
        <time>2012-11-03T14:33:27Z</time>
      </trkpt>
      <trkpt lat="44.30894" lon="4.54983">
        <ele>174.293</ele>
        <time>2012-11-03T14:33:38Z</time>
      </trkpt>
      <trkpt lat="44.30893" lon="4.54985">
        <ele>173.973</ele>
        <time>2012-11-03T14:33:40Z</time>
      </trkpt>
      <trkpt lat="44.30891" lon="4.54988">
        <ele>171.212</ele>
        <time>2012-11-03T14:33:47Z</time>
      </trkpt>
      <trkpt lat="44.30875" lon="4.54991">
        <ele>168.613</ele>
        <time>2012-11-03T14:34:09Z</time>
      </trkpt>
      <trkpt lat="44.30868" lon="4.54996">
        <ele>168.183</ele>
        <time>2012-11-03T14:34:12Z</time>
      </trkpt>
      <trkpt lat="44.30854" lon="4.55012">
        <ele>169.285</ele>
        <time>2012-11-03T14:34:17Z</time>
      </trkpt>
      <trkpt lat="44.30849" lon="4.55018">
        <ele>169.304</ele>
        <time>2012-11-03T14:34:20Z</time>
      </trkpt>
      <trkpt lat="44.30852" lon="4.55039">
        <ele>167.004</ele>
        <time>2012-11-03T14:34:25Z</time>
      </trkpt>
      <trkpt lat="44.30856" lon="4.55051">
        <ele>167.215</ele>
        <time>2012-11-03T14:34:29Z</time>
      </trkpt>
      <trkpt lat="44.30855" lon="4.55069">
        <ele>168.486</ele>
        <time>2012-11-03T14:34:35Z</time>
      </trkpt>
      <trkpt lat="44.30852" lon="4.5508">
        <ele>170.046</ele>
        <time>2012-11-03T14:34:39Z</time>
      </trkpt>
      <trkpt lat="44.3085" lon="4.55087">
        <ele>171.186</ele>
        <time>2012-11-03T14:34:42Z</time>
      </trkpt>
      <trkpt lat="44.30843" lon="4.55086">
        <ele>170.664</ele>
        <time>2012-11-03T14:34:46Z</time>
      </trkpt>
      <trkpt lat="44.30838" lon="4.55096">
        <ele>169.322</ele>
        <time>2012-11-03T14:34:52Z</time>
      </trkpt>
      <trkpt lat="44.30837" lon="4.55112">
        <ele>166.632</ele>
        <time>2012-11-03T14:34:58Z</time>
      </trkpt>
      <trkpt lat="44.30841" lon="4.55126">
        <ele>165.553</ele>
        <time>2012-11-03T14:35:02Z</time>
      </trkpt>
      <trkpt lat="44.30842" lon="4.5513">
        <ele>165.523</ele>
        <time>2012-11-03T14:35:03Z</time>
      </trkpt>
      <trkpt lat="44.30836" lon="4.55149">
        <ele>165.474</ele>
        <time>2012-11-03T14:35:09Z</time>
      </trkpt>
      <trkpt lat="44.30834" lon="4.55157">
        <ele>166.274</ele>
        <time>2012-11-03T14:35:14Z</time>
      </trkpt>
      <trkpt lat="44.30835" lon="4.55159">
        <ele>166.434</ele>
        <time>2012-11-03T14:35:19Z</time>
      </trkpt>
      <trkpt lat="44.30837" lon="4.55165">
        <ele>167.554</ele>
        <time>2012-11-03T14:35:26Z</time>
      </trkpt>
      <trkpt lat="44.30838" lon="4.55168">
        <ele>168.015</ele>
        <time>2012-11-03T14:35:30Z</time>
      </trkpt>
      <trkpt lat="44.30835" lon="4.55176">
        <ele>168.845</ele>
        <time>2012-11-03T14:35:38Z</time>
      </trkpt>
      <trkpt lat="44.30828" lon="4.55184">
        <ele>169.685</ele>
        <time>2012-11-03T14:35:46Z</time>
      </trkpt>
      <trkpt lat="44.30825" lon="4.55187">
        <ele>170.915</ele>
        <time>2012-11-03T14:35:52Z</time>
      </trkpt>
      <trkpt lat="44.30825" lon="4.55187">
        <ele>171.174</ele>
        <time>2012-11-03T14:35:53Z</time>
      </trkpt>
      <trkpt lat="44.30823" lon="4.5519">
        <ele>171.5</ele>
        <time>2012-11-03T14:35:58Z</time>
      </trkpt>
      <trkpt lat="44.30824" lon="4.55192">
        <ele>166.374</ele>
        <time>2012-11-03T14:41:45Z</time>
      </trkpt>
      <trkpt lat="44.30819" lon="4.55197">
        <ele>167.144</ele>
        <time>2012-11-03T14:41:50Z</time>
      </trkpt>
      <trkpt lat="44.30817" lon="4.55197">
        <ele>167.254</ele>
        <time>2012-11-03T14:41:52Z</time>
      </trkpt>
      <trkpt lat="44.30814" lon="4.55201">
        <ele>167.154</ele>
        <time>2012-11-03T14:41:56Z</time>
      </trkpt>
      <trkpt lat="44.30811" lon="4.55205">
        <ele>167.064</ele>
        <time>2012-11-03T14:42:02Z</time>
      </trkpt>
      <trkpt lat="44.30809" lon="4.55205">
        <ele>167.074</ele>
        <time>2012-11-03T14:42:05Z</time>
      </trkpt>
      <trkpt lat="44.30805" lon="4.55211">
        <ele>166.693</ele>
        <time>2012-11-03T14:42:09Z</time>
      </trkpt>
      <trkpt lat="44.30801" lon="4.55213">
        <ele>166.013</ele>
        <time>2012-11-03T14:42:13Z</time>
      </trkpt>
      <trkpt lat="44.30795" lon="4.55223">
        <ele>165.714</ele>
        <time>2012-11-03T14:42:19Z</time>
      </trkpt>
      <trkpt lat="44.30794" lon="4.55224">
        <ele>165.624</ele>
        <time>2012-11-03T14:42:22Z</time>
      </trkpt>
      <trkpt lat="44.30793" lon="4.55225">
        <ele>164.773</ele>
        <time>2012-11-03T14:42:26Z</time>
      </trkpt>
      <trkpt lat="44.3079" lon="4.55229">
        <ele>163.934</ele>
        <time>2012-11-03T14:42:32Z</time>
      </trkpt>
      <trkpt lat="44.30788" lon="4.55234">
        <ele>163.654</ele>
        <time>2012-11-03T14:42:34Z</time>
      </trkpt>
      <trkpt lat="44.30774" lon="4.55244">
        <ele>162.143</ele>
        <time>2012-11-03T14:42:41Z</time>
      </trkpt>
      <trkpt lat="44.30765" lon="4.55259">
        <ele>160.993</ele>
        <time>2012-11-03T14:42:46Z</time>
      </trkpt>
      <trkpt lat="44.30764" lon="4.55261">
        <ele>160.823</ele>
        <time>2012-11-03T14:42:47Z</time>
      </trkpt>
      <trkpt lat="44.30756" lon="4.55261">
        <ele>160.084</ele>
        <time>2012-11-03T14:42:53Z</time>
      </trkpt>
      <trkpt lat="44.30754" lon="4.5526">
        <ele>159.422</ele>
        <time>2012-11-03T14:42:56Z</time>
      </trkpt>
      <trkpt lat="44.30748" lon="4.55266">
        <ele>158.434</ele>
        <time>2012-11-03T14:43:10Z</time>
      </trkpt>
      <trkpt lat="44.30743" lon="4.55269">
        <ele>157.974</ele>
        <time>2012-11-03T14:43:16Z</time>
      </trkpt>
      <trkpt lat="44.30742" lon="4.55269">
        <ele>157.081</ele>
        <time>2012-11-03T14:43:19Z</time>
      </trkpt>
      <trkpt lat="44.3074" lon="4.55269">
        <ele>156.364</ele>
        <time>2012-11-03T14:43:23Z</time>
      </trkpt>
      <trkpt lat="44.30737" lon="4.55268">
        <ele>154.964</ele>
        <time>2012-11-03T14:43:29Z</time>
      </trkpt>
      <trkpt lat="44.30735" lon="4.5527">
        <ele>153.774</ele>
        <time>2012-11-03T14:43:34Z</time>
      </trkpt>
      <trkpt lat="44.30733" lon="4.55271">
        <ele>153.614</ele>
        <time>2012-11-03T14:43:37Z</time>
      </trkpt>
      <trkpt lat="44.30728" lon="4.5528">
        <ele>153.253</ele>
        <time>2012-11-03T14:43:42Z</time>
      </trkpt>
      <trkpt lat="44.30717" lon="4.55294">
        <ele>152.603</ele>
        <time>2012-11-03T14:43:47Z</time>
      </trkpt>
      <trkpt lat="44.30709" lon="4.55301">
        <ele>151.783</ele>
        <time>2012-11-03T14:43:51Z</time>
      </trkpt>
      <trkpt lat="44.30705" lon="4.55305">
        <ele>151.324</ele>
        <time>2012-11-03T14:43:56Z</time>
      </trkpt>
      <trkpt lat="44.30701" lon="4.55307">
        <ele>150.883</ele>
        <time>2012-11-03T14:44:02Z</time>
      </trkpt>
      <trkpt lat="44.30696" lon="4.55317">
        <ele>149.653</ele>
        <time>2012-11-03T14:44:09Z</time>
      </trkpt>
      <trkpt lat="44.30695" lon="4.55319">
        <ele>149.498</ele>
        <time>2012-11-03T14:44:13Z</time>
      </trkpt>
      <trkpt lat="44.30689" lon="4.55325">
        <ele>148.313</ele>
        <time>2012-11-03T14:44:21Z</time>
      </trkpt>
      <trkpt lat="44.30684" lon="4.55331">
        <ele>147.303</ele>
        <time>2012-11-03T14:44:26Z</time>
      </trkpt>
      <trkpt lat="44.30677" lon="4.55331">
        <ele>146.523</ele>
        <time>2012-11-03T14:44:31Z</time>
      </trkpt>
      <trkpt lat="44.30671" lon="4.55341">
        <ele>145.192</ele>
        <time>2012-11-03T14:44:36Z</time>
      </trkpt>
      <trkpt lat="44.30667" lon="4.55344">
        <ele>144.143</ele>
        <time>2012-11-03T14:44:40Z</time>
      </trkpt>
      <trkpt lat="44.30664" lon="4.55349">
        <ele>143.132</ele>
        <time>2012-11-03T14:44:43Z</time>
      </trkpt>
      <trkpt lat="44.3066" lon="4.55352">
        <ele>142.402</ele>
        <time>2012-11-03T14:44:45Z</time>
      </trkpt>
      <trkpt lat="44.30653" lon="4.5536">
        <ele>140.402</ele>
        <time>2012-11-03T14:44:50Z</time>
      </trkpt>
      <trkpt lat="44.30647" lon="4.5537">
        <ele>137.303</ele>
        <time>2012-11-03T14:44:56Z</time>
      </trkpt>
      <trkpt lat="44.30643" lon="4.55378">
        <ele>135.313</ele>
        <time>2012-11-03T14:45:01Z</time>
      </trkpt>
      <trkpt lat="44.30642" lon="4.55379">
        <ele>135.023</ele>
        <time>2012-11-03T14:45:02Z</time>
      </trkpt>
      <trkpt lat="44.30637" lon="4.55385">
        <ele>134.153</ele>
        <time>2012-11-03T14:45:06Z</time>
      </trkpt>
      <trkpt lat="44.30636" lon="4.55393">
        <ele>133.004</ele>
        <time>2012-11-03T14:45:10Z</time>
      </trkpt>
      <trkpt lat="44.30633" lon="4.55397">
        <ele>132.854</ele>
        <time>2012-11-03T14:45:14Z</time>
      </trkpt>
      <trkpt lat="44.3063" lon="4.55394">
        <ele>131.263</ele>
        <time>2012-11-03T14:45:17Z</time>
      </trkpt>
      <trkpt lat="44.3062" lon="4.55398">
        <ele>128.802</ele>
        <time>2012-11-03T14:45:22Z</time>
      </trkpt>
      <trkpt lat="44.30614" lon="4.55401">
        <ele>127.933</ele>
        <time>2012-11-03T14:45:25Z</time>
      </trkpt>
      <trkpt lat="44.30606" lon="4.55406">
        <ele>126.153</ele>
        <time>2012-11-03T14:45:31Z</time>
      </trkpt>
      <trkpt lat="44.30602" lon="4.55407">
        <ele>125.042</ele>
        <time>2012-11-03T14:45:33Z</time>
      </trkpt>
      <trkpt lat="44.30592" lon="4.55418">
        <ele>122.503</ele>
        <time>2012-11-03T14:45:41Z</time>
      </trkpt>
      <trkpt lat="44.30588" lon="4.5542">
        <ele>120.823</ele>
        <time>2012-11-03T14:45:46Z</time>
      </trkpt>
      <trkpt lat="44.30588" lon="4.5542">
        <ele>120.657</ele>
        <time>2012-11-03T14:45:47Z</time>
      </trkpt>
      <trkpt lat="44.3059" lon="4.55427">
        <ele>120.601</ele>
        <time>2012-11-03T14:46:14Z</time>
      </trkpt>
      <trkpt lat="44.30588" lon="4.55424">
        <ele>122.303</ele>
        <time>2012-11-03T14:51:12Z</time>
      </trkpt>
      <trkpt lat="44.30587" lon="4.55424">
        <ele>121.926</ele>
        <time>2012-11-03T14:51:14Z</time>
      </trkpt>
      <trkpt lat="44.30585" lon="4.55425">
        <ele>121.341</ele>
        <time>2012-11-03T14:51:21Z</time>
      </trkpt>
      <trkpt lat="44.30579" lon="4.55423">
        <ele>118.454</ele>
        <time>2012-11-03T14:52:43Z</time>
      </trkpt>
      <trkpt lat="44.30578" lon="4.55424">
        <ele>118.193</ele>
        <time>2012-11-03T14:52:44Z</time>
      </trkpt>
      <trkpt lat="44.30572" lon="4.55428">
        <ele>116.672</ele>
        <time>2012-11-03T14:52:49Z</time>
      </trkpt>
      <trkpt lat="44.30571" lon="4.5543">
        <ele>116.342</ele>
        <time>2012-11-03T14:52:50Z</time>
      </trkpt>
      <trkpt lat="44.3057" lon="4.55434">
        <ele>115.823</ele>
        <time>2012-11-03T14:52:52Z</time>
      </trkpt>
      <trkpt lat="44.30565" lon="4.55442">
        <ele>114.763</ele>
        <time>2012-11-03T14:52:56Z</time>
      </trkpt>
      <trkpt lat="44.3056" lon="4.55452">
        <ele>112.582</ele>
        <time>2012-11-03T14:53:03Z</time>
      </trkpt>
      <trkpt lat="44.30548" lon="4.55458">
        <ele>109.783</ele>
        <time>2012-11-03T14:53:09Z</time>
      </trkpt>
      <trkpt lat="44.30546" lon="4.5546">
        <ele>109.471</ele>
        <time>2012-11-03T14:53:12Z</time>
      </trkpt>
      <trkpt lat="44.30544" lon="4.5546">
        <ele>108.323</ele>
        <time>2012-11-03T14:53:17Z</time>
      </trkpt>
      <trkpt lat="44.30544" lon="4.5546">
        <ele>107.832</ele>
        <time>2012-11-03T14:53:19Z</time>
      </trkpt>
      <trkpt lat="44.30541" lon="4.55461">
        <ele>106.464</ele>
        <time>2012-11-03T14:53:29Z</time>
      </trkpt>
      <trkpt lat="44.30541" lon="4.55462">
        <ele>106.444</ele>
        <time>2012-11-03T14:53:30Z</time>
      </trkpt>
      <trkpt lat="44.30532" lon="4.55468">
        <ele>104.833</ele>
        <time>2012-11-03T14:53:35Z</time>
      </trkpt>
      <trkpt lat="44.30528" lon="4.5547">
        <ele>104.212</ele>
        <time>2012-11-03T14:53:37Z</time>
      </trkpt>
      <trkpt lat="44.3052" lon="4.55481">
        <ele>102.342</ele>
        <time>2012-11-03T14:53:43Z</time>
      </trkpt>
      <trkpt lat="44.30519" lon="4.55486">
        <ele>101.531</ele>
        <time>2012-11-03T14:53:45Z</time>
      </trkpt>
      <trkpt lat="44.30511" lon="4.55491">
        <ele>100.723</ele>
        <time>2012-11-03T14:53:49Z</time>
      </trkpt>
      <trkpt lat="44.30496" lon="4.555">
        <ele>100.023</ele>
        <time>2012-11-03T14:53:54Z</time>
      </trkpt>
      <trkpt lat="44.30493" lon="4.55501">
        <ele>100.084</ele>
        <time>2012-11-03T14:53:57Z</time>
      </trkpt>
      <trkpt lat="44.30479" lon="4.55512">
        <ele>99.984</ele>
        <time>2012-11-03T14:54:10Z</time>
      </trkpt>
      <trkpt lat="44.30475" lon="4.55515">
        <ele>99.894</ele>
        <time>2012-11-03T14:54:12Z</time>
      </trkpt>
      <trkpt lat="44.30466" lon="4.55531">
        <ele>99.734</ele>
        <time>2012-11-03T14:54:19Z</time>
      </trkpt>
      <trkpt lat="44.3045" lon="4.5554">
        <ele>98.174</ele>
        <time>2012-11-03T14:54:26Z</time>
      </trkpt>
      <trkpt lat="44.30438" lon="4.55534">
        <ele>98.784</ele>
        <time>2012-11-03T14:54:31Z</time>
      </trkpt>
      <trkpt lat="44.30424" lon="4.55526">
        <ele>98.574</ele>
        <time>2012-11-03T14:54:36Z</time>
      </trkpt>
      <trkpt lat="44.30424" lon="4.55523">
        <ele>97.683</ele>
        <time>2012-11-03T14:54:38Z</time>
      </trkpt>
      <trkpt lat="44.30423" lon="4.55533">
        <ele>98.744</ele>
        <time>2012-11-03T14:54:42Z</time>
      </trkpt>
      <trkpt lat="44.30422" lon="4.55538">
        <ele>97.434</ele>
        <time>2012-11-03T14:54:43Z</time>
      </trkpt>
      <trkpt lat="44.30417" lon="4.55559">
        <ele>93.672</ele>
        <time>2012-11-03T14:54:48Z</time>
      </trkpt>
      <trkpt lat="44.30418" lon="4.5556">
        <ele>95.367</ele>
        <time>2012-11-03T14:54:50Z</time>
      </trkpt>
      <trkpt lat="44.30421" lon="4.55567">
        <ele>98.955</ele>
        <time>2012-11-03T14:55:58Z</time>
      </trkpt>
      <trkpt lat="44.30415" lon="4.55574">
        <ele>94.405</ele>
        <time>2012-11-03T14:56:19Z</time>
      </trkpt>
      <trkpt lat="44.30415" lon="4.55574">
        <ele>94.773</ele>
        <time>2012-11-03T14:56:20Z</time>
      </trkpt>
      <trkpt lat="44.30405" lon="4.5558">
        <ele>92.493</ele>
        <time>2012-11-03T14:56:34Z</time>
      </trkpt>
      <trkpt lat="44.30396" lon="4.55583">
        <ele>92.203</ele>
        <time>2012-11-03T14:56:39Z</time>
      </trkpt>
      <trkpt lat="44.30396" lon="4.55594">
        <ele>93.343</ele>
        <time>2012-11-03T14:56:44Z</time>
      </trkpt>
      <trkpt lat="44.30397" lon="4.55597">
        <ele>93.924</ele>
        <time>2012-11-03T14:56:45Z</time>
      </trkpt>
      <trkpt lat="44.30402" lon="4.55616">
        <ele>95.474</ele>
        <time>2012-11-03T14:56:50Z</time>
      </trkpt>
      <trkpt lat="44.30394" lon="4.55629">
        <ele>97.755</ele>
        <time>2012-11-03T14:56:56Z</time>
      </trkpt>
      <trkpt lat="44.3038" lon="4.55636">
        <ele>98.145</ele>
        <time>2012-11-03T14:57:04Z</time>
      </trkpt>
      <trkpt lat="44.30365" lon="4.55649">
        <ele>100.545</ele>
        <time>2012-11-03T14:57:12Z</time>
      </trkpt>
      <trkpt lat="44.30355" lon="4.55659">
        <ele>101.134</ele>
        <time>2012-11-03T14:57:18Z</time>
      </trkpt>
      <trkpt lat="44.30345" lon="4.55668">
        <ele>99.333</ele>
        <time>2012-11-03T14:57:26Z</time>
      </trkpt>
      <trkpt lat="44.30328" lon="4.55678">
        <ele>98.894</ele>
        <time>2012-11-03T14:57:32Z</time>
      </trkpt>
      <trkpt lat="44.30325" lon="4.5568">
        <ele>99.084</ele>
        <time>2012-11-03T14:57:36Z</time>
      </trkpt>
      <trkpt lat="44.30319" lon="4.55682">
        <ele>101.704</ele>
        <time>2012-11-03T14:58:05Z</time>
      </trkpt>
      <trkpt lat="44.30309" lon="4.55685">
        <ele>102.665</ele>
        <time>2012-11-03T14:58:12Z</time>
      </trkpt>
      <trkpt lat="44.30292" lon="4.55667">
        <ele>95.842</ele>
        <time>2012-11-03T14:58:21Z</time>
      </trkpt>
      <trkpt lat="44.30284" lon="4.55672">
        <ele>95.213</ele>
        <time>2012-11-03T14:58:24Z</time>
      </trkpt>
      <trkpt lat="44.30277" lon="4.55671">
        <ele>94.753</ele>
        <time>2012-11-03T14:58:26Z</time>
      </trkpt>
      <trkpt lat="44.30271" lon="4.55669">
        <ele>91.762</ele>
        <time>2012-11-03T14:58:29Z</time>
      </trkpt>
      <trkpt lat="44.30271" lon="4.5566">
        <ele>94.414</ele>
        <time>2012-11-03T14:58:34Z</time>
      </trkpt>
      <trkpt lat="44.30272" lon="4.55659">
        <ele>94.644</ele>
        <time>2012-11-03T14:58:35Z</time>
      </trkpt>
      <trkpt lat="44.30277" lon="4.55654">
        <ele>94.563</ele>
        <time>2012-11-03T14:58:42Z</time>
      </trkpt>
      <trkpt lat="44.3028" lon="4.55649">
        <ele>102.971</ele>
        <time>2012-11-03T14:59:53Z</time>
      </trkpt>
      <trkpt lat="44.3028" lon="4.55631">
        <ele>95.43</ele>
        <time>2012-11-03T14:59:59Z</time>
      </trkpt>
      <trkpt lat="44.3028" lon="4.55628">
        <ele>93.92</ele>
        <time>2012-11-03T15:00:00Z</time>
      </trkpt>
      <trkpt lat="44.30271" lon="4.55618">
        <ele>91.261</ele>
        <time>2012-11-03T15:00:04Z</time>
      </trkpt>
      <trkpt lat="44.30267" lon="4.55617">
        <ele>91.612</ele>
        <time>2012-11-03T15:00:05Z</time>
      </trkpt>
      <trkpt lat="44.30238" lon="4.55627">
        <ele>89.603</ele>
        <time>2012-11-03T15:00:12Z</time>
      </trkpt>
      <trkpt lat="44.3022" lon="4.55634">
        <ele>90.993</ele>
        <time>2012-11-03T15:00:16Z</time>
      </trkpt>
      <trkpt lat="44.30185" lon="4.55649">
        <ele>94.085</ele>
        <time>2012-11-03T15:00:25Z</time>
      </trkpt>
      <trkpt lat="44.30156" lon="4.55659">
        <ele>92.354</ele>
        <time>2012-11-03T15:00:33Z</time>
      </trkpt>
      <trkpt lat="44.30115" lon="4.55676">
        <ele>92.734</ele>
        <time>2012-11-03T15:00:44Z</time>
      </trkpt>
      <trkpt lat="44.30101" lon="4.55691">
        <ele>93.444</ele>
        <time>2012-11-03T15:00:49Z</time>
      </trkpt>
      <trkpt lat="44.30101" lon="4.55711">
        <ele>93.684</ele>
        <time>2012-11-03T15:00:53Z</time>
      </trkpt>
      <trkpt lat="44.30109" lon="4.55735">
        <ele>93.964</ele>
        <time>2012-11-03T15:00:59Z</time>
      </trkpt>
      <trkpt lat="44.30117" lon="4.55771">
        <ele>95.414</ele>
        <time>2012-11-03T15:01:09Z</time>
      </trkpt>
      <trkpt lat="44.30121" lon="4.55803">
        <ele>96.384</ele>
        <time>2012-11-03T15:01:19Z</time>
      </trkpt>
      <trkpt lat="44.30126" lon="4.55827">
        <ele>98.224</ele>
        <time>2012-11-03T15:01:26Z</time>
      </trkpt>
      <trkpt lat="44.30137" lon="4.55858">
        <ele>99.593</ele>
        <time>2012-11-03T15:01:35Z</time>
      </trkpt>
      <trkpt lat="44.3014" lon="4.5588">
        <ele>98.332</ele>
        <time>2012-11-03T15:01:40Z</time>
      </trkpt>
      <trkpt lat="44.30127" lon="4.55921">
        <ele>96.221</ele>
        <time>2012-11-03T15:01:47Z</time>
      </trkpt>
      <trkpt lat="44.30111" lon="4.55965">
        <ele>94.182</ele>
        <time>2012-11-03T15:01:53Z</time>
      </trkpt>
      <trkpt lat="44.30089" lon="4.56021">
        <ele>90.991</ele>
        <time>2012-11-03T15:01:59Z</time>
      </trkpt>
      <trkpt lat="44.30063" lon="4.56087">
        <ele>86.15</ele>
        <time>2012-11-03T15:02:05Z</time>
      </trkpt>
      <trkpt lat="44.30044" lon="4.56133">
        <ele>82.97</ele>
        <time>2012-11-03T15:02:09Z</time>
      </trkpt>
      <trkpt lat="44.3003" lon="4.56199">
        <ele>79.981</ele>
        <time>2012-11-03T15:02:14Z</time>
      </trkpt>
      <trkpt lat="44.30022" lon="4.56279">
        <ele>77.462</ele>
        <time>2012-11-03T15:02:20Z</time>
      </trkpt>
      <trkpt lat="44.30011" lon="4.56349">
        <ele>74.231</ele>
        <time>2012-11-03T15:02:26Z</time>
      </trkpt>
      <trkpt lat="44.29991" lon="4.56421">
        <ele>70.501</ele>
        <time>2012-11-03T15:02:32Z</time>
      </trkpt>
      <trkpt lat="44.29969" lon="4.56506">
        <ele>65.361</ele>
        <time>2012-11-03T15:02:39Z</time>
      </trkpt>
      <trkpt lat="44.29947" lon="4.5658">
        <ele>59.589</ele>
        <time>2012-11-03T15:02:45Z</time>
      </trkpt>
      <trkpt lat="44.29935" lon="4.56612">
        <ele>56.29</ele>
        <time>2012-11-03T15:02:48Z</time>
      </trkpt>
      <trkpt lat="44.29918" lon="4.5664">
        <ele>55.342</ele>
        <time>2012-11-03T15:02:52Z</time>
      </trkpt>
      <trkpt lat="44.29912" lon="4.56647">
        <ele>55.692</ele>
        <time>2012-11-03T15:02:55Z</time>
      </trkpt>
      <trkpt lat="44.29912" lon="4.56648">
        <ele>56.281</ele>
        <time>2012-11-03T15:02:57Z</time>
      </trkpt>
      <trkpt lat="44.2992" lon="4.56661">
        <ele>58.634</ele>
        <time>2012-11-03T15:03:09Z</time>
      </trkpt>
      <trkpt lat="44.29924" lon="4.56663">
        <ele>58.154</ele>
        <time>2012-11-03T15:03:10Z</time>
      </trkpt>
      <trkpt lat="44.29939" lon="4.5667">
        <ele>57.564</ele>
        <time>2012-11-03T15:03:13Z</time>
      </trkpt>
      <trkpt lat="44.29964" lon="4.56683">
        <ele>56.554</ele>
        <time>2012-11-03T15:03:18Z</time>
      </trkpt>
      <trkpt lat="44.30015" lon="4.56707">
        <ele>55.104</ele>
        <time>2012-11-03T15:03:27Z</time>
      </trkpt>
      <trkpt lat="44.30058" lon="4.56728">
        <ele>54.124</ele>
        <time>2012-11-03T15:03:35Z</time>
      </trkpt>
      <trkpt lat="44.30081" lon="4.5674">
        <ele>53.364</ele>
        <time>2012-11-03T15:03:40Z</time>
      </trkpt>
      <trkpt lat="44.30101" lon="4.56736">
        <ele>51.232</ele>
        <time>2012-11-03T15:03:44Z</time>
      </trkpt>
      <trkpt lat="44.30113" lon="4.56712">
        <ele>49.332</ele>
        <time>2012-11-03T15:03:47Z</time>
      </trkpt>
      <trkpt lat="44.30139" lon="4.56639">
        <ele>48.173</ele>
        <time>2012-11-03T15:03:54Z</time>
      </trkpt>
      <trkpt lat="44.30154" lon="4.56618">
        <ele>47.584</ele>
        <time>2012-11-03T15:03:58Z</time>
      </trkpt>
      <trkpt lat="44.30159" lon="4.5662">
        <ele>47.885</ele>
        <time>2012-11-03T15:03:59Z</time>
      </trkpt>
      <trkpt lat="44.30169" lon="4.56624">
        <ele>48.316</ele>
        <time>2012-11-03T15:04:01Z</time>
      </trkpt>
      <trkpt lat="44.3019" lon="4.56627">
        <ele>49.796</ele>
        <time>2012-11-03T15:04:05Z</time>
      </trkpt>
      <trkpt lat="44.30209" lon="4.56638">
        <ele>51.827</ele>
        <time>2012-11-03T15:04:09Z</time>
      </trkpt>
      <trkpt lat="44.30217" lon="4.56646">
        <ele>52.647</ele>
        <time>2012-11-03T15:04:11Z</time>
      </trkpt>
      <trkpt lat="44.30228" lon="4.5667">
        <ele>52.676</ele>
        <time>2012-11-03T15:04:15Z</time>
      </trkpt>
      <trkpt lat="44.30229" lon="4.56675">
        <ele>52.216</ele>
        <time>2012-11-03T15:04:16Z</time>
      </trkpt>
      <trkpt lat="44.30243" lon="4.56705">
        <ele>53.506</ele>
        <time>2012-11-03T15:04:22Z</time>
      </trkpt>
      <trkpt lat="44.30246" lon="4.56708">
        <ele>53.466</ele>
        <time>2012-11-03T15:04:23Z</time>
      </trkpt>
      <trkpt lat="44.30264" lon="4.5672">
        <ele>53.235</ele>
        <time>2012-11-03T15:04:29Z</time>
      </trkpt>
      <trkpt lat="44.30276" lon="4.56736">
        <ele>53.785</ele>
        <time>2012-11-03T15:04:34Z</time>
      </trkpt>
      <trkpt lat="44.3029" lon="4.56757">
        <ele>54.045</ele>
        <time>2012-11-03T15:04:40Z</time>
      </trkpt>
      <trkpt lat="44.3031" lon="4.56755">
        <ele>55.486</ele>
        <time>2012-11-03T15:04:46Z</time>
      </trkpt>
      <trkpt lat="44.30331" lon="4.56747">
        <ele>58.297</ele>
        <time>2012-11-03T15:04:53Z</time>
      </trkpt>
      <trkpt lat="44.30353" lon="4.56737">
        <ele>61.307</ele>
        <time>2012-11-03T15:05:00Z</time>
      </trkpt>
      <trkpt lat="44.30364" lon="4.56725">
        <ele>62.577</ele>
        <time>2012-11-03T15:05:06Z</time>
      </trkpt>
      <trkpt lat="44.30378" lon="4.5671">
        <ele>62.206</ele>
        <time>2012-11-03T15:05:14Z</time>
      </trkpt>
      <trkpt lat="44.30388" lon="4.56713">
        <ele>62.577</ele>
        <time>2012-11-03T15:05:19Z</time>
      </trkpt>
      <trkpt lat="44.30401" lon="4.56722">
        <ele>64.367</ele>
        <time>2012-11-03T15:05:26Z</time>
      </trkpt>
      <trkpt lat="44.30414" lon="4.56725">
        <ele>65.737</ele>
        <time>2012-11-03T15:05:34Z</time>
      </trkpt>
      <trkpt lat="44.30421" lon="4.56727">
        <ele>66.427</ele>
        <time>2012-11-03T15:05:38Z</time>
      </trkpt>
      <trkpt lat="44.30429" lon="4.56723">
        <ele>68.017</ele>
        <time>2012-11-03T15:05:45Z</time>
      </trkpt>
      <trkpt lat="44.30435" lon="4.56721">
        <ele>69.497</ele>
        <time>2012-11-03T15:05:50Z</time>
      </trkpt>
      <trkpt lat="44.30447" lon="4.56719">
        <ele>71.917</ele>
        <time>2012-11-03T15:06:00Z</time>
      </trkpt>
      <trkpt lat="44.30456" lon="4.56718">
        <ele>73.167</ele>
        <time>2012-11-03T15:06:07Z</time>
      </trkpt>
      <trkpt lat="44.30466" lon="4.56717">
        <ele>74.347</ele>
        <time>2012-11-03T15:06:14Z</time>
      </trkpt>
      <trkpt lat="44.30477" lon="4.56717">
        <ele>75.137</ele>
        <time>2012-11-03T15:06:21Z</time>
      </trkpt>
      <trkpt lat="44.30483" lon="4.56716">
        <ele>75.816</ele>
        <time>2012-11-03T15:06:25Z</time>
      </trkpt>
      <trkpt lat="44.30495" lon="4.56716">
        <ele>77.067</ele>
        <time>2012-11-03T15:06:33Z</time>
      </trkpt>
      <trkpt lat="44.30508" lon="4.56717">
        <ele>78.047</ele>
        <time>2012-11-03T15:06:41Z</time>
      </trkpt>
      <trkpt lat="44.30518" lon="4.5672">
        <ele>78.307</ele>
        <time>2012-11-03T15:06:48Z</time>
      </trkpt>
      <trkpt lat="44.30528" lon="4.56722">
        <ele>77.807</ele>
        <time>2012-11-03T15:06:54Z</time>
      </trkpt>
      <trkpt lat="44.30542" lon="4.56726">
        <ele>78.117</ele>
        <time>2012-11-03T15:07:03Z</time>
      </trkpt>
      <trkpt lat="44.30559" lon="4.56728">
        <ele>79.827</ele>
        <time>2012-11-03T15:07:13Z</time>
      </trkpt>
      <trkpt lat="44.30568" lon="4.56732">
        <ele>80.367</ele>
        <time>2012-11-03T15:07:19Z</time>
      </trkpt>
      <trkpt lat="44.30571" lon="4.56745">
        <ele>80.406</ele>
        <time>2012-11-03T15:07:24Z</time>
      </trkpt>
      <trkpt lat="44.30572" lon="4.5675">
        <ele>80.406</ele>
        <time>2012-11-03T15:07:29Z</time>
      </trkpt>
    </trkseg>
  </trk>
</gpx>